GFSSGP_sfc_dewp_000.txt.gz
Dewpoint
75 72 70 66 52 48 48 50 53 54 55 61 60 58 59 60 56 53 68 70 71 71 73 73 76 74 74 74 74 74 74 75 76 77 77 77 76 76 76 75 76 75 75 74 75 75 74 74 73
72 69 69 63 44 45 45 51 51 54 59 61 61 61 61 59 65 67 67 72 72 72 73 74 76 75 75 75 75 75 75 76 77 77 77 77 77 76 76 76 75 75 74 74 74 73 73 72 72
69 67 63 58 42 43 46 51 54 58 61 59 60 62 62 62 66 67 70 72 73 73 74 75 76 76 75 76 76 77 77 77 77 77 77 77 77 76 75 75 75 75 74 73 72 72 72 72 72
64 62 58 40 36 43 49 52 57 58 60 61 61 61 64 66 66 69 72 73 73 74 75 76 76 76 76 76 76 76 77 77 77 78 77 77 76 75 74 74 74 74 73 72 72 72 72 72 73
61 54 42 40 43 51 52 53 56 56 60 61 62 62 63 67 69 70 72 72 73 74 75 75 77 77 76 76 76 77 77 77 77 77 77 76 75 75 75 74 74 73 73 72 72 72 72 73 73
50 49 40 40 45 52 52 53 57 60 62 62 61 62 65 68 68 70 71 72 75 75 75 75 76 76 77 77 77 77 77 77 77 77 76 76 75 75 75 74 73 72 72 72 72 73 73 73 74
54 47 44 43 48 51 53 59 60 61 61 61 63 60 66 67 69 70 71 73 75 75 76 76 76 76 77 78 77 77 77 76 76 76 76 76 75 75 75 74 73 73 73 73 73 73 74 74 74
49 44 45 44 48 49 55 59 61 59 60 63 63 60 62 67 70 70 71 73 75 75 76 76 76 76 76 77 76 76 76 76 76 76 75 75 75 74 73 75 75 74 74 74 74 73 74 74 74
52 42 41 43 44 46 55 59 60 62 61 61 62 63 65 69 70 70 71 72 73 74 74 75 75 75 77 77 76 76 75 75 75 75 75 76 75 74 74 73 73 73 73 73 74 73 73 74 73
46 43 42 44 45 51 53 58 59 59 59 61 63 66 68 69 69 69 69 69 71 72 73 75 75 75 76 77 76 75 75 75 75 75 75 75 74 73 70 73 73 72 71 74 74 73 74 73 72
46 41 44 44 46 52 52 57 57 57 57 61 62 65 68 68 68 69 69 69 70 72 73 74 75 75 76 76 76 75 75 75 75 75 75 74 73 72 73 71 72 72 73 73 73 72 71 71 71
39 43 45 45 49 51 52 55 57 57 57 61 63 66 67 68 68 68 68 70 71 72 73 74 75 75 75 75 75 74 74 75 74 74 74 73 72 71 71 72 72 72 72 71 71 71 71 71 71
29 30 44 48 46 48 52 54 57 56 60 63 64 66 66 67 68 68 69 71 71 72 73 73 74 75 75 74 75 74 74 74 74 74 74 73 72 70 70 72 72 72 72 71 71 71 70 70 70
28 42 45 47 48 49 53 55 56 58 62 64 64 64 65 66 67 68 69 70 71 72 72 73 74 75 75 74 74 74 73 74 74 73 73 73 72 71 71 72 71 71 72 70 71 70 69 68 68
42 42 44 46 48 54 53 52 54 59 62 63 64 65 66 66 68 68 69 70 71 72 72 73 74 75 74 74 73 73 74 74 73 73 73 73 73 71 71 71 70 71 70 70 70 69 67 67 67
39 42 41 44 48 53 49 47 57 59 59 62 64 65 65 66 67 68 69 70 71 71 72 72 73 74 74 73 72 73 73 73 73 73 72 72 73 72 71 70 70 70 70 69 69 68 67 67 66
36 39 40 43 47 50 50 49 57 58 59 61 63 63 64 66 66 68 68 69 70 70 71 72 73 73 73 72 73 73 73 72 72 72 72 72 72 72 72 70 70 70 70 70 68 67 67 67 66
36 39 39 43 43 48 48 50 57 57 57 59 60 60 63 63 64 65 66 68 69 70 71 72 73 73 72 73 73 72 72 72 72 72 72 72 72 72 72 70 70 70 70 68 68 68 67 67 66
35 39 39 42 44 45 48 50 56 57 56 56 57 58 60 61 62 63 64 66 67 68 70 72 72 73 73 72 72 71 71 71 71 72 72 72 71 72 71 71 70 70 69 68 68 67 67 66 67
35 33 37 37 42 44 49 50 55 56 56 56 57 57 58 59 60 61 63 65 65 67 70 71 72 72 73 72 72 72 71 71 72 72 72 72 72 72 70 70 69 70 69 68 67 67 66 66 67
25 24 26 35 43 47 48 48 51 55 56 56 57 57 58 58 59 60 61 64 65 66 69 70 71 72 73 72 72 72 72 72 72 72 72 72 71 71 71 70 70 68 67 66 66 66 66 65 66
24 25 26 35 39 37 44 37 47 50 53 54 54 56 57 58 59 59 60 62 64 65 68 70 70 71 72 72 71 71 70 70 70 69 71 71 70 69 68 68 67 66 66 66 66 67 67 66 64
23 27 28 36 37 39 44 37 39 50 50 51 52 54 55 56 58 59 60 61 63 65 67 68 69 70 71 72 72 71 70 70 66 66 68 68 66 65 66 66 66 67 65 65 66 66 66 66 65
25 19 26 30 34 32 37 38 36 48 49 50 52 54 55 56 58 59 60 61 63 65 66 68 69 70 71 72 72 71 70 68 65 65 66 64 63 63 64 65 67 66 65 65 65 65 65 65 66
20 21 19 22 30 29 36 39 36 42 49 49 51 53 56 57 59 59 60 61 63 65 66 68 69 69 71 72 72 72 71 67 65 64 64 62 61 63 64 66 65 64 63 64 64 65 65 64 65
21 21 20 16 22 30 38 38 39 41 43 49 51 53 54 56 59 59 60 61 63 65 66 68 69 69 71 72 72 73 71 66 64 64 62 62 62 63 64 63 63 61 62 63 64 64 64 64 65
20 18 21 19 26 22 29 29 31 36 39 47 49 52 53 56 58 60 61 62 63 64 66 68 69 69 71 71 72 70 68 64 63 63 62 62 63 62 63 62 63 61 61 64 64 63 64 64 64
19 21 19 20 19 22 24 26 29 34 37 42 47 50 51 54 58 59 62 62 63 64 65 67 68 69 70 70 70 68 66 63 62 62 62 61 61 62 62 62 62 62 62 63 64 63 63 64 63
21 20 21 21 21 18 18 23 30 32 37 39 45 48 49 52 56 58 62 63 64 64 65 67 68 69 70 69 67 65 63 62 61 62 62 61 61 62 62 62 62 62 62 63 63 63 63 64 64
19 19 20 17 18 23 21 20 29 34 37 45 44 47 48 52 56 58 61 63 64 64 64 66 67 68 69 69 66 64 61 62 61 62 63 62 62 62 62 62 63 63 63 63 63 63 64 63 63

GFSSGP_sfc_dewp_003.txt.gz
Dewpoint
74 73 71 68 52 49 48 50 53 54 55 60 59 58 60 61 56 54 66 69 69 70 71 72 75 74 74 74 74 74 75 76 77 77 76 75 74 75 75 76 76 76 75 75 75 74 74 74 74
69 70 69 61 45 42 47 51 52 54 59 60 61 60 60 59 63 64 66 69 69 69 71 71 75 75 74 74 74 75 76 76 76 77 76 75 75 75 75 75 75 75 75 75 74 74 73 73 73
69 67 63 52 46 41 45 51 55 58 59 58 60 61 60 60 63 64 67 69 69 70 72 73 75 75 75 75 75 75 76 76 76 76 76 76 75 75 76 75 75 75 75 74 73 73 73 73 73
64 62 57 41 42 46 49 53 57 59 59 60 59 58 62 65 63 66 68 69 69 70 72 74 75 75 75 75 75 76 76 76 77 77 76 76 76 75 74 74 74 74 74 74 73 73 73 74 74
60 52 42 43 46 50 51 56 58 57 59 58 59 58 61 66 67 67 69 69 69 70 71 73 76 75 76 76 76 77 77 76 77 76 76 76 75 74 74 74 74 74 73 73 73 73 73 73 74
50 49 40 40 48 51 52 56 57 59 60 60 58 58 62 68 65 67 69 69 69 69 72 73 76 76 76 76 76 76 77 77 77 76 76 76 75 75 74 74 73 73 73 73 73 73 74 74 74
49 46 43 44 49 50 51 55 57 58 59 58 60 59 64 65 65 67 69 70 70 71 72 74 75 76 76 77 77 77 78 77 76 76 76 76 75 75 75 74 73 73 73 73 74 74 74 74 74
49 45 42 45 47 47 54 56 59 57 58 61 61 58 61 64 65 67 69 70 71 72 72 74 75 75 75 74 77 76 76 76 76 76 76 75 74 74 74 74 74 74 74 74 74 74 73 73 74
51 43 40 41 47 48 55 54 60 60 60 60 61 61 61 65 66 66 68 69 70 72 73 74 73 75 76 75 75 76 75 75 75 75 74 74 73 73 72 74 74 73 73 73 74 73 74 74 73
45 44 41 42 47 49 55 54 58 59 58 58 61 63 65 67 65 65 66 67 68 69 71 73 74 74 74 73 74 75 73 71 72 73 74 73 74 74 73 72 74 73 72 73 74 74 73 71 69
45 42 43 43 46 51 54 55 58 57 56 57 60 64 65 66 65 65 65 66 66 69 70 72 73 74 74 76 75 75 74 73 73 75 74 75 74 73 71 72 70 70 72 70 70 70 70 71 70
38 41 42 43 49 51 53 55 55 56 53 57 62 65 65 65 65 65 65 66 67 69 70 71 73 75 75 77 73 76 73 74 71 72 76 75 72 72 73 72 73 75 72 72 72 70 72 70 70
32 31 39 43 49 50 54 54 54 56 56 60 63 65 65 65 65 66 66 67 68 68 70 72 74 75 75 75 73 72 75 71 71 73 74 73 72 73 73 73 73 74 73 72 72 72 71 70 68
28 33 36 45 49 51 51 54 54 55 61 62 63 64 65 65 65 67 68 68 69 69 70 72 74 75 76 75 76 75 75 74 73 73 73 75 74 74 76 73 75 72 73 71 72 71 70 69 68
43 43 46 47 48 51 53 54 53 56 61 61 62 63 65 65 66 67 67 68 70 70 70 71 73 75 75 76 76 75 74 73 71 71 74 75 75 76 75 76 75 72 72 73 72 71 70 68 67
40 43 40 47 49 52 48 42 53 59 60 60 61 62 64 65 66 67 68 69 71 71 72 72 70 72 74 74 76 74 74 73 72 73 74 75 75 75 76 77 76 73 72 71 70 69 68 69 67
40 35 40 45 49 52 49 44 53 59 59 59 61 61 63 64 66 68 69 70 70 72 73 73 74 73 75 76 76 75 76 75 75 74 74 75 75 75 76 76 75 73 71 74 71 70 70 67 67
34 38 40 41 46 50 49 47 56 58 58 59 61 62 63 64 66 68 69 70 71 72 73 74 73 75 76 77 77 77 77 78 74 74 74 75 75 74 74 74 73 72 73 71 71 71 70 69 68
34 38 38 43 45 46 47 47 54 57 57 57 60 62 63 63 65 67 68 69 70 72 72 74 74 75 75 73 72 73 70 73 73 73 75 75 75 74 75 75 73 73 70 71 71 70 69 67 69
38 38 38 41 44 44 47 46 51 56 57 57 58 60 61 62 64 66 67 68 69 71 72 73 74 75 76 74 75 73 73 73 72 73 75 74 74 74 74 74 71 72 69 71 70 70 67 67 69
29 34 38 38 41 46 46 43 49 55 56 57 57 58 59 60 62 64 65 67 68 70 72 73 75 76 76 76 75 75 74 74 73 73 73 73 74 74 74 73 71 71 69 65 69 68 69 65 68
24 33 36 40 39 37 43 35 46 50 55 56 56 57 57 59 61 62 63 65 67 69 70 73 74 76 76 77 75 75 71 70 71 73 73 73 74 73 72 72 70 71 68 69 68 68 69 69 65
27 29 33 37 37 38 42 37 36 50 51 54 55 56 57 57 59 60 62 64 65 67 69 71 75 76 76 76 76 74 73 72 72 72 73 75 74 73 70 70 70 70 68 69 68 70 69 67 65
28 29 31 35 33 29 31 36 30 46 48 49 52 55 56 57 58 60 61 63 65 66 68 70 74 75 75 76 76 75 75 74 72 72 69 69 71 69 69 68 69 70 69 68 66 69 68 67 67
26 25 24 25 27 24 32 38 34 39 45 47 48 53 55 56 58 59 61 62 64 66 68 69 73 74 74 74 75 75 75 75 75 74 70 70 69 67 67 68 69 68 70 67 67 68 67 67 65
26 23 23 25 23 23 37 33 33 41 41 46 50 51 54 55 56 58 61 63 65 66 68 69 71 73 73 73 75 76 75 73 73 73 70 68 68 67 67 67 68 69 67 66 67 64 63 66 65
25 25 23 24 25 23 26 36 35 38 41 43 46 50 53 54 56 58 60 62 65 66 69 70 71 72 73 72 74 75 76 75 74 74 72 69 70 66 67 67 68 67 64 65 67 61 64 65 66
22 24 20 24 27 25 24 29 24 37 39 43 47 49 52 55 57 58 60 62 64 65 67 69 70 72 72 72 73 73 74 75 75 74 71 69 68 67 67 67 66 65 64 64 67 63 64 65 62
18 20 25 23 24 23 22 23 36 42 46 42 45 48 51 55 58 59 61 62 64 65 66 68 69 71 71 72 73 74 74 74 74 72 71 68 68 67 67 67 65 65 65 65 66 66 64 64 65
15 20 24 21 30 25 23 21 31 37 38 41 42 45 49 56 60 60 61 62 62 64 65 65 67 67 70 72 73 73 73 71 70 71 67 67 67 67 67 66 66 65 65 65 66 65 61 63 64

GFSSGP_sfc_dewp_006.txt.gz
Dewpoint
74 72 71 69 58 47 50 50 51 52 55 58 58 57 58 60 54 55 65 68 68 69 70 71 74 74 74 73 74 75 76 75 76 76 74 74 75 75 76 76 75 75 75 75 74 74 74 73 73
70 70 68 61 43 41 45 49 50 53 56 58 59 59 56 58 61 63 64 67 67 66 67 68 75 74 73 73 74 75 74 74 75 75 74 74 75 75 76 75 75 75 75 74 74 74 73 73 73
66 67 60 44 36 40 45 50 53 55 56 55 57 58 57 59 61 61 65 67 66 67 67 71 74 74 74 74 74 76 75 75 76 75 74 74 74 75 76 75 75 74 74 74 73 73 73 73 73
64 61 56 36 33 41 47 52 55 55 56 56 56 57 60 61 62 63 66 66 65 67 68 72 73 74 74 74 75 75 76 75 76 75 75 75 75 75 74 74 75 74 73 73 73 73 73 73 74
61 52 36 34 38 41 47 53 54 53 54 55 54 56 59 63 64 65 66 66 66 66 68 69 75 75 74 75 75 76 75 75 76 76 75 75 74 74 74 74 74 73 72 72 72 73 73 74 74
50 46 33 32 37 43 47 53 54 54 56 56 55 58 60 64 64 66 67 67 66 67 68 70 75 76 76 76 76 76 76 76 76 76 75 75 74 74 74 74 73 72 72 72 73 73 73 73 74
45 40 36 36 39 42 46 51 51 54 56 54 56 57 62 62 65 67 67 67 66 67 69 70 71 75 76 76 76 76 76 75 75 75 75 75 74 74 73 72 72 72 73 73 73 73 72 73 73
47 41 36 38 38 39 45 49 52 51 55 56 56 56 60 62 65 66 67 66 67 68 69 71 72 73 73 73 76 76 75 74 74 75 74 75 74 73 73 73 73 73 72 73 74 72 72 73 73
49 40 36 37 40 43 47 48 53 54 56 57 57 56 59 61 64 65 66 66 67 67 68 69 70 73 74 72 72 74 74 74 74 74 74 73 69 70 70 73 73 73 72 72 73 73 73 72 73
41 40 36 37 40 45 47 47 53 54 54 55 58 58 60 61 63 64 65 66 66 67 68 68 70 71 71 68 73 73 70 69 69 69 71 68 71 72 69 72 72 72 72 72 73 72 72 72 65
35 38 39 39 39 44 47 49 52 49 51 52 56 59 60 61 63 63 64 65 65 67 67 69 70 72 71 71 70 69 69 68 69 72 72 70 70 70 70 70 69 69 71 68 70 69 67 69 67
30 32 33 38 42 44 46 48 50 50 48 52 55 59 61 61 61 61 63 64 65 66 67 68 70 72 71 77 70 69 68 68 67 69 73 72 70 70 72 69 72 72 69 70 70 68 70 70 69
27 27 28 31 40 41 47 48 48 50 52 54 57 60 60 61 61 62 62 63 65 66 67 68 70 73 73 74 69 69 69 68 67 68 71 70 68 74 71 72 72 71 70 70 70 70 69 70 67
26 27 27 29 37 43 47 49 51 51 52 56 58 60 60 60 61 62 62 63 65 66 67 68 70 73 73 73 74 71 70 68 68 67 68 72 69 75 69 70 69 69 70 70 70 70 70 69 67
27 31 39 38 41 45 47 49 50 52 55 58 58 60 60 60 62 63 63 64 65 66 67 68 70 72 74 74 74 72 69 69 68 68 72 73 74 74 73 70 69 69 73 73 71 72 70 67 65
28 31 32 40 45 47 47 40 49 54 55 57 58 59 60 61 61 63 64 65 66 67 69 70 68 70 72 73 72 71 69 69 69 68 70 74 74 74 73 70 69 69 70 70 69 69 66 64 62
29 28 30 42 46 49 47 40 49 53 54 55 57 57 59 61 62 64 64 65 66 69 70 71 71 70 72 74 72 72 73 77 76 71 71 72 74 73 72 70 69 72 69 73 72 67 67 62 60
28 28 30 33 45 47 46 42 50 53 52 53 57 57 58 59 61 63 65 66 67 69 71 72 71 72 74 78 77 74 73 71 70 70 74 74 75 73 73 71 71 71 73 68 68 69 65 65 61
27 30 30 33 42 45 42 42 46 53 53 52 55 57 58 57 60 63 65 66 67 69 71 73 73 74 76 73 69 69 67 69 70 70 74 74 73 73 74 70 72 72 70 69 69 65 65 59 64
26 28 29 33 42 43 40 42 44 48 53 52 53 56 58 58 59 63 65 65 66 68 71 73 74 75 76 71 72 70 70 68 70 70 73 73 73 74 73 73 71 72 66 69 67 67 61 61 63
26 27 29 33 41 42 39 41 42 43 51 53 52 53 57 58 58 61 63 64 65 68 71 73 75 75 76 76 73 73 72 73 70 70 72 74 74 74 74 74 71 70 65 59 66 66 65 58 64
25 25 27 31 36 35 40 33 37 40 48 51 53 53 53 57 59 60 62 64 64 67 70 73 75 76 76 77 74 76 70 67 65 68 67 70 74 73 73 73 70 68 63 67 65 65 65 65 60
25 25 27 28 33 35 37 36 35 40 41 46 51 53 52 52 57 59 61 62 64 66 68 71 75 76 77 76 77 73 73 67 66 67 72 74 73 73 70 72 69 67 64 68 68 67 67 63 60
23 25 28 29 29 30 34 33 30 33 40 38 44 50 53 51 53 58 60 62 63 65 67 69 74 77 76 76 76 76 75 72 67 70 68 66 66 69 72 71 69 67 65 67 66 66 66 65 64
21 26 27 27 25 26 33 32 33 30 32 35 32 42 52 52 52 55 58 60 63 65 66 68 73 75 76 76 75 76 75 75 74 72 68 67 63 64 69 72 70 65 68 67 66 66 65 65 63
21 23 24 28 22 24 31 30 29 33 32 32 33 39 48 52 50 53 57 59 63 64 66 68 71 74 75 75 76 77 77 73 72 72 67 65 63 62 67 71 69 67 67 67 65 61 61 63 62
21 22 24 23 24 20 21 30 30 31 34 34 35 41 45 51 52 52 56 59 61 64 67 70 73 73 73 73 75 76 77 75 72 74 73 67 70 63 68 69 68 65 66 65 65 60 63 62 63
16 23 22 23 29 26 24 27 28 33 31 30 34 40 45 50 52 51 54 57 60 62 65 68 70 72 72 72 73 73 74 75 75 74 74 73 70 70 68 68 65 65 65 64 66 62 63 63 58
15 17 24 23 24 23 24 24 30 33 34 33 29 41 42 48 52 53 53 55 59 61 63 65 68 70 71 72 74 73 73 73 75 74 75 74 73 71 69 69 66 65 64 65 65 65 62 61 62
14 20 24 23 31 25 24 21 24 29 30 30 29 29 32 46 52 55 55 56 58 61 61 62 65 67 69 72 74 72 73 73 73 75 75 74 74 70 69 68 67 67 64 65 65 63 61 61 60

GFSSGP_sfc_dewp_009.txt.gz
Dewpoint
74 72 72 70 62 56 50 49 51 52 54 56 56 57 58 58 59 58 68 69 67 66 67 70 74 74 75 74 76 76 76 76 76 76 76 75 76 76 76 75 75 75 75 74 74 74 73 74 73
69 69 71 63 50 52 48 52 54 52 55 56 56 56 56 58 60 64 65 66 66 64 65 68 75 74 74 75 74 75 74 74 75 75 75 75 75 76 75 75 75 74 74 74 73 73 73 74 74
69 67 65 55 46 43 46 50 51 52 53 54 54 56 58 58 60 63 65 65 65 65 66 71 74 74 74 75 75 76 75 74 74 74 74 74 75 75 74 74 74 74 74 73 73 73 73 73 74
65 61 58 33 35 44 48 48 50 50 52 54 55 55 57 59 60 62 63 63 64 65 67 72 74 74 74 75 76 75 75 76 75 74 74 75 75 74 74 74 74 74 73 73 73 73 73 74 74
62 55 45 31 34 41 48 49 49 50 51 52 54 56 57 60 62 62 63 63 64 66 66 68 74 74 74 75 76 76 75 75 75 74 74 75 74 74 74 74 73 72 72 72 73 73 73 73 73
55 43 36 28 32 38 46 48 48 49 51 52 55 56 60 62 62 62 63 64 65 66 65 69 74 74 74 75 76 75 75 75 76 75 75 74 74 73 74 72 72 72 72 72 73 72 72 72 72
50 48 37 31 34 34 40 45 45 48 51 52 56 56 60 61 62 63 65 65 65 66 67 69 70 74 75 76 75 75 75 75 75 75 75 74 73 73 72 71 71 72 73 73 73 72 72 72 72
45 41 32 41 32 32 39 42 43 46 49 53 55 56 58 62 63 64 65 65 65 66 66 68 70 70 73 73 76 75 75 74 73 74 74 74 74 74 72 71 72 72 72 72 72 72 72 72 72
40 43 36 35 44 36 39 39 44 48 50 51 53 56 59 62 62 63 65 65 65 67 67 66 67 72 73 73 74 75 74 73 73 74 74 73 71 71 71 74 72 72 72 72 72 72 73 72 73
38 50 38 34 45 38 39 39 43 46 48 50 52 56 60 62 61 62 63 64 63 65 66 66 70 69 69 66 73 72 69 68 69 69 71 69 72 72 68 71 73 73 73 73 73 73 74 73 71
33 44 41 36 36 42 39 40 42 43 45 49 52 56 59 61 61 61 62 62 61 63 64 67 71 74 69 72 68 68 67 67 67 70 70 69 69 70 69 73 71 71 73 72 72 72 71 67 66
29 34 33 35 37 39 39 41 41 40 43 47 52 56 58 60 60 60 60 61 62 64 65 66 70 73 72 72 66 66 65 65 65 67 73 72 69 70 69 72 72 73 73 70 72 71 68 68 68
27 30 29 30 34 36 42 42 40 40 42 48 53 55 57 59 60 60 60 61 62 63 64 65 68 72 73 74 67 67 67 64 64 66 70 69 67 74 72 74 69 70 72 72 70 72 69 69 69
27 27 27 29 29 35 40 40 43 42 45 49 54 54 56 57 59 60 60 61 61 63 64 65 68 72 73 72 74 71 69 70 65 65 67 72 70 75 69 75 72 71 70 74 71 72 69 71 70
26 26 30 31 30 34 38 39 40 44 48 49 53 55 55 56 57 60 60 61 62 63 65 66 67 70 72 73 74 70 67 66 66 65 70 71 72 72 74 71 71 67 74 72 73 73 73 70 61
24 26 27 32 32 34 38 38 43 45 47 47 51 54 55 56 56 59 60 61 63 64 66 67 65 67 70 73 73 70 68 71 69 69 72 72 73 74 74 70 70 72 70 73 71 70 68 61 59
26 24 27 32 34 39 39 43 43 47 45 47 49 52 54 56 57 60 60 61 62 65 67 68 68 67 71 76 72 72 74 69 74 72 68 74 76 75 72 70 72 72 72 69 69 68 70 60 59
27 26 27 36 33 39 38 43 44 47 46 44 48 50 53 54 56 59 61 62 63 65 68 70 69 73 74 74 79 70 68 70 70 69 67 72 72 74 73 70 72 72 70 69 72 70 64 63 61
26 27 26 28 31 36 38 38 43 47 47 45 47 48 51 53 56 58 61 62 63 65 68 71 73 77 73 70 75 70 67 69 67 67 76 74 74 75 74 71 73 71 71 72 68 64 65 60 62
24 25 27 29 32 34 36 38 41 47 47 48 47 47 49 51 53 58 61 61 62 65 69 73 75 77 76 72 74 71 70 67 65 68 74 72 75 74 74 74 70 71 66 68 67 66 61 59 61
24 24 26 27 38 38 36 37 38 41 48 49 47 48 49 49 50 56 60 62 63 65 69 73 76 77 77 77 75 74 75 70 70 68 70 71 73 73 74 73 73 71 67 56 67 65 64 59 61
22 24 25 25 34 34 33 31 39 37 40 47 48 48 48 49 51 54 59 62 62 65 68 74 77 78 77 78 74 77 70 67 63 65 65 69 74 72 72 74 70 70 63 69 66 63 65 65 60
22 23 25 26 31 39 30 29 36 36 37 41 46 49 48 48 50 52 56 61 62 64 66 71 77 78 78 78 77 72 73 66 65 63 73 75 76 71 69 70 70 68 62 68 68 66 67 64 60
20 22 25 25 25 26 31 31 33 36 37 38 41 47 50 49 49 54 55 59 61 63 65 70 77 79 79 79 77 77 77 73 66 67 66 67 67 69 70 69 70 68 66 67 66 67 67 66 65
18 21 22 23 22 22 27 30 40 34 35 36 36 39 46 51 49 51 56 57 62 65 67 70 76 78 78 77 77 77 77 78 76 73 68 70 62 64 73 72 71 67 69 67 67 68 67 65 63
17 19 20 27 22 22 27 27 29 35 32 33 34 31 36 47 49 49 54 58 63 64 68 70 74 77 78 77 78 79 78 71 70 73 68 65 63 64 74 71 70 69 67 67 68 63 62 66 63
14 17 20 21 24 22 23 27 29 33 34 32 31 31 32 42 48 50 51 55 61 63 68 70 74 76 77 75 78 78 78 77 72 75 75 68 71 64 67 70 69 68 66 67 67 61 65 64 64
9 14 18 22 28 25 22 26 25 33 33 32 33 31 33 38 47 49 50 53 58 60 65 69 72 75 75 75 76 76 77 78 77 78 76 74 72 72 71 71 70 68 68 68 69 65 66 66 61
9 9 18 20 22 23 22 24 28 35 36 34 33 31 31 37 45 49 50 52 56 58 62 65 69 73 74 74 75 76 75 76 77 76 76 76 74 74 72 73 71 68 68 68 69 67 65 65 67
12 13 13 20 30 23 25 22 26 29 31 32 33 33 32 37 44 49 50 52 54 58 59 61 64 66 70 73 75 76 76 76 75 77 77 77 76 75 73 72 71 68 67 66 68 66 64 63 63

GFSSGP_sfc_dewp_012.txt.gz
Dewpoint
74 72 70 71 62 54 54 52 56 55 53 55 58 56 58 61 58 57 67 68 67 67 69 71 75 75 75 76 77 77 77 77 77 77 77 77 77 77 77 76 76 76 75 75 74 74 74 74 73
69 70 71 66 57 53 50 54 55 50 53 57 57 57 56 59 62 64 67 67 66 66 67 69 76 76 76 76 76 76 76 76 77 77 77 77 77 77 76 75 74 74 74 74 74 74 74 74 74
68 69 66 62 51 53 48 53 53 55 55 56 60 60 57 60 64 65 66 65 64 65 68 71 76 76 76 76 76 76 76 76 76 76 76 77 77 76 75 74 74 74 74 73 74 74 73 73 74
69 71 66 59 49 48 48 47 50 53 56 56 56 54 58 61 62 63 65 65 63 66 68 73 76 75 76 76 76 76 76 76 76 76 76 76 76 74 74 74 73 73 73 73 74 74 74 73 74
69 66 56 42 44 47 45 49 51 50 53 54 55 56 58 60 62 63 63 64 64 66 68 70 76 76 76 76 77 76 76 75 76 76 76 75 74 74 74 73 72 72 73 73 74 73 73 72 72
62 60 51 29 33 41 44 48 49 52 54 54 55 57 59 60 62 62 64 64 65 65 66 69 75 76 76 76 76 76 76 75 75 75 75 74 73 73 73 71 71 72 73 73 73 72 72 72 71
61 55 41 36 32 37 40 44 45 49 53 53 58 57 58 60 62 62 64 64 64 64 67 70 71 74 76 77 76 76 75 76 75 75 74 74 73 73 73 72 71 72 72 73 73 71 71 71 71
59 49 45 37 33 32 38 41 44 44 53 54 58 55 57 60 63 63 63 65 65 66 67 70 72 72 73 73 76 75 75 74 74 74 74 74 74 74 74 74 74 72 71 72 72 71 71 71 73
43 42 42 38 35 33 38 37 44 49 49 54 56 56 58 60 64 63 63 64 66 66 67 68 69 73 75 74 73 75 74 74 74 73 74 75 72 72 73 75 74 73 73 71 72 73 74 74 74
44 48 42 47 41 37 36 38 39 43 47 49 55 56 58 60 63 62 62 62 65 64 66 67 71 71 72 68 75 75 72 70 71 72 74 73 74 73 72 73 73 74 74 66 72 75 73 74 71
45 47 42 41 42 41 37 37 38 42 44 48 55 57 57 59 63 64 62 62 62 65 65 68 70 73 71 74 73 71 70 70 71 75 73 74 72 75 72 73 74 74 72 69 71 74 72 71 69
29 39 40 38 41 41 36 38 38 41 43 48 56 58 58 58 60 59 61 60 62 66 68 69 70 74 75 71 69 70 69 70 69 72 76 77 74 73 72 73 74 72 72 74 74 72 72 71 71
26 34 32 30 33 36 39 39 39 38 44 48 53 58 58 58 57 59 58 60 62 64 67 69 72 76 77 76 73 70 72 68 68 73 74 73 75 74 72 75 75 74 73 73 75 73 73 73 72
26 26 28 26 28 32 40 40 38 38 42 47 51 55 57 58 56 59 59 59 62 63 67 70 72 75 76 76 78 78 74 73 72 68 74 76 76 77 75 76 74 73 73 75 74 74 74 74 71
25 24 26 27 28 31 34 38 38 41 41 47 49 53 55 57 58 58 59 61 63 64 67 69 71 72 74 77 77 77 74 69 69 72 74 76 77 77 77 75 76 75 74 74 74 73 75 69 70
22 22 24 26 30 31 33 39 36 43 42 44 49 51 53 55 56 59 59 60 62 64 68 70 65 71 73 75 77 74 72 73 72 74 71 75 77 77 78 76 73 75 73 75 73 73 72 68 67
22 22 23 25 31 32 33 40 46 43 43 44 47 50 51 55 56 60 59 62 62 67 70 71 71 71 73 76 74 75 74 74 73 74 76 73 74 77 76 74 73 76 76 73 73 72 73 69 67
21 21 24 26 32 31 44 49 49 47 44 44 45 48 51 52 54 58 59 61 63 67 71 71 71 75 75 75 76 75 71 73 73 78 72 75 76 76 76 75 76 76 75 70 74 70 69 68 67
21 24 24 26 34 32 46 50 52 48 48 42 46 47 49 52 55 58 60 60 62 67 70 72 73 76 76 75 72 72 73 73 72 73 76 75 76 77 77 76 75 74 74 68 70 70 68 68 68
22 23 25 27 35 35 38 48 49 50 48 43 44 44 46 48 52 57 60 60 62 66 69 73 74 77 76 75 75 74 73 73 71 73 75 76 76 78 75 76 76 74 74 73 71 69 68 67 69
22 23 25 25 31 32 31 33 44 44 43 44 43 45 45 48 49 57 60 60 63 66 70 73 75 76 76 76 75 76 76 76 74 73 75 75 76 76 74 76 76 75 72 71 71 70 69 66 69
22 22 23 23 30 31 34 32 44 44 44 43 44 44 45 47 50 55 58 62 62 65 70 73 75 76 76 76 75 74 71 72 71 72 73 74 76 76 76 76 76 74 72 73 71 70 69 70 66
22 23 23 23 29 34 37 34 39 43 42 45 44 46 46 48 49 51 57 61 62 65 69 72 76 76 76 76 75 74 74 71 72 72 76 75 76 75 74 76 75 73 70 73 71 70 69 70 68
19 21 22 23 23 26 33 33 34 38 40 40 44 45 47 48 49 52 57 61 63 64 68 70 76 76 76 77 76 76 74 72 71 71 73 73 74 73 75 74 74 73 71 72 71 71 70 69 70
11 17 22 21 22 22 28 34 38 40 41 40 50 50 48 49 50 52 55 60 63 65 67 70 75 76 76 77 76 76 76 74 75 77 73 72 70 71 74 74 73 72 72 73 72 72 71 69 68
12 13 20 25 22 22 27 26 31 41 40 42 50 53 46 49 48 51 55 59 63 64 67 70 73 75 76 76 77 77 76 75 74 74 74 73 71 70 73 72 72 73 71 71 71 70 67 69 68
11 13 14 18 21 20 22 25 25 33 41 40 37 35 39 47 49 50 56 57 63 64 67 69 74 75 76 76 77 77 77 76 74 75 74 74 74 73 71 72 73 71 71 71 72 68 68 69 70
9 13 11 15 24 25 23 29 29 34 41 40 41 37 36 36 50 51 52 58 61 64 66 69 72 75 76 76 76 76 77 76 75 75 75 73 74 73 73 73 72 71 70 69 71 67 69 68 68
11 10 12 13 19 22 25 26 33 40 44 43 42 38 35 38 43 49 52 54 60 63 65 67 70 74 76 76 76 76 76 76 75 76 75 75 74 73 73 73 71 71 70 70 70 69 67 67 67
13 13 13 13 26 21 23 24 26 39 35 38 37 37 38 40 44 47 52 53 57 61 63 66 69 71 74 75 76 76 76 76 76 75 76 75 76 74 73 73 72 71 68 70 68 66 65 67 67

GFSSGP_sfc_dewp_015.txt.gz
Dewpoint
74 73 71 69 61 59 54 54 57 53 54 57 58 60 60 61 58 55 69 69 69 70 71 72 75 76 76 77 77 77 77 78 78 78 78 78 77 76 77 76 76 76 76 74 74 74 74 73 73
72 71 68 63 57 53 52 55 55 54 56 57 59 60 60 60 63 66 67 68 68 70 70 72 76 76 77 77 77 77 76 76 77 77 78 77 77 77 76 75 75 75 75 74 74 73 74 74 73
71 71 67 61 57 53 52 53 51 56 58 57 58 60 61 61 64 65 66 67 67 68 70 73 76 76 77 76 77 77 77 76 77 77 78 77 77 76 75 74 74 74 75 74 73 73 73 73 73
68 69 68 60 53 53 51 53 55 55 57 58 57 58 62 65 64 65 65 65 67 69 72 75 76 76 76 77 77 76 76 76 76 76 77 77 76 75 74 74 73 73 73 74 74 73 73 73 73
69 67 61 58 49 50 51 56 55 54 55 57 59 58 60 62 64 66 64 67 67 69 72 74 77 77 77 77 76 77 76 75 76 77 77 77 76 75 74 73 73 73 73 73 73 72 73 72 72
65 66 55 46 44 46 49 55 55 54 57 58 57 58 59 63 64 64 64 66 67 69 71 72 76 77 78 76 76 77 76 76 76 77 76 76 76 76 75 74 73 72 72 73 73 73 72 72 72
59 55 49 47 37 45 50 54 54 54 56 57 58 58 60 61 62 63 64 65 67 67 69 72 73 74 76 77 76 76 76 76 76 77 76 76 75 74 74 74 73 72 72 72 73 73 74 74 74
58 53 52 49 44 37 46 51 54 54 56 59 58 57 59 62 63 64 64 65 64 68 70 70 72 73 75 74 76 75 76 76 76 76 75 75 74 73 74 75 75 72 71 72 73 74 74 74 75
54 49 52 47 42 36 41 51 54 56 57 58 58 58 61 62 63 63 64 65 67 68 69 70 71 73 73 73 74 75 75 75 76 75 76 75 73 72 73 72 74 73 73 74 73 76 75 75 76
45 45 47 47 44 37 40 51 52 55 56 56 57 59 62 62 62 63 63 64 65 67 69 70 71 72 72 72 73 74 73 72 72 73 72 73 71 72 74 73 73 73 73 72 70 74 76 74 71
44 41 44 44 44 43 38 38 45 52 54 55 56 60 62 62 61 62 63 64 65 65 67 69 71 72 71 70 73 73 72 71 70 71 72 72 73 73 73 71 73 72 68 68 72 72 73 71 68
42 41 41 44 44 40 38 38 44 45 51 56 57 59 62 62 61 62 62 62 64 65 67 68 70 71 71 72 72 72 71 70 70 72 72 73 73 71 71 72 73 72 70 70 73 71 70 70 67
33 37 40 44 43 41 39 39 43 45 55 57 57 58 61 62 62 62 62 62 62 66 67 68 70 71 71 70 69 69 69 69 69 71 72 70 71 71 71 71 72 71 69 72 72 71 70 69 69
31 30 35 34 43 40 40 42 42 48 56 56 57 57 59 62 62 62 62 61 62 66 67 68 70 72 73 72 72 71 70 68 69 71 72 70 72 72 71 72 71 73 72 72 71 70 70 71 69
28 26 26 26 27 40 45 45 47 47 51 56 57 57 58 58 60 57 61 61 64 66 67 69 70 73 72 73 72 72 69 66 65 69 72 72 72 72 72 71 72 71 72 72 69 70 69 67 67
25 22 21 25 27 29 42 44 46 43 50 54 56 57 58 58 57 59 60 61 63 65 68 70 69 71 72 72 73 71 69 69 69 71 73 73 73 72 72 72 70 71 70 72 71 71 68 67 67
21 19 21 22 26 33 42 44 41 41 48 50 53 55 56 58 58 59 59 60 62 65 69 69 68 69 71 72 73 71 70 72 70 72 71 73 73 74 72 73 71 71 72 69 69 67 68 64 62
19 20 20 22 28 32 40 43 46 44 44 48 51 52 54 55 57 59 59 61 63 67 68 67 69 69 69 73 71 71 72 71 72 72 70 73 73 74 73 71 72 72 71 69 68 67 65 63 62
20 20 21 22 31 44 45 44 47 40 46 47 49 50 52 53 55 59 59 60 63 67 67 67 69 70 70 72 71 71 72 71 69 69 71 73 73 73 73 72 71 72 71 67 68 66 62 63 63
18 20 21 23 31 42 45 44 43 40 38 46 47 49 50 52 53 57 58 59 62 66 67 68 68 74 71 72 71 71 71 72 70 71 73 72 73 74 72 72 71 72 70 67 64 62 63 64 64
17 19 20 23 32 41 44 44 45 43 45 47 47 48 50 51 52 56 57 58 60 65 68 68 68 73 73 73 72 72 73 72 72 70 74 73 73 74 72 73 72 69 66 66 64 63 63 60 64
18 20 21 22 23 34 41 38 47 49 53 51 50 44 48 50 52 55 57 58 59 65 68 69 70 73 72 73 71 71 69 69 69 71 71 73 74 73 72 72 72 69 68 67 65 65 62 64 60
14 22 21 22 22 33 32 31 42 48 49 48 48 44 44 47 50 54 58 58 60 64 67 71 71 71 72 73 71 71 70 69 71 71 70 73 74 73 73 73 71 67 65 67 66 64 62 64 64
11 17 21 22 22 22 31 32 35 46 48 49 47 44 44 46 48 54 56 59 59 64 67 71 72 72 73 72 73 72 71 70 68 68 72 72 71 72 73 73 68 66 65 67 65 65 65 64 64
8 10 14 18 20 21 29 31 35 37 42 44 45 48 50 50 47 49 55 59 60 63 67 70 71 72 73 73 71 73 71 71 69 71 71 71 71 71 72 71 68 66 65 68 67 65 64 63 63
8 6 11 17 20 20 25 24 33 37 42 43 45 49 50 50 47 48 55 57 60 62 66 70 71 71 73 74 73 71 74 70 70 71 71 71 70 70 71 70 68 67 65 69 68 66 65 65 64
12 8 8 11 19 20 21 23 26 37 39 41 42 47 48 45 45 49 52 56 60 62 67 68 72 72 73 73 74 73 72 73 72 72 71 71 69 69 70 70 68 67 66 65 67 66 64 65 64
9 13 8 8 10 15 18 23 28 37 38 43 44 43 46 46 47 49 51 56 60 61 65 67 72 72 73 72 74 74 73 72 72 73 71 72 70 71 69 70 68 70 66 67 68 65 66 64 65
13 8 8 10 11 13 19 20 27 34 42 43 42 42 45 45 46 49 52 56 60 62 64 67 70 72 73 74 73 74 74 74 72 73 72 71 71 70 69 70 70 68 67 68 68 64 64 65 63
14 14 10 11 15 19 14 15 26 25 41 41 40 40 40 42 45 49 52 54 60 62 62 66 71 72 73 74 74 74 74 74 73 72 72 73 70 71 70 70 70 68 67 66 67 64 64 63 65

GFSSGP_sfc_dewp_021.txt.gz
Dewpoint
72 72 71 68 60 58 54 54 57 54 55 60 60 58 60 61 58 55 67 69 69 69 71 72 75 76 76 77 77 76 77 76 76 76 75 75 75 75 75 74 74 74 74 73 74 74 73 73 73
71 70 68 64 57 51 52 56 55 55 59 60 60 60 60 60 64 66 67 68 69 70 72 73 75 76 76 76 76 77 76 76 76 76 76 75 75 74 74 74 74 74 73 73 73 73 74 73 73
71 66 62 59 56 51 51 54 57 59 60 60 59 61 60 62 65 65 67 69 70 71 72 73 76 77 75 76 76 76 77 76 75 75 75 75 75 74 74 73 73 73 73 73 73 73 73 73 72
66 68 65 58 53 54 54 56 57 59 60 60 60 60 63 64 65 66 69 70 70 71 73 74 76 75 75 75 75 75 75 76 75 75 75 75 74 74 73 73 73 73 73 73 73 73 73 73 72
68 66 58 56 52 54 54 57 58 57 58 58 60 60 62 65 67 68 69 69 69 71 72 73 76 76 75 75 75 74 74 75 76 75 75 75 74 73 73 72 72 72 73 73 72 72 73 72 72
63 64 56 49 47 51 55 58 57 59 60 60 60 60 62 66 67 67 68 68 70 71 72 73 75 75 75 75 75 74 74 75 75 75 75 75 74 73 73 72 72 72 73 73 73 73 72 72 72
58 57 51 47 51 53 55 58 57 58 57 57 59 59 62 65 66 67 68 69 70 72 72 72 72 73 75 75 75 75 74 75 75 75 75 74 74 73 72 72 72 71 72 72 73 72 72 72 72
60 53 51 49 52 50 56 57 58 58 57 60 61 59 60 64 65 67 68 69 70 72 73 73 73 72 73 73 75 75 74 74 75 75 74 74 74 73 72 74 73 72 71 72 73 73 72 72 72
63 49 48 45 47 52 56 56 58 59 59 58 60 60 62 65 65 66 67 68 70 71 72 73 73 73 74 74 74 75 75 74 75 74 74 75 73 72 73 72 72 72 72 71 70 70 74 73 73
57 49 47 47 48 54 55 56 57 58 58 59 60 61 64 64 65 65 66 66 68 69 71 72 73 74 74 74 73 74 74 73 74 74 73 74 72 71 73 73 72 72 73 68 72 73 73 72 69
56 51 47 46 48 54 55 56 57 57 56 59 59 61 63 62 64 65 65 66 67 69 70 72 72 74 73 73 73 73 73 73 73 73 72 72 72 71 73 71 71 70 67 63 67 70 69 70 69
42 51 51 46 49 54 54 56 55 57 56 59 60 61 61 62 63 64 64 66 66 68 69 71 72 73 72 72 73 72 72 71 71 71 71 70 71 70 71 70 70 70 69 66 70 70 70 69 68
44 42 39 46 44 53 54 56 55 56 58 60 61 61 61 62 62 64 64 65 66 67 69 70 71 72 72 71 72 72 71 71 70 69 70 71 70 70 70 69 70 70 70 69 69 70 70 69 69
31 31 33 37 42 45 54 55 56 56 59 60 60 61 61 62 62 63 64 65 66 67 69 70 70 71 71 70 70 71 71 71 69 69 70 71 71 70 69 69 70 70 70 68 69 70 69 68 66
29 29 28 29 33 45 53 52 54 56 59 60 60 60 61 61 62 63 64 65 66 67 69 69 70 71 70 70 70 70 70 70 69 69 70 71 71 70 70 69 70 70 71 70 70 69 69 65 63
24 24 23 26 29 42 45 44 54 56 58 59 60 60 60 61 61 61 63 64 65 67 67 69 70 70 70 70 70 69 69 69 69 69 71 71 71 70 70 70 70 70 71 70 69 69 67 64 61
22 22 22 23 25 43 41 41 54 56 58 58 59 60 60 61 61 61 62 63 65 66 67 68 69 70 70 70 70 70 70 69 68 69 71 71 71 72 71 71 70 70 70 69 69 67 66 61 60
21 20 20 21 31 42 42 43 54 56 58 59 59 60 60 61 61 61 62 62 63 66 67 68 69 70 70 70 70 69 69 70 69 70 71 71 72 72 71 70 70 69 70 69 67 65 64 61 62
21 20 20 22 29 40 40 42 53 55 56 58 59 60 60 60 61 62 62 62 62 66 67 67 68 69 69 70 70 69 68 69 70 70 70 71 72 72 70 70 71 70 69 68 66 65 61 60 62
20 19 18 20 23 31 35 40 49 54 55 56 57 59 60 60 60 61 61 62 62 65 67 67 67 68 69 69 70 69 68 69 69 70 70 71 72 72 71 70 70 70 69 67 66 61 60 62 61
19 17 18 17 25 35 41 41 43 54 55 56 56 57 58 58 58 60 60 60 62 64 66 67 67 67 68 69 69 70 70 70 70 69 69 70 71 72 72 71 71 70 68 66 63 61 61 58 62
20 19 18 18 19 17 39 36 43 44 54 54 55 56 56 57 57 58 59 60 61 63 66 67 68 68 68 69 69 68 67 67 69 69 70 70 71 71 72 71 70 70 69 66 63 63 61 60 60
22 21 20 21 19 20 25 33 36 43 45 49 52 54 56 56 57 57 58 59 61 63 66 67 68 68 68 68 68 68 66 66 69 70 70 71 71 71 72 71 70 66 67 65 63 63 63 61 59
24 22 16 20 19 18 17 25 25 44 42 45 47 51 53 54 56 57 57 59 61 63 65 67 68 68 68 68 68 67 67 67 68 68 69 70 71 72 71 71 70 67 65 64 64 63 62 64 63
21 15 15 11 14 14 16 25 21 38 44 43 45 47 50 52 54 55 56 57 59 62 65 66 67 68 69 69 69 68 67 67 67 67 68 69 71 71 71 71 70 66 65 65 64 62 61 63 62
18 17 15 9 11 13 19 21 24 31 41 45 45 46 48 50 51 53 54 56 58 60 64 65 66 68 69 70 69 69 68 67 67 67 67 68 71 71 71 71 71 67 64 65 64 63 63 62 62
16 16 16 9 25 14 19 22 25 30 35 42 44 45 47 49 50 51 53 54 57 59 62 65 65 66 70 70 70 69 69 68 68 68 68 69 70 71 71 71 70 67 64 64 64 64 63 63 61
19 15 14 9 10 10 11 17 19 27 28 39 45 45 46 48 49 50 52 53 56 57 60 64 65 65 67 70 70 69 69 69 69 69 69 69 70 70 70 71 69 67 64 65 65 64 63 64 63
17 16 12 11 10 9 9 10 16 25 31 36 43 46 46 47 47 49 50 52 54 57 59 63 65 65 65 68 69 69 69 70 69 69 69 70 71 70 70 70 69 67 65 65 65 65 64 62 63
16 15 14 13 11 11 9 9 20 21 23 32 37 41 47 47 47 47 48 50 53 56 58 63 65 66 66 68 68 69 69 70 70 69 69 70 70 70 70 70 69 67 66 63 65 65 64 63 61

GFSSGP_sfc_dewp_024.txt.gz
Dewpoint
72 72 71 69 60 57 53 54 56 54 55 60 59 58 59 62 58 55 68 69 68 69 71 72 75 76 77 77 77 76 76 76 76 76 75 75 75 75 74 74 74 73 73 74 73 73 73 73 72
71 71 68 64 55 49 51 56 54 56 59 60 60 61 60 60 63 66 67 68 68 70 71 72 74 76 76 76 77 77 75 75 75 75 75 75 75 74 74 74 73 74 74 73 73 73 73 72 72
71 66 63 59 55 51 50 55 57 59 60 60 59 61 61 62 64 65 67 69 69 70 72 73 76 77 76 76 76 77 76 75 75 75 75 75 74 74 73 73 73 73 74 73 73 73 72 72 71
67 67 65 57 52 54 54 56 58 59 59 60 60 60 63 65 64 66 68 69 70 71 72 74 75 75 75 76 76 76 75 75 75 75 75 74 74 73 73 73 73 74 74 73 73 73 73 71 71
69 65 58 56 53 55 55 57 59 57 58 59 60 60 61 65 66 68 69 69 70 72 73 73 76 76 75 75 75 75 75 75 75 75 75 74 74 73 73 72 73 73 73 73 73 73 72 71 71
62 63 53 49 47 51 56 58 59 59 60 60 59 60 63 66 67 68 68 69 71 71 72 73 75 75 75 75 75 75 75 75 75 75 75 74 74 73 73 72 73 73 73 73 72 72 72 71 72
57 57 51 48 50 53 55 58 59 58 58 58 60 60 64 65 67 68 68 70 71 72 72 73 73 74 75 75 74 74 74 75 75 75 74 74 74 72 71 72 73 72 73 73 72 72 72 72 72
62 54 51 51 51 51 57 57 59 57 57 60 61 59 61 64 67 68 68 69 71 72 72 72 72 72 73 73 75 74 74 75 75 74 74 73 73 72 72 73 73 73 72 71 72 72 72 73 72
63 51 48 46 49 49 57 57 59 59 58 59 60 61 62 66 66 67 68 69 71 72 72 72 72 72 73 73 73 74 74 74 74 74 74 74 74 73 73 72 72 72 72 71 70 71 74 73 73
61 52 48 47 48 54 57 57 57 58 57 59 60 62 64 65 66 66 66 66 69 70 72 72 72 72 73 74 74 74 73 73 73 74 74 74 73 73 74 73 72 72 72 67 72 73 73 72 69
60 55 50 47 47 55 56 56 57 57 56 59 59 62 63 64 65 66 66 66 68 69 71 72 73 73 73 74 73 73 73 73 74 74 73 73 73 72 74 72 72 72 70 65 69 70 70 71 69
50 52 55 48 51 55 56 57 56 56 57 59 60 62 63 64 64 65 66 66 67 68 70 72 73 73 73 73 73 73 73 73 72 72 73 72 72 72 73 72 71 72 71 69 71 71 71 71 69
50 49 44 42 44 54 56 56 56 57 59 60 61 62 63 64 64 65 66 66 67 68 69 71 72 73 73 71 72 72 72 72 71 71 71 71 70 71 72 71 71 72 72 70 70 71 71 71 70
30 39 37 32 35 43 53 55 56 57 59 59 61 62 62 62 64 65 65 66 66 67 68 70 71 73 73 71 71 72 71 71 71 70 70 71 72 71 71 71 71 71 72 71 71 72 70 70 67
26 27 29 30 31 41 53 54 55 57 59 59 60 61 62 62 63 64 64 65 66 67 68 69 71 72 72 71 70 71 71 71 70 70 70 71 72 71 71 70 71 71 72 72 71 70 71 67 64
24 25 23 27 31 39 52 48 55 58 59 59 59 60 61 62 62 63 64 65 66 67 68 69 69 70 71 71 70 70 70 70 70 70 71 71 72 72 71 71 72 72 73 72 71 71 69 66 63
23 22 23 25 28 39 50 45 52 57 58 59 59 59 60 61 62 63 64 65 66 67 69 69 70 70 70 70 70 70 70 70 70 71 71 72 72 73 72 71 72 71 72 71 70 69 68 64 63
22 21 21 22 30 42 48 42 50 56 58 58 59 60 60 60 61 62 64 65 66 67 68 69 70 70 71 70 71 70 71 71 70 70 70 72 72 73 72 72 72 71 71 70 69 69 66 64 64
23 22 22 23 29 41 40 42 54 56 57 58 59 59 60 60 61 62 62 64 65 66 68 68 69 70 70 70 70 69 69 70 70 71 72 72 72 73 73 72 72 71 71 70 69 67 65 63 63
22 21 21 21 22 24 30 39 52 55 57 57 58 59 60 60 61 62 62 62 63 65 67 68 69 70 70 70 70 70 70 69 71 71 71 72 72 73 72 71 71 71 71 69 68 66 63 63 62
21 21 20 21 24 29 39 38 42 54 56 58 59 59 60 60 60 61 62 62 62 64 67 68 69 69 70 70 70 70 71 71 70 70 71 71 73 73 73 71 72 71 71 69 68 65 64 62 64
21 21 19 18 17 16 36 29 41 49 54 55 57 59 59 60 61 61 61 62 62 63 66 68 68 69 70 70 69 69 68 68 69 69 70 70 72 72 73 72 72 71 71 68 67 65 64 64 64
23 21 20 19 17 19 23 29 31 47 53 54 55 56 58 60 60 60 61 62 62 63 64 67 68 69 69 70 69 69 69 69 69 70 70 70 71 72 72 73 72 71 70 70 67 66 65 64 63
24 21 18 21 19 17 19 22 23 42 47 53 55 55 57 57 58 60 60 62 61 62 64 66 68 68 69 69 69 69 68 68 68 69 69 70 71 71 72 72 72 71 69 69 67 66 66 66 64
22 19 18 15 16 16 18 22 20 33 43 46 52 54 55 57 57 58 59 59 61 62 64 66 68 68 68 68 69 69 69 68 68 68 69 70 71 72 72 72 71 70 68 68 67 66 65 66 65
20 19 18 13 13 15 20 17 21 24 42 44 44 47 52 54 57 57 58 59 60 62 64 66 67 68 68 68 68 69 69 68 68 68 69 69 70 71 73 72 71 71 69 68 67 65 64 65 65
20 18 17 14 23 13 17 20 24 30 29 42 43 44 46 49 53 56 57 58 59 61 63 66 67 68 68 68 68 69 69 69 68 69 69 69 71 71 72 72 72 71 68 68 67 65 65 65 64
17 18 17 14 15 14 15 17 21 28 30 35 43 45 46 47 50 52 55 56 58 59 62 65 66 67 68 68 69 69 69 69 69 69 69 69 70 71 72 72 72 71 68 67 67 66 65 65 64
18 15 15 16 15 14 12 15 20 24 31 28 36 44 45 46 48 50 52 54 56 57 60 63 65 66 67 69 69 69 69 69 69 69 69 69 70 71 71 72 72 70 69 67 66 66 66 65 65
22 19 15 16 15 12 14 14 20 20 22 32 34 42 47 48 49 50 51 52 54 56 58 61 64 65 66 69 70 69 70 70 69 69 70 70 70 71 71 71 71 71 69 68 67 66 66 65 64

GFSSGP_sfc_dewp_030.txt.gz
Dewpoint
71 70 71 69 61 58 54 52 52 52 54 56 57 56 57 60 58 59 67 68 68 71 72 72 75 75 75 76 77 77 76 76 75 75 75 75 75 74 74 74 74 74 74 73 73 73 72 72 72
69 70 68 63 59 52 51 53 52 54 57 58 58 58 57 59 63 66 66 68 68 68 69 70 75 76 76 76 77 77 75 75 75 75 75 75 75 74 74 74 74 73 73 73 73 73 72 72 71
69 67 62 59 55 50 49 52 55 57 57 57 58 60 60 61 64 66 66 67 67 68 69 72 75 76 76 76 77 77 76 75 75 75 75 74 74 74 74 73 74 74 73 73 73 72 72 71 70
66 64 61 58 47 50 50 53 55 58 58 58 58 59 62 64 65 66 66 66 65 67 68 74 76 76 76 76 76 75 75 75 75 75 74 74 74 74 74 74 74 74 73 73 73 73 72 71 70
64 63 55 50 46 51 52 54 57 55 57 58 58 59 62 65 65 65 65 65 65 66 67 71 76 77 76 76 75 75 75 75 75 75 74 74 73 73 73 74 73 73 73 73 72 72 72 72 72
64 58 49 40 45 51 54 55 55 55 58 58 58 59 63 65 65 64 64 64 64 65 65 69 76 76 77 76 75 75 75 75 75 75 74 74 73 73 73 73 73 73 72 72 72 72 72 73 73
59 52 47 44 47 48 53 55 54 55 56 56 59 59 63 64 65 65 64 64 64 65 64 67 68 73 76 76 75 75 75 75 75 75 74 74 73 73 73 73 72 73 72 72 72 72 72 72 73
60 54 48 48 46 48 54 55 55 55 56 58 59 58 61 64 65 64 64 64 64 64 63 66 68 69 71 72 75 75 75 75 75 74 74 73 73 73 73 72 73 72 72 72 72 72 71 71 72
62 52 45 44 45 48 54 54 56 56 56 56 58 58 62 65 64 63 63 64 65 64 63 64 65 68 71 70 72 74 74 74 74 74 73 73 71 71 71 73 72 72 71 71 72 72 72 71 73
57 49 43 44 43 45 52 53 55 54 54 55 58 60 63 64 64 63 63 64 65 65 63 63 65 66 68 66 71 71 68 66 68 68 71 70 72 72 70 72 72 73 67 71 72 71 72 72 59
55 48 45 43 44 46 52 53 55 52 52 55 58 61 63 63 64 63 63 64 65 66 63 63 66 69 68 68 68 67 67 66 68 72 72 72 72 72 70 69 68 69 68 67 69 69 68 64 60
51 49 47 45 43 44 48 53 53 54 50 54 59 61 62 63 62 62 62 63 64 65 64 64 66 69 69 67 66 66 65 66 65 66 73 73 70 71 73 69 69 70 68 70 69 67 68 67 66
52 46 44 45 44 40 41 50 51 53 54 55 59 60 61 62 62 62 63 63 64 64 65 66 68 70 70 71 66 65 66 66 64 67 70 70 70 72 72 72 70 71 70 68 70 68 68 71 70
41 45 43 37 33 34 34 45 50 51 55 56 58 59 60 60 61 62 62 63 63 64 65 65 67 70 71 71 72 69 69 67 66 65 66 72 70 73 71 71 70 70 71 70 72 70 70 68 65
39 27 26 26 28 30 34 39 45 49 57 57 57 58 59 60 61 62 62 63 64 64 65 66 68 69 71 72 72 71 68 67 66 65 69 71 72 74 75 74 70 70 73 72 72 71 69 65 63
27 25 25 30 27 28 30 34 40 49 55 57 57 57 58 59 59 61 62 62 63 64 66 67 66 68 70 71 72 69 68 67 65 64 66 71 72 74 75 74 70 71 74 71 70 68 67 63 63
24 25 29 30 28 30 31 34 37 47 53 55 57 57 57 59 60 61 61 62 63 65 67 69 69 69 70 73 71 71 71 68 64 64 66 70 72 73 74 71 71 74 71 70 70 68 69 64 63
24 23 28 30 30 29 32 34 36 48 50 53 57 57 58 58 59 61 62 63 65 66 68 70 69 71 73 72 73 70 67 66 65 65 65 70 72 73 74 71 73 71 70 70 70 70 69 66 64
24 24 26 28 29 27 30 32 34 43 49 51 56 57 57 58 59 61 62 63 64 66 68 70 71 73 72 70 69 68 65 65 64 65 70 72 73 74 76 72 73 73 71 73 72 70 70 64 66
22 22 23 27 26 27 31 32 34 39 50 51 54 56 57 58 59 60 61 62 63 66 68 71 72 74 73 71 71 68 66 64 65 66 70 73 73 75 75 76 74 74 70 74 73 72 67 65 61
21 22 23 23 25 25 25 28 31 34 47 51 52 55 56 58 58 60 61 61 62 65 68 71 73 74 74 74 71 70 68 67 66 67 70 73 74 75 76 76 72 75 73 70 73 72 70 63 61
19 19 19 19 21 22 26 25 33 32 40 46 49 53 54 58 59 60 60 61 62 64 67 70 73 74 74 75 73 75 67 64 64 67 69 70 74 74 74 75 75 76 72 73 76 72 70 70 60
19 14 17 18 19 22 23 23 29 32 32 37 43 49 53 55 58 59 60 61 62 64 66 69 73 76 76 77 76 72 72 66 65 65 74 77 75 74 73 75 76 76 73 74 75 73 73 68 61
20 17 19 20 15 16 22 23 25 28 35 35 40 46 52 55 57 59 61 61 62 64 65 68 74 76 76 75 75 76 76 73 67 69 67 68 69 71 74 74 76 76 75 75 74 75 74 72 67
22 20 17 15 13 12 20 21 27 28 30 34 36 40 51 55 56 58 61 62 62 63 66 67 73 75 75 74 75 75 75 76 75 73 70 71 66 66 73 75 75 74 76 75 75 76 73 73 69
22 19 13 17 8 9 19 18 21 27 29 31 34 34 45 52 55 57 60 62 64 64 67 68 71 74 74 74 76 77 77 72 72 74 69 69 67 68 72 73 74 75 75 75 75 73 72 72 71
24 21 15 10 14 11 9 16 20 26 27 29 30 33 35 48 55 57 59 61 63 66 68 70 72 75 74 72 76 77 77 76 72 75 75 70 74 68 71 72 74 74 75 75 76 72 73 71 71
21 21 15 14 19 17 9 16 15 25 28 30 31 33 37 46 54 56 58 59 62 64 66 69 72 73 74 73 74 74 75 77 76 76 76 75 74 74 72 73 73 74 75 75 76 73 73 73 69
19 20 19 15 15 12 11 12 21 26 30 30 30 34 36 43 51 53 55 58 60 62 65 66 69 71 72 73 74 74 73 74 75 75 76 77 75 76 75 75 74 73 74 75 76 75 73 73 72
20 22 21 16 24 18 17 12 17 20 22 29 29 33 36 42 44 47 50 55 57 60 62 64 66 67 70 72 74 75 75 75 74 75 76 77 77 76 77 76 75 74 73 75 75 74 72 73 72

GFSSGP_sfc_dewp_033.txt.gz
Dewpoint
71 70 71 69 62 59 55 53 51 52 53 55 56 57 58 60 60 58 66 68 64 68 71 70 75 75 75 76 77 76 75 76 75 75 75 75 75 74 74 74 74 74 74 73 73 72 72 72 72
68 69 70 66 59 54 52 52 53 53 55 56 56 56 56 60 62 66 66 62 67 70 67 67 76 76 76 76 76 76 75 75 75 75 75 75 75 74 74 74 73 74 73 73 73 72 72 71 71
68 67 64 60 58 54 52 52 53 54 55 56 57 59 59 61 63 66 66 67 68 69 69 71 75 76 76 76 76 76 75 75 75 75 75 74 74 73 73 73 74 73 74 73 72 72 71 71 70
67 65 61 59 55 50 51 54 54 55 55 56 58 58 62 64 64 66 66 66 69 68 67 74 75 75 76 75 75 75 75 75 75 74 74 74 74 74 74 73 74 73 73 73 73 72 72 71 71
64 60 59 58 47 49 51 53 53 54 54 55 57 59 62 64 65 66 65 66 65 66 68 71 76 76 76 75 75 75 75 75 75 74 74 74 74 73 74 74 73 73 73 73 72 72 72 73 72
64 61 55 48 44 48 50 52 53 53 54 56 59 60 63 65 64 65 65 64 66 66 65 71 76 76 76 75 75 75 75 75 75 74 74 74 73 73 74 74 73 73 72 72 72 72 73 73 73
60 57 53 42 41 45 49 51 53 51 53 55 58 60 63 64 64 64 64 65 65 62 64 68 70 74 75 75 75 75 75 75 75 74 74 73 73 73 73 73 73 73 72 72 72 71 71 73 73
58 55 48 47 50 43 46 48 50 51 54 57 59 59 61 64 64 64 64 64 65 62 62 65 67 69 71 71 75 75 75 75 75 74 74 74 73 73 73 73 73 72 71 71 71 71 71 72 73
58 53 48 39 43 44 46 45 50 53 55 55 56 60 63 64 63 63 63 64 64 61 61 61 63 68 70 70 72 74 74 74 74 74 74 74 75 72 72 74 72 71 71 71 71 73 72 73 73
53 57 52 41 40 45 46 44 47 50 52 54 56 61 62 63 62 62 63 63 63 60 59 60 63 65 66 64 71 71 68 68 69 70 71 74 73 71 70 72 73 73 69 72 72 71 73 74 66
50 53 56 41 41 45 45 46 46 47 49 53 57 61 62 62 62 61 63 63 62 60 59 61 64 67 65 67 66 66 64 65 67 71 72 73 70 71 73 68 67 70 70 70 72 71 69 62 61
46 48 51 41 41 42 44 46 46 45 45 53 58 61 61 61 60 61 62 63 63 62 60 60 63 67 66 65 64 63 62 63 63 67 73 74 71 70 73 72 70 69 70 70 72 70 69 71 69
46 45 44 44 42 39 43 46 49 48 47 52 58 60 61 61 61 61 61 62 63 61 61 61 65 70 70 70 65 64 64 62 62 66 71 70 73 72 72 71 72 71 72 72 71 69 70 68 68
44 44 43 42 41 38 36 43 46 50 51 53 57 59 60 60 60 61 61 61 62 62 62 62 65 69 70 70 72 67 65 64 63 63 66 72 70 71 73 71 72 73 73 73 69 69 71 69 67
43 37 42 42 37 33 35 38 44 49 53 54 55 58 59 60 60 60 61 61 61 62 63 64 66 68 70 71 71 69 65 64 63 63 68 70 72 73 75 71 71 74 75 71 72 70 72 66 63
39 38 33 34 33 32 33 34 40 45 52 54 55 55 57 59 59 61 61 61 62 63 65 66 63 66 69 70 71 68 66 64 64 63 65 71 72 74 74 70 69 73 72 68 73 66 64 66 59
28 29 31 30 32 31 31 32 37 44 48 52 55 55 55 57 59 61 60 61 62 64 66 66 66 66 69 73 71 70 72 66 64 62 63 72 72 73 74 73 72 74 71 70 66 70 67 60 59
26 25 28 31 32 30 30 31 36 40 46 49 54 55 55 55 57 59 60 61 61 64 66 68 67 72 74 71 73 69 66 66 65 63 63 73 71 72 74 73 72 71 71 72 71 70 64 64 60
28 25 26 30 31 31 32 33 35 38 43 46 52 55 55 55 57 58 60 60 61 63 66 70 71 75 72 70 68 67 65 66 64 63 69 71 71 73 75 72 74 71 74 71 70 69 69 65 62
29 25 25 28 29 31 32 32 32 35 41 45 50 53 55 55 56 57 59 59 60 64 68 72 73 76 75 71 72 69 69 63 63 63 71 70 72 74 74 76 75 73 74 73 73 71 69 61 59
22 23 24 23 28 29 30 30 32 33 37 45 47 52 53 55 56 58 59 59 60 64 69 72 75 76 76 75 73 72 70 68 63 64 65 70 73 73 77 75 73 74 73 76 73 71 70 61 59
14 17 21 21 23 25 28 25 32 32 33 43 45 50 52 54 57 59 58 59 59 63 66 72 75 76 76 77 73 74 67 64 62 65 64 68 74 73 73 74 73 75 72 75 73 71 71 70 61
16 15 17 20 22 23 24 25 30 31 30 35 42 47 50 53 55 57 59 59 59 62 64 69 76 77 77 77 76 71 72 64 64 63 72 74 78 74 72 76 75 76 73 77 75 75 74 68 64
17 15 16 16 15 18 22 21 25 26 32 33 38 41 47 49 54 57 59 59 59 60 63 68 75 77 78 78 77 77 74 72 65 66 65 66 67 71 76 74 77 78 76 74 74 76 75 73 69
19 16 14 12 11 13 19 20 26 28 28 31 34 38 41 47 51 56 58 59 61 62 64 67 74 76 77 77 77 77 77 77 77 74 66 69 65 65 73 77 78 74 78 75 77 78 75 74 71
20 16 12 18 10 10 17 18 21 26 27 29 34 34 39 44 50 54 58 60 62 63 66 68 72 76 77 77 77 78 78 72 71 73 67 66 65 65 74 77 76 76 76 76 77 74 73 75 72
21 18 13 12 12 8 8 15 17 22 25 28 31 34 37 43 48 52 57 59 63 64 67 69 72 75 76 75 77 78 78 77 73 75 75 71 73 66 73 75 76 76 76 77 78 72 75 75 73
21 19 14 14 20 17 13 17 15 25 26 27 31 33 35 38 46 51 55 58 62 62 66 69 71 74 75 74 76 76 77 78 77 77 77 75 74 76 75 74 75 76 76 77 78 75 76 76 71
18 19 19 14 13 14 16 14 19 25 28 29 30 32 33 35 43 49 54 56 60 62 63 66 69 73 74 75 75 76 76 77 78 76 77 77 77 78 76 77 76 76 76 77 78 77 75 76 75
20 20 23 17 25 15 16 16 18 20 21 27 29 32 32 37 41 49 53 54 57 60 62 64 66 68 73 74 75 75 76 76 76 77 76 78 78 77 78 77 77 76 76 77 77 76 72 75 74

GFSSGP_sfc_dewp_036.txt.gz
Dewpoint
71 69 70 69 62 60 56 56 59 57 55 56 60 61 60 60 58 57 67 67 65 69 70 72 75 75 76 77 77 77 77 76 76 76 76 76 75 76 76 75 75 75 74 74 73 73 73 73 73
68 69 70 67 59 55 54 54 54 54 55 57 59 58 58 60 60 64 65 64 64 67 67 69 76 76 76 77 77 77 75 76 76 75 76 76 75 75 75 74 74 74 74 73 73 73 72 72 72
67 68 66 63 59 54 51 53 53 54 56 57 58 59 59 62 63 62 62 62 64 65 65 73 76 76 76 76 77 76 76 76 75 75 75 75 75 75 74 74 74 74 74 73 73 72 72 71 71
66 66 63 59 56 53 54 59 52 55 57 57 58 60 62 64 63 59 58 62 63 65 67 74 76 76 76 77 76 76 76 75 75 75 74 75 75 74 74 74 74 74 73 73 73 73 73 72 71
67 65 60 57 55 53 53 54 53 52 54 57 59 59 62 64 62 59 61 61 62 67 71 71 77 77 77 76 76 76 75 75 75 74 74 74 74 74 74 74 74 73 73 73 73 73 73 73 72
66 64 56 55 53 50 50 51 54 54 56 59 60 60 62 64 63 64 63 65 67 67 68 71 76 77 77 76 76 76 75 74 74 74 74 74 74 74 75 74 74 73 73 73 73 73 73 73 73
57 59 55 52 46 48 50 52 54 51 54 58 60 60 63 64 64 64 66 65 67 64 68 71 73 74 76 76 75 75 75 75 75 74 74 74 73 74 74 74 74 73 73 73 72 72 72 73 73
60 64 59 57 42 42 47 49 51 53 54 59 61 60 61 64 64 65 64 66 63 62 66 70 72 71 72 72 75 74 74 74 74 74 73 73 72 72 73 76 75 73 73 71 71 71 71 73 74
57 57 54 51 44 42 43 47 52 54 55 56 60 61 63 64 64 64 64 65 63 63 64 66 66 71 73 73 73 74 74 74 74 74 73 74 76 74 72 75 75 72 71 71 71 71 72 75 75
53 57 53 53 52 50 44 45 48 50 51 57 60 62 63 63 63 63 64 63 62 60 61 63 66 68 70 66 74 74 72 71 72 72 71 72 75 75 71 73 75 73 70 70 73 73 74 74 69
51 51 50 48 49 47 43 43 47 47 50 57 59 61 61 62 62 63 63 62 62 60 60 62 67 70 68 70 71 70 70 70 71 72 71 71 74 72 75 71 71 73 73 71 67 70 71 71 69
47 54 52 49 48 45 48 51 42 46 50 58 60 61 61 61 62 62 62 62 62 59 60 62 67 70 69 69 67 68 67 68 69 73 73 73 73 73 73 74 74 75 71 72 72 73 73 69 68
44 54 51 50 46 50 52 53 49 46 52 57 60 60 60 61 62 62 62 62 62 60 60 63 68 72 74 73 68 68 70 67 68 73 76 73 74 74 73 74 71 74 73 73 73 73 71 73 69
44 47 48 48 43 38 40 50 50 44 49 55 59 59 60 59 61 63 63 63 63 62 61 66 68 71 74 75 78 73 74 69 71 68 73 76 74 75 75 76 72 73 73 73 73 75 74 68 70
41 41 42 43 40 37 35 37 44 50 50 53 57 59 59 59 60 61 63 64 64 63 63 66 68 69 74 75 76 76 73 66 69 71 75 74 76 77 72 75 75 75 77 76 75 70 73 69 65
38 40 38 40 40 37 33 32 41 51 51 53 55 56 59 59 57 60 61 62 64 63 66 67 62 68 71 73 74 74 70 71 71 71 72 74 75 78 78 75 74 72 73 76 70 74 71 71 69
37 35 38 38 39 35 32 32 38 48 50 53 54 54 56 59 59 60 59 61 61 64 68 68 68 69 71 74 73 72 73 73 73 73 72 75 76 76 78 75 73 76 76 74 73 72 69 69 67
34 30 34 35 33 33 30 30 37 41 48 52 54 54 55 56 58 60 59 60 62 66 69 69 68 72 73 73 74 72 71 73 72 73 72 75 75 76 77 76 76 77 75 73 73 74 71 70 68
33 27 27 31 32 30 31 30 38 41 48 49 53 54 55 55 58 60 60 60 62 66 69 70 71 74 72 71 71 71 69 71 72 73 74 76 76 77 78 77 73 76 75 75 75 73 70 69 68
35 30 24 25 28 32 32 30 33 39 45 45 50 53 54 54 55 59 60 60 61 65 69 71 71 74 73 72 73 72 72 70 70 72 75 75 75 78 77 77 76 77 73 76 75 74 72 69 67
34 32 28 24 25 30 32 32 34 34 39 43 48 52 54 55 55 58 60 60 61 65 68 70 72 74 75 74 74 75 75 75 71 70 71 73 75 76 77 77 77 77 76 75 75 74 75 69 67
24 30 27 26 24 25 33 28 37 33 33 40 42 49 51 55 57 58 59 60 61 64 68 71 73 74 75 75 73 74 70 68 69 69 71 71 74 75 76 76 77 77 76 76 77 76 75 73 66
17 19 23 22 22 23 23 25 30 33 33 35 41 46 50 53 55 58 58 60 60 63 68 71 73 74 75 74 76 73 72 69 69 71 73 74 75 76 75 76 78 78 77 77 76 77 76 75 72
15 14 14 15 17 21 23 23 28 30 35 35 38 43 50 52 55 59 59 61 61 63 67 70 74 75 76 75 74 76 73 72 69 69 70 72 74 74 77 76 77 78 77 77 77 78 77 76 75
16 14 14 14 14 15 21 21 27 27 32 34 35 42 49 51 54 58 60 60 61 63 66 69 74 74 75 75 74 74 76 73 75 75 68 70 69 72 75 77 77 76 77 77 77 77 78 76 75
16 14 13 18 13 11 18 18 23 27 27 28 33 39 43 48 49 56 60 61 62 63 66 68 72 74 75 75 75 75 76 73 71 75 69 69 69 70 75 75 76 76 76 76 78 77 76 76 75
18 16 13 12 12 9 10 15 17 24 26 27 27 34 40 44 47 55 59 61 62 62 65 68 71 74 75 74 76 76 74 76 73 74 75 73 73 71 76 75 76 75 76 77 78 75 76 77 75
17 18 14 15 20 19 14 21 19 26 28 29 31 30 37 41 46 53 58 61 62 62 64 67 70 73 74 75 75 75 75 75 75 74 75 73 75 74 78 75 75 76 76 77 77 76 77 76 75
17 19 18 15 15 15 17 13 26 32 31 31 31 33 36 41 46 50 57 59 62 63 64 65 68 72 74 74 75 75 75 75 75 75 75 77 75 78 75 77 76 76 76 76 77 76 75 76 75
18 20 22 19 26 18 20 16 22 28 30 30 30 34 37 42 48 50 54 58 61 63 63 65 66 69 72 75 75 75 75 76 75 75 75 76 77 75 78 77 76 76 75 76 76 75 73 75 75

GFSSGP_sfc_dewp_039.txt.gz
Dewpoint
71 70 70 69 62 59 55 56 59 58 60 59 61 60 61 59 57 55 67 67 68 70 72 74 76 77 76 77 77 76 76 76 76 77 76 75 75 75 75 75 75 75 74 73 74 74 73 73 73
70 68 71 66 59 54 55 58 58 58 59 61 61 60 59 58 63 65 64 67 69 69 71 74 76 77 77 77 77 76 76 75 76 77 76 75 76 75 75 74 74 74 74 74 73 73 73 73 73
68 69 66 62 59 54 55 56 56 58 60 59 59 60 61 61 63 63 64 67 68 68 70 73 77 77 77 77 77 77 76 75 76 76 76 75 76 75 74 74 74 74 74 74 73 73 72 72 72
66 68 66 59 55 57 57 59 55 55 59 61 60 60 62 63 62 63 63 65 65 67 72 76 76 76 77 76 76 76 75 75 76 76 76 75 76 74 74 74 74 74 74 74 73 73 72 72 71
68 66 60 57 56 57 57 59 57 56 57 59 60 60 61 60 62 61 63 64 64 71 73 74 77 77 77 76 76 76 75 75 75 76 75 75 75 74 74 74 74 74 74 74 74 73 73 73 72
63 63 56 54 55 57 59 59 56 58 59 60 61 61 61 57 57 59 62 61 66 71 72 73 76 77 77 75 75 76 75 75 76 76 74 74 75 76 75 74 74 74 73 73 73 74 73 73 72
58 60 55 56 56 55 53 58 57 59 59 59 61 61 58 56 59 61 60 64 68 69 71 74 74 74 75 76 75 75 75 75 75 75 75 74 74 74 75 75 75 73 73 73 73 73 73 73 72
62 59 55 56 55 53 52 54 59 58 59 62 62 60 59 61 62 62 65 67 67 70 71 73 73 73 73 74 75 75 75 75 75 74 74 73 72 73 73 75 76 73 73 72 73 74 75 74 72
62 58 55 54 51 50 53 53 58 59 59 60 61 62 62 63 64 65 64 65 66 68 70 71 71 71 72 73 73 75 75 75 75 75 74 70 72 72 72 74 75 72 72 72 74 75 74 75 74
61 57 54 58 53 51 51 52 54 58 59 60 62 63 63 63 64 64 63 64 64 66 67 69 69 70 70 70 72 73 73 73 73 71 70 70 69 71 73 73 75 73 72 73 73 72 72 71 72
56 54 52 54 52 51 50 50 51 58 59 60 61 62 63 63 62 63 63 64 63 64 65 65 68 69 69 70 72 72 72 72 73 70 68 68 71 72 72 71 72 72 72 70 67 69 70 71 70
50 53 52 50 50 51 51 53 48 58 59 62 62 63 62 62 62 63 63 62 61 61 62 64 67 68 68 70 70 70 70 70 71 71 68 70 69 71 71 72 71 72 71 70 71 70 70 68 68
47 52 51 51 49 50 54 51 54 58 60 62 62 62 62 62 63 63 63 62 60 59 60 63 66 68 69 68 67 68 67 68 71 72 69 72 70 72 72 73 71 71 72 71 72 71 70 68 67
47 48 51 53 49 49 48 48 50 59 60 61 61 61 61 61 62 62 62 61 60 59 59 64 66 69 67 67 68 66 69 66 71 72 71 72 72 72 72 73 72 72 71 70 70 72 70 68 67
47 45 50 49 48 47 47 48 46 59 59 59 60 60 61 61 62 62 61 62 62 62 60 64 65 69 68 69 69 69 69 65 66 70 72 72 73 72 70 71 72 71 72 70 72 66 70 68 67
43 42 41 46 46 43 46 46 53 56 58 58 59 60 61 62 62 62 62 62 62 63 64 65 64 69 70 70 69 70 69 69 68 70 71 70 71 73 73 72 72 71 72 73 71 70 66 68 66
40 38 37 40 41 41 34 36 53 56 56 57 58 59 59 61 61 62 62 62 62 62 65 65 65 67 70 70 71 69 69 70 70 70 70 70 71 73 73 71 72 71 72 71 69 70 67 66 66
37 37 36 36 39 39 36 31 52 54 57 59 59 58 58 59 60 62 63 63 62 63 65 64 66 66 68 71 72 69 69 70 70 69 70 72 72 73 73 72 71 73 70 70 68 67 66 65 61
38 38 34 34 37 37 37 31 50 56 58 59 58 59 58 58 58 60 62 62 63 64 65 64 67 68 67 71 69 70 68 69 68 68 72 73 73 73 73 73 72 72 70 70 70 68 67 65 60
33 36 35 30 31 33 34 32 34 53 55 55 57 59 58 57 57 58 58 59 62 65 66 66 69 70 68 70 68 69 70 69 69 68 72 73 73 73 73 73 72 73 71 71 70 69 68 67 62
30 33 34 32 28 27 31 30 33 50 52 57 61 65 62 56 56 57 57 59 62 65 66 67 68 71 69 70 70 71 71 69 69 68 68 73 72 74 73 73 73 73 71 71 71 70 69 61 63
29 32 34 34 31 25 32 30 35 40 48 55 58 59 59 55 56 58 57 59 60 65 67 67 69 72 70 71 70 69 67 67 69 66 67 70 72 73 74 73 72 73 73 71 71 72 70 64 58
30 28 31 33 32 27 27 30 33 35 41 48 53 54 55 55 55 57 58 59 59 64 67 68 68 71 71 71 70 70 69 69 67 67 67 70 70 72 75 73 74 73 73 72 72 72 69 69 66
31 28 23 28 27 22 22 28 30 34 33 39 47 51 53 54 55 56 58 58 59 64 66 68 68 69 71 71 72 70 70 68 68 66 66 71 70 73 74 74 74 73 73 73 73 73 71 70 70
28 20 15 14 19 18 18 22 23 32 34 37 39 48 52 54 54 55 58 58 59 63 65 68 69 69 71 71 70 72 70 70 68 67 66 69 72 71 73 74 74 74 74 74 73 73 73 72 70
23 18 14 13 13 12 16 14 20 26 30 34 36 45 51 53 54 55 57 58 59 60 65 68 69 70 71 72 70 69 73 71 68 72 68 68 69 71 71 74 73 73 73 74 75 74 74 73 71
19 16 15 13 19 15 15 14 16 18 23 23 27 36 50 52 54 56 57 58 58 60 65 67 70 70 71 72 72 71 70 74 69 67 72 66 69 70 72 73 74 73 73 73 74 74 73 73 72
19 18 14 13 13 12 13 14 14 15 17 23 24 27 46 49 52 57 57 58 59 59 64 67 70 71 71 71 72 72 70 70 73 69 69 72 67 69 72 72 73 73 73 74 74 74 74 73 73
17 17 14 15 16 16 19 19 18 18 19 22 25 30 41 48 52 57 58 58 59 59 63 65 68 71 72 72 71 72 72 70 72 72 70 73 70 72 72 73 73 73 73 74 74 73 73 74 73
21 15 18 14 16 16 15 16 29 29 21 21 25 29 38 45 48 57 59 59 59 59 61 64 66 70 71 72 72 72 73 73 71 72 73 69 74 71 74 74 73 74 73 73 75 73 73 72 73

GFSSGP_sfc_dewp_042.txt.gz
Dewpoint
71 70 70 69 61 59 55 55 59 59 59 59 57 58 58 60 59 53 68 67 69 71 74 74 76 77 76 76 76 76 75 75 76 75 76 76 75 75 75 75 74 74 74 74 74 74 74 72 73
69 69 71 66 59 54 54 55 59 61 61 61 61 60 60 60 63 65 65 68 70 72 73 74 77 77 76 76 76 76 75 76 75 75 76 76 75 75 74 74 74 74 74 74 73 73 73 73 71
69 69 66 61 58 54 55 56 59 60 62 60 59 61 61 61 64 63 67 69 70 71 74 74 77 77 76 76 76 75 75 75 75 75 75 76 75 75 75 74 74 74 74 73 73 73 72 72 72
67 69 67 59 55 58 59 59 59 59 60 60 61 60 60 64 62 64 68 69 69 72 73 76 77 76 76 75 76 75 75 75 75 75 75 75 75 74 74 74 74 74 74 73 73 72 72 72 72
68 66 59 56 56 58 60 61 60 59 60 60 60 59 60 62 63 66 66 67 69 72 74 75 77 77 76 75 75 75 75 74 75 75 75 75 75 74 74 74 74 74 74 74 73 73 73 72 72
62 62 55 53 54 58 59 61 60 60 60 61 60 60 57 61 62 64 65 66 71 72 74 74 76 77 76 75 75 75 74 75 75 75 75 75 75 75 74 74 74 74 73 73 73 73 73 72 72
59 59 54 55 55 57 59 63 61 60 59 60 61 56 57 59 61 63 63 70 71 72 73 74 74 74 75 75 75 75 75 75 75 75 75 75 74 74 74 74 74 74 73 73 73 73 73 73 72
62 59 55 56 55 56 58 61 62 59 59 62 58 54 54 57 60 62 61 69 70 72 73 73 73 73 74 73 75 75 75 75 75 74 74 74 73 73 74 75 75 74 73 73 72 73 73 72 72
61 55 55 54 54 53 58 59 61 62 60 60 61 58 56 57 59 59 64 68 70 71 73 73 72 73 73 73 73 75 75 75 75 75 75 71 70 72 73 73 74 73 72 72 73 73 74 73 72
61 58 56 56 55 55 57 58 59 59 60 60 59 56 60 60 59 62 64 67 68 70 71 72 72 72 72 73 73 73 73 74 73 69 68 69 69 71 73 73 73 72 70 72 71 71 73 72 72
61 57 56 53 56 54 50 59 60 60 60 60 60 61 61 60 62 64 64 66 68 69 71 71 70 71 71 71 72 72 72 73 73 69 68 68 70 71 71 71 72 71 71 70 67 69 70 70 70
55 59 55 52 55 55 50 53 59 59 60 62 61 62 62 62 63 63 64 64 66 68 69 69 69 70 69 71 71 72 71 71 71 69 66 69 68 71 70 70 71 72 70 69 69 70 70 69 68
51 53 54 53 51 51 51 50 57 59 62 62 62 61 62 63 63 63 64 64 65 66 66 67 68 69 69 69 70 70 70 70 71 71 68 69 69 70 71 71 72 71 71 70 70 70 69 69 66
50 51 51 49 48 50 49 53 59 60 62 62 62 61 62 62 62 63 63 62 63 63 64 66 68 68 69 68 67 68 68 68 71 71 68 70 69 71 71 71 70 70 70 70 70 70 69 67 66
45 47 50 48 47 49 50 49 58 61 61 61 61 62 62 62 63 63 63 61 61 61 63 65 67 68 68 66 66 67 68 67 70 71 71 71 70 71 71 72 71 70 71 69 69 67 68 65 65
41 45 45 48 48 50 48 48 59 61 60 60 61 61 61 62 62 63 63 62 60 60 62 64 66 68 66 69 68 69 68 67 69 71 72 71 72 72 72 72 71 71 72 72 71 70 65 67 66
36 36 41 45 49 48 47 48 59 60 60 59 60 60 61 61 62 62 62 62 62 61 62 64 65 68 66 69 68 68 69 69 69 70 71 71 73 73 71 71 72 71 71 71 68 69 67 66 66
33 39 38 39 40 46 46 50 58 59 59 60 60 60 60 60 61 62 62 62 62 63 63 63 64 68 67 69 68 68 68 68 69 70 70 70 72 73 72 71 69 71 70 69 69 66 65 65 64
34 37 38 38 39 38 42 51 57 58 58 59 60 60 60 61 61 62 62 61 62 64 64 63 64 68 68 69 68 67 66 67 68 69 69 71 71 72 73 72 72 71 71 70 67 67 65 63 61
29 29 36 39 39 35 37 50 54 56 57 58 59 60 60 60 61 61 62 61 62 64 64 64 64 66 68 67 67 69 67 68 68 68 71 71 72 73 72 72 71 71 71 70 69 68 66 64 61
27 27 29 37 37 32 35 42 50 53 56 56 57 60 60 59 60 61 61 62 62 64 64 64 65 66 66 68 68 69 70 68 68 68 70 71 72 73 73 72 72 71 70 70 70 69 66 59 63
24 26 27 31 34 33 31 31 49 53 55 55 56 58 59 59 59 61 61 62 62 63 64 65 66 66 66 69 67 67 67 68 68 67 67 71 72 73 73 72 72 72 71 70 70 70 68 59 59
25 27 27 30 32 32 32 29 41 53 53 53 54 55 57 59 59 58 59 61 62 62 64 64 68 67 68 69 68 67 66 67 68 67 66 69 71 72 73 73 72 71 72 71 70 71 69 65 60
31 30 30 30 29 28 30 27 29 50 52 53 54 52 54 56 58 58 58 59 62 64 65 65 68 68 68 69 69 68 67 68 67 67 65 68 69 71 73 73 72 72 72 71 71 71 69 70 65
33 30 27 25 23 23 28 23 25 40 52 52 53 56 57 55 57 57 57 57 62 64 64 66 67 69 69 69 69 69 68 68 68 66 66 68 69 70 71 73 72 72 73 72 71 72 71 69 70
31 28 26 24 19 21 18 17 21 25 38 50 53 57 55 54 56 56 58 57 59 64 65 65 66 67 69 69 69 69 69 69 68 67 66 66 69 69 71 73 73 73 73 73 72 72 73 71 70
31 29 24 15 21 14 16 15 18 19 18 30 46 54 53 55 55 55 58 58 59 63 65 66 66 66 69 69 69 70 71 69 69 68 68 66 69 71 71 73 72 73 73 73 73 72 72 72 70
23 23 20 16 15 15 14 14 17 16 16 18 29 48 50 55 55 55 57 58 59 61 64 66 66 66 67 69 69 68 69 72 70 68 69 71 67 70 71 71 73 72 72 72 72 73 72 72 72
28 20 18 17 16 13 13 14 15 19 20 19 22 43 51 53 54 55 56 58 58 60 63 66 67 66 67 68 70 69 68 68 72 70 68 68 70 67 70 71 72 73 72 72 72 72 74 72 72
31 22 17 14 14 16 17 14 24 21 19 19 17 26 50 53 54 55 56 57 58 59 62 64 68 67 68 69 70 71 71 69 69 72 70 69 69 70 68 72 72 73 73 72 72 72 73 73 72

GFSSGP_sfc_dewp_045.txt.gz
Dewpoint
71 70 70 68 62 59 55 55 59 59 59 59 57 57 59 61 58 53 67 68 71 72 73 74 76 75 75 75 76 75 76 75 75 75 75 75 75 75 75 74 74 74 74 74 74 73 72 73 72
70 69 70 66 58 54 53 57 58 59 59 61 59 60 60 60 62 66 66 70 72 73 73 74 76 76 75 75 75 75 75 75 75 75 75 75 75 75 74 74 74 74 74 74 74 73 72 72 72
69 69 65 61 56 53 55 57 59 60 62 60 60 62 61 61 64 64 67 71 72 73 73 74 76 76 75 75 75 76 75 74 75 75 75 75 75 74 74 74 74 74 73 73 73 73 72 71 72
67 69 67 59 55 57 58 61 59 59 61 61 61 59 61 64 63 66 69 71 73 73 73 75 75 75 75 75 75 75 74 74 75 76 75 75 74 75 74 74 74 74 73 73 72 72 72 72 71
68 66 59 56 56 58 59 61 62 60 60 60 60 58 61 62 66 68 70 71 72 73 74 73 76 76 75 75 75 75 74 75 75 76 75 75 74 74 75 75 74 74 74 73 73 73 72 72 71
62 62 55 52 54 57 60 63 62 61 61 60 58 58 59 64 66 68 68 70 72 73 74 74 75 75 75 74 74 74 75 75 75 75 75 75 75 75 75 74 74 74 73 74 73 73 72 72 72
58 58 55 55 55 55 59 64 62 61 61 59 59 55 59 64 65 66 67 71 73 73 74 74 74 73 75 75 74 74 75 75 75 75 75 75 75 74 74 74 74 73 73 73 73 72 72 71 72
61 59 56 56 55 56 57 61 64 61 60 61 58 56 57 62 64 65 70 71 72 73 74 73 73 72 73 74 74 74 75 75 75 74 74 74 74 74 74 75 75 73 73 72 72 73 73 73 72
59 54 53 55 55 55 60 59 64 64 61 60 58 57 59 62 63 66 69 69 71 73 73 72 72 73 73 73 73 74 75 75 74 74 75 73 71 72 73 73 74 72 72 73 73 73 73 73 73
61 56 54 55 56 55 58 60 62 60 59 56 55 57 59 62 61 66 67 68 69 70 72 72 72 72 72 73 72 73 73 73 73 71 69 70 69 71 73 73 73 72 71 73 69 72 72 72 70
62 57 57 54 56 59 56 59 60 59 59 57 54 56 58 61 60 65 67 68 68 70 72 72 71 71 72 72 72 72 73 73 73 68 68 68 69 70 71 71 72 71 71 69 69 69 70 69 70
58 59 60 54 54 56 53 59 59 60 60 59 56 56 57 59 58 64 67 68 69 70 71 71 71 71 71 71 72 72 72 72 71 70 66 67 69 70 70 70 70 71 69 69 68 70 70 68 68
55 57 56 59 59 53 52 57 59 60 61 57 57 56 56 57 59 64 66 68 68 69 70 70 70 70 70 70 71 71 71 71 71 69 66 68 68 69 70 70 70 70 70 69 70 69 69 67 65
50 50 52 53 53 49 49 52 59 61 61 59 59 57 57 57 62 63 64 66 67 68 69 69 69 69 69 69 69 70 70 70 71 70 67 69 69 70 70 70 69 69 70 69 69 70 69 66 65
43 46 46 48 50 50 52 55 58 61 61 60 60 60 59 61 63 63 64 65 66 66 67 67 67 69 68 68 67 68 69 69 70 70 69 68 69 70 71 70 70 69 70 69 68 66 68 64 64
40 41 41 46 50 48 48 48 60 61 60 60 60 60 60 62 62 63 63 64 65 65 65 66 67 68 68 68 66 67 67 68 68 70 71 70 70 71 71 71 70 70 70 70 70 69 66 65 63
31 36 42 43 48 48 48 53 60 61 61 60 59 60 61 61 62 63 64 63 63 63 64 64 66 67 67 68 67 68 67 68 69 71 71 71 71 72 71 71 71 71 70 70 71 69 67 65 65
28 36 37 38 43 48 47 50 59 60 60 61 61 60 60 61 61 63 63 63 61 61 62 63 66 67 67 68 67 68 68 69 69 70 71 71 72 72 70 70 70 70 71 70 68 67 65 65 63
34 37 38 39 41 43 47 49 59 59 60 60 60 60 61 61 62 62 63 63 62 61 61 63 64 66 67 68 66 66 66 67 68 69 70 70 72 72 71 70 70 71 69 69 66 66 63 61 61
25 27 32 35 39 38 40 46 57 59 59 59 60 60 60 60 61 62 62 62 62 62 60 63 64 66 67 66 67 66 66 66 68 68 69 70 71 72 72 71 71 71 70 69 69 67 66 62 61
25 24 27 30 37 37 43 46 53 58 59 59 59 60 60 60 60 61 61 62 61 63 62 62 63 64 67 66 67 69 68 67 67 67 69 70 71 72 72 71 71 71 70 70 69 68 65 58 62
24 26 27 28 33 32 35 37 54 56 57 58 59 59 59 60 60 61 61 61 61 63 64 64 63 64 67 67 66 66 64 63 64 66 67 70 71 72 72 71 71 71 70 69 70 69 67 59 60
26 26 27 27 29 36 30 31 45 53 54 56 58 59 60 60 60 61 60 61 62 62 64 64 64 64 66 67 65 66 64 64 68 67 66 70 71 71 72 72 71 71 71 70 70 69 68 59 59
30 27 28 30 29 26 27 31 31 49 50 55 56 57 58 60 60 61 61 61 62 62 64 64 65 64 65 67 66 65 65 67 67 67 66 67 70 71 72 72 71 71 71 71 70 70 69 67 63
31 27 24 25 25 25 28 29 31 47 50 52 55 55 54 59 59 59 61 61 62 62 64 64 65 65 65 66 67 66 66 66 67 67 66 66 68 69 70 72 71 71 71 71 71 70 70 69 66
31 30 27 23 26 26 26 25 28 39 49 52 52 54 54 57 59 59 59 61 61 62 63 64 65 65 66 67 67 67 66 66 66 67 67 66 67 68 69 71 71 71 72 72 71 71 71 69 70
33 30 31 24 16 18 24 19 19 29 42 50 52 53 54 53 55 57 59 59 60 62 62 64 65 65 66 67 67 67 67 67 67 67 67 66 67 69 69 70 72 72 72 72 71 71 71 71 69
34 31 29 21 22 14 17 15 21 21 24 40 52 52 52 53 55 55 58 58 59 62 63 64 64 65 66 67 67 68 68 68 68 68 67 66 67 69 69 70 71 72 72 72 72 71 71 71 71
28 30 27 29 23 24 13 16 19 19 22 25 44 49 51 54 55 54 56 58 58 62 63 64 64 65 66 67 67 68 68 68 68 69 68 69 67 69 70 71 71 72 72 72 72 72 72 71 71
31 28 20 27 24 17 19 20 19 18 19 21 25 41 47 53 55 54 55 57 58 58 62 64 64 64 65 67 68 68 69 69 70 70 68 68 70 68 69 71 71 72 72 72 71 71 72 72 71

GFSSGP_sfc_dewp_048.txt.gz
Dewpoint
71 70 70 68 61 58 55 55 58 58 58 59 56 56 58 61 57 53 66 68 70 71 73 73 76 75 75 75 76 75 75 75 75 75 74 74 74 74 74 74 74 74 74 73 72 72 72 71 72
70 69 69 66 57 53 54 56 58 59 60 58 59 60 60 60 63 65 66 70 71 72 74 73 75 76 75 75 76 75 75 75 75 74 74 74 74 74 73 74 74 73 73 73 72 72 72 72 72
70 69 65 61 56 53 54 57 58 61 61 57 60 61 61 61 64 64 68 71 72 73 74 73 75 76 74 75 75 74 75 75 75 74 74 74 74 74 74 74 74 73 73 72 72 72 72 71 71
67 68 66 58 55 57 58 60 61 60 62 60 60 58 62 63 63 67 71 72 72 73 74 74 75 74 74 76 75 74 75 75 74 75 74 74 74 74 74 74 74 74 74 73 72 72 72 72 72
68 67 59 56 56 58 61 62 62 59 60 61 59 59 61 63 67 69 71 72 72 72 73 73 76 75 74 76 75 74 74 74 75 75 75 74 74 74 74 74 74 74 74 73 72 72 71 71 71
63 62 55 52 54 57 61 63 63 60 62 60 59 60 60 67 67 69 71 71 72 73 73 73 75 76 74 74 74 74 75 74 75 75 75 75 75 74 74 74 74 74 73 73 72 72 71 72 71
60 57 54 54 55 57 59 61 58 61 61 59 59 57 61 65 67 69 70 72 73 74 73 74 72 75 74 74 74 74 75 75 75 75 75 75 75 74 74 74 73 73 73 72 71 72 71 72 71
59 58 55 57 55 56 61 61 62 62 60 59 59 57 60 65 67 68 71 72 73 73 74 73 72 72 73 73 74 74 74 74 75 75 75 75 74 74 74 73 74 73 73 72 71 72 73 72 72
59 54 52 55 56 57 61 60 63 64 61 58 58 59 61 65 66 69 69 70 72 72 73 73 72 72 73 73 73 74 75 74 74 74 75 73 73 73 73 74 73 72 73 73 73 73 74 74 72
59 54 52 56 56 57 60 59 62 61 60 55 57 61 64 64 67 66 65 66 68 70 72 72 72 72 73 73 73 73 74 73 74 73 71 71 71 72 72 73 72 72 73 71 72 73 72 71 72
61 57 56 55 56 57 56 60 61 60 59 55 57 61 62 63 65 64 65 66 67 68 71 72 72 72 72 73 72 73 73 73 73 70 69 70 70 72 72 72 73 72 71 69 70 71 70 71 71
59 60 60 56 56 56 55 60 59 60 60 58 58 61 61 62 65 64 64 66 68 68 70 72 71 72 72 72 72 72 72 73 72 70 68 69 70 71 72 72 71 72 71 70 70 71 71 68 71
58 58 58 59 59 58 56 57 59 60 58 57 58 60 61 61 65 65 66 67 69 68 71 71 71 71 71 71 72 72 72 72 72 71 67 69 69 71 71 71 71 71 72 71 72 72 70 69 66
51 54 55 54 53 54 55 55 59 59 56 56 57 58 60 61 63 66 68 68 68 69 70 71 70 70 70 70 71 71 71 71 71 69 67 69 69 70 71 71 72 71 71 71 71 72 70 68 66
47 42 43 45 50 51 52 56 57 58 56 55 56 57 60 60 62 65 67 67 68 68 70 70 69 70 69 69 69 70 70 70 71 71 70 68 70 71 72 72 71 70 72 71 71 68 69 67 66
38 40 41 45 48 49 50 48 60 58 57 55 55 55 57 58 62 64 66 67 68 68 69 69 69 69 69 69 68 69 69 70 70 71 71 69 71 71 72 72 72 71 72 72 72 71 68 67 66
30 39 41 44 47 49 48 53 60 60 59 58 56 55 55 56 61 64 65 66 67 67 68 68 68 68 68 69 68 67 69 69 69 71 71 71 71 72 72 72 72 73 73 72 72 71 69 68 67
31 33 38 40 42 48 47 51 60 60 60 59 58 58 57 58 61 63 64 65 66 66 67 67 67 68 68 68 68 69 69 69 69 70 71 71 72 72 72 72 72 72 72 72 70 70 67 68 65
33 36 37 39 40 48 47 52 59 60 60 59 59 59 59 59 62 63 64 64 65 65 65 65 66 67 67 68 67 68 68 69 70 70 72 72 72 73 72 72 72 73 72 71 70 68 66 64 64
29 27 32 35 40 42 44 47 58 60 60 60 60 59 60 60 60 62 63 63 63 63 63 65 66 67 68 68 68 68 67 68 70 70 71 72 72 74 73 72 72 72 72 70 70 69 68 64 64
27 27 26 33 33 38 39 41 54 59 59 60 60 61 60 60 60 61 62 63 62 62 62 64 65 67 68 68 68 69 68 68 69 69 70 71 72 73 73 72 72 72 72 71 71 70 68 62 65
25 28 29 27 31 30 38 35 49 57 58 59 59 60 60 61 61 62 61 62 63 63 63 64 65 66 68 68 68 68 66 65 67 68 69 70 72 72 73 73 72 72 72 72 72 70 69 65 65
21 27 27 27 29 29 29 30 36 55 56 57 58 59 60 60 61 61 61 62 63 63 63 63 65 66 67 68 68 67 67 66 67 68 68 70 71 72 73 73 72 72 72 72 72 71 70 64 64
30 28 27 28 27 25 27 29 32 49 54 57 58 59 60 60 60 61 61 62 62 63 64 64 65 65 67 68 68 67 67 66 67 67 67 68 70 71 72 73 72 72 73 72 71 72 71 68 65
29 26 24 23 24 25 30 28 31 35 52 55 58 58 59 60 60 60 61 61 62 63 64 65 65 65 66 67 68 67 67 67 67 67 67 67 69 70 71 73 72 72 72 73 72 72 72 71 68
29 27 25 21 23 26 29 28 30 33 44 53 55 58 59 60 60 60 61 61 62 63 63 65 65 65 65 66 67 68 67 66 67 68 68 67 68 69 72 72 73 72 73 73 73 72 72 71 71
30 28 28 26 23 24 27 27 26 34 35 49 51 54 57 57 58 61 61 62 62 62 63 64 65 65 66 65 67 67 67 67 67 68 69 68 69 69 71 72 72 73 73 73 73 72 72 72 71
31 30 28 26 25 19 23 19 30 28 34 41 49 51 54 56 56 58 61 61 62 62 63 64 65 65 65 66 66 66 67 68 68 69 68 68 68 70 70 71 72 73 73 73 73 72 72 72 72
26 31 31 29 27 25 20 21 25 29 32 32 38 52 52 54 55 58 60 61 61 62 63 64 64 65 65 66 67 67 67 68 68 68 69 69 68 69 70 71 71 71 72 73 73 73 73 72 72
33 30 29 30 28 23 25 26 24 24 26 28 30 42 53 54 56 56 56 59 60 61 62 63 64 64 65 67 67 67 68 68 68 69 69 69 68 69 70 71 71 72 72 72 72 72 73 72 72

GFSSGP_sfc_dewp_051.txt.gz
Dewpoint
69 70 69 68 60 57 54 55 59 57 58 57 56 55 56 59 56 55 65 66 66 70 70 73 76 76 75 76 76 75 75 75 75 75 75 75 75 74 74 73 73 74 73 72 73 72 71 73 73
68 69 69 66 57 53 54 56 58 57 59 57 59 58 59 59 63 64 65 67 67 69 68 71 76 76 75 75 76 76 75 75 75 75 75 74 74 74 74 73 72 73 73 73 72 72 72 72 72
69 67 66 61 57 54 54 57 60 61 57 57 60 61 61 61 63 63 66 67 67 70 69 72 76 75 75 75 75 76 75 75 74 74 74 74 74 73 73 73 72 73 72 73 72 71 71 71 72
66 68 66 59 54 56 58 60 61 61 58 57 60 59 62 64 63 65 68 68 67 70 68 73 75 74 75 75 75 75 75 74 74 74 74 74 74 73 74 73 73 73 73 72 72 72 72 71 71
68 66 60 57 56 58 59 62 61 59 59 60 59 59 61 64 66 67 68 67 67 68 70 71 76 75 75 75 74 75 75 74 74 74 74 74 74 74 74 74 73 73 73 72 72 72 72 71 71
65 62 55 53 54 57 60 61 63 60 62 60 59 59 61 65 67 67 67 67 68 67 68 71 75 75 75 75 74 75 75 74 75 75 75 76 74 75 74 74 73 73 72 71 71 71 72 71 72
61 59 54 54 55 57 59 62 59 62 61 60 60 58 63 65 67 67 67 68 68 67 70 70 72 73 75 75 74 75 75 75 74 75 76 75 75 74 74 73 73 73 72 71 71 72 72 72 72
62 59 54 55 55 54 60 58 62 62 59 61 59 58 61 64 68 68 67 67 69 67 70 70 73 70 71 71 74 75 75 75 75 75 75 75 75 74 74 74 73 73 71 71 72 72 72 73 73
60 55 52 53 55 56 60 59 62 63 58 58 58 59 61 66 68 67 66 66 69 68 70 69 71 71 73 72 73 73 74 75 75 75 75 75 72 71 71 73 73 72 73 72 71 72 73 73 73
59 57 53 55 57 57 58 59 61 61 58 57 58 61 64 65 66 65 63 64 66 66 69 68 70 71 71 70 73 74 72 71 72 73 74 73 73 73 71 72 73 72 72 72 73 72 73 70 68
60 56 56 55 56 58 59 59 62 60 58 58 59 62 63 64 64 63 62 64 65 66 69 70 71 73 71 72 72 72 72 72 73 73 72 73 73 73 71 71 71 71 71 68 70 70 68 68 67
58 59 58 57 56 55 57 59 60 60 59 60 60 62 63 63 62 62 61 64 65 67 69 71 71 72 72 72 71 72 71 71 70 71 72 73 71 73 74 70 71 72 70 72 71 70 71 70 70
57 58 58 59 58 57 57 56 57 59 59 59 61 62 61 61 61 61 62 65 66 66 68 71 71 72 73 74 72 72 72 71 70 70 69 71 71 72 72 71 71 72 73 72 72 72 70 70 70
53 56 57 55 54 55 53 52 57 59 59 59 61 61 61 60 60 62 63 65 66 66 68 70 71 72 73 72 74 73 72 71 71 71 68 70 71 73 73 73 72 72 72 72 73 72 69 68 67
49 50 48 48 49 51 51 52 56 58 58 59 60 60 60 60 61 62 63 64 66 67 69 70 71 71 72 72 73 71 71 70 70 69 70 70 71 73 74 73 72 71 73 73 72 71 69 66 67
37 40 43 47 48 49 50 47 58 57 58 58 59 59 59 59 60 62 64 65 66 67 69 70 68 69 71 71 71 70 69 70 71 71 72 72 72 73 74 73 71 72 72 72 71 69 66 66 67
35 29 39 46 48 48 49 48 59 57 57 57 58 59 59 59 61 63 64 66 67 68 69 70 70 69 70 71 70 69 70 70 70 71 71 73 73 72 74 75 73 74 73 72 71 70 68 65 65
27 28 40 45 46 47 48 48 59 58 57 56 57 57 58 58 58 62 64 66 67 68 69 70 69 70 71 70 71 69 67 69 70 70 70 73 73 73 74 76 74 73 74 72 70 72 69 69 66
35 35 35 43 45 46 47 48 57 59 58 57 55 56 57 57 58 61 63 65 67 68 69 70 70 71 70 69 67 67 66 68 69 71 73 74 73 74 75 73 74 73 76 75 71 69 69 65 66
29 33 35 39 41 43 46 46 54 59 59 59 57 55 55 56 57 60 63 64 65 68 69 70 70 71 70 68 70 68 69 69 71 72 73 73 73 75 74 74 73 75 74 73 72 71 65 65 66
25 27 33 33 33 38 40 41 48 58 59 60 59 59 57 56 56 59 61 63 64 66 68 69 70 71 71 71 70 71 71 71 70 71 71 72 73 74 75 75 73 76 77 71 73 71 70 62 66
18 24 31 32 30 36 40 39 43 51 57 59 59 59 59 59 58 60 61 62 63 65 67 69 71 71 71 72 71 72 68 66 68 70 71 72 74 74 75 76 75 75 74 75 73 72 71 68 64
19 21 21 27 32 31 33 36 40 49 52 57 59 59 60 60 60 60 61 63 63 65 66 67 71 72 72 72 73 70 70 68 69 69 72 74 74 74 73 75 75 74 73 76 75 75 73 68 65
22 25 23 21 23 30 33 33 36 44 50 54 57 59 60 60 61 61 62 63 64 65 65 66 70 72 72 72 72 73 73 71 68 69 68 69 70 71 74 74 75 75 74 75 74 75 74 71 67
25 21 23 22 18 21 33 32 35 39 46 50 55 58 60 61 61 61 62 63 64 66 66 67 69 70 71 71 72 72 73 73 72 71 68 69 68 70 72 75 75 73 75 75 75 75 74 73 70
28 24 17 21 15 12 29 30 32 37 38 46 51 56 59 60 60 61 62 63 65 66 67 67 68 70 70 71 72 73 73 69 68 71 67 67 66 68 73 74 74 75 75 75 75 73 73 73 72
28 27 23 18 25 20 16 29 33 35 36 38 44 53 57 59 60 61 62 63 65 66 67 68 69 70 70 69 71 72 72 72 70 72 72 68 72 67 71 73 74 74 74 75 75 73 74 74 74
28 29 26 25 21 20 19 22 25 36 35 38 42 46 54 58 60 61 61 62 64 64 66 67 68 69 70 70 70 70 71 72 72 72 72 72 70 71 70 73 73 73 74 75 75 73 74 75 73
28 28 30 27 26 19 17 19 29 34 40 37 41 44 49 56 59 60 62 63 64 64 65 66 67 69 69 69 70 70 70 70 71 71 71 72 71 72 72 73 73 73 73 74 75 75 74 74 75
32 30 27 29 30 28 25 19 28 35 36 37 37 40 47 54 58 60 61 62 63 64 65 65 66 66 68 69 70 70 71 71 70 71 71 73 73 72 72 73 73 73 73 73 74 73 72 73 74

GFSSGP_sfc_dewp_054.txt.gz
Dewpoint
69 66 65 66 60 57 53 55 57 57 55 56 55 54 55 57 56 58 64 66 65 64 69 72 76 76 75 76 76 75 75 75 74 74 74 75 75 74 73 73 74 73 73 73 71 71 73 73 73
67 68 69 67 59 54 54 56 56 56 57 56 56 56 55 58 61 62 63 65 64 62 66 68 75 76 75 76 76 76 75 75 75 75 75 75 74 74 73 73 73 74 73 73 73 73 72 73 73
65 65 66 61 57 53 55 57 58 57 57 56 59 58 59 60 62 62 63 64 62 63 66 72 75 76 75 76 75 75 75 75 75 75 74 74 74 73 73 73 73 72 73 73 72 72 72 72 73
62 66 66 59 54 55 57 60 60 57 57 59 58 59 62 63 62 63 63 62 61 62 65 74 75 75 75 75 75 75 75 75 74 74 74 74 74 73 73 73 73 73 72 73 72 72 71 71 72
65 67 60 57 56 57 59 60 61 57 55 57 58 59 62 63 64 63 62 60 61 61 66 71 76 75 75 75 75 75 74 74 75 75 74 74 74 74 74 74 73 73 73 72 72 72 72 71 71
64 64 56 53 54 56 59 61 62 59 60 59 59 59 61 64 64 63 61 60 60 61 64 69 75 75 75 75 75 75 74 75 75 74 74 74 75 74 74 73 73 72 72 71 72 72 72 72 73
61 58 54 54 54 55 57 61 61 60 61 59 60 58 62 64 64 62 61 61 60 62 64 67 70 74 75 75 75 75 74 74 75 75 75 75 75 74 73 73 72 72 71 71 72 72 72 73 74
63 58 53 53 54 55 60 58 59 61 60 61 60 59 61 64 64 62 61 61 60 62 63 66 67 70 70 71 75 75 75 74 74 75 75 75 74 73 71 74 73 71 71 71 71 72 72 73 74
61 53 51 51 54 56 59 58 61 63 60 59 59 59 62 65 64 60 61 61 61 62 63 66 64 68 70 71 73 75 75 75 75 75 75 74 67 67 69 73 73 72 71 71 71 72 73 73 73
57 55 50 53 55 55 58 57 59 60 58 57 58 60 63 64 64 59 60 60 60 61 62 64 65 67 68 66 72 72 71 70 69 70 72 68 69 70 68 71 73 73 72 73 71 72 72 73 66
58 54 53 54 55 56 56 56 59 58 57 57 59 61 64 63 63 59 59 60 59 61 61 63 66 69 67 69 69 69 68 69 70 73 72 70 68 68 67 69 69 69 72 67 69 70 66 65 65
53 55 55 54 55 53 54 57 57 58 58 59 60 61 63 62 60 58 58 59 59 61 63 63 67 70 68 69 67 67 66 67 67 69 73 72 68 69 69 67 69 70 67 70 69 66 68 69 69
51 53 55 57 55 54 55 54 54 56 59 60 61 61 61 61 60 59 58 59 60 60 63 64 67 71 71 71 68 67 67 66 66 69 71 69 67 70 68 70 70 69 68 68 68 68 68 70 67
46 48 55 56 55 55 53 52 53 56 59 60 61 61 60 59 59 59 58 59 61 61 63 65 67 70 71 71 72 70 69 68 68 66 68 72 69 71 69 71 70 69 68 67 68 68 66 64 64
43 47 50 52 52 51 52 50 51 58 59 60 60 61 59 59 59 59 59 60 61 62 63 65 67 68 71 71 72 70 69 67 67 67 71 71 72 74 73 70 74 69 71 72 70 69 67 61 62
30 40 44 49 49 49 50 45 54 58 59 59 60 60 59 59 58 59 60 60 62 62 65 66 64 66 69 70 71 68 67 67 66 67 68 71 73 74 74 72 68 70 69 66 65 63 62 61 61
21 25 36 43 48 48 49 46 56 57 57 58 60 59 59 59 59 60 60 60 62 64 66 67 67 66 68 71 70 69 70 69 68 69 69 74 73 74 71 69 70 73 67 66 63 62 62 61 59
21 21 28 37 47 48 47 47 55 56 56 58 59 59 59 58 58 60 60 61 61 64 66 68 66 68 70 68 70 67 68 69 69 69 69 74 72 73 71 70 72 71 66 65 64 67 66 62 61
26 25 26 41 47 46 46 46 54 56 55 57 58 59 59 58 59 60 61 61 61 64 66 68 68 70 69 66 66 66 66 67 68 68 72 73 73 74 73 70 71 70 68 70 71 68 70 63 65
24 31 32 35 44 46 45 45 48 56 56 56 57 58 58 58 58 59 61 61 61 64 67 68 69 71 70 66 67 66 67 66 67 69 72 73 73 74 73 74 72 71 67 71 71 70 64 63 64
22 21 28 32 38 41 44 44 46 53 56 57 56 57 57 57 57 58 61 61 61 64 67 68 70 71 71 70 67 69 69 70 70 70 70 72 73 73 75 75 74 72 70 67 70 72 69 61 64
16 14 19 29 33 36 42 38 44 46 55 56 57 56 55 56 58 58 59 61 60 63 67 69 71 72 71 72 69 73 68 66 65 67 67 69 73 73 74 75 75 73 71 73 70 70 69 68 62
19 16 15 19 30 34 36 39 41 44 48 54 56 57 56 56 56 57 58 61 61 62 64 68 72 73 73 73 73 68 71 64 65 65 72 74 75 74 72 75 75 75 72 72 73 73 73 67 63
22 20 19 19 14 25 34 35 37 39 44 48 54 55 57 58 57 57 59 61 62 63 64 66 71 74 73 73 71 74 73 71 65 69 67 67 68 71 74 74 75 75 72 73 72 73 73 72 69
24 21 19 17 10 8 25 31 36 37 42 44 48 54 56 58 59 59 59 60 62 63 64 65 71 73 73 71 71 71 72 73 72 71 68 69 65 66 71 75 75 73 75 74 77 75 74 74 70
26 23 18 20 12 7 13 22 31 37 39 41 46 50 55 56 58 59 61 61 63 64 65 66 69 72 72 72 74 75 74 68 68 71 67 66 65 65 70 73 74 75 74 74 75 72 71 73 71
27 25 23 18 18 16 10 12 21 33 37 39 40 45 52 55 57 59 61 62 63 64 67 68 71 71 72 70 74 75 74 73 70 74 71 67 71 66 69 71 73 73 74 74 75 71 73 73 74
29 28 24 23 23 21 18 19 13 32 35 37 39 40 46 52 56 58 61 62 63 63 64 67 68 71 71 70 71 71 71 73 73 72 73 72 70 71 70 71 71 71 73 74 75 72 74 74 71
26 26 27 25 23 21 20 17 22 27 31 37 37 39 42 50 55 56 59 61 62 63 64 65 67 69 69 71 71 71 70 71 72 71 72 73 72 72 73 72 71 71 72 73 75 74 72 74 74
29 28 26 25 29 25 24 19 21 26 25 32 36 39 41 45 52 56 58 60 61 63 63 64 65 66 68 70 72 72 72 72 70 72 71 73 73 73 73 73 72 71 71 73 74 73 71 72 73

GFSSGP_sfc_dewp_057.txt.gz
Dewpoint
69 66 66 61 60 56 55 54 57 55 54 56 54 54 57 58 57 58 65 66 65 63 69 72 75 75 75 75 75 75 75 75 74 74 74 75 75 73 74 73 73 73 73 72 72 73 72 73 73
62 65 66 67 59 55 55 54 55 55 54 55 54 55 56 57 60 62 64 67 63 62 63 68 76 76 75 76 75 75 75 74 74 75 75 75 74 73 73 73 73 73 73 73 73 73 73 73 73
62 65 65 60 56 54 55 56 56 55 55 56 55 57 59 59 61 62 63 62 61 60 64 73 75 76 75 75 76 75 75 75 75 75 74 75 74 73 73 73 73 74 73 73 73 72 72 73 73
61 63 67 60 54 54 56 59 56 54 57 57 57 58 61 61 61 62 62 60 59 59 65 74 75 75 75 75 75 75 75 75 75 74 74 74 74 73 73 73 73 72 73 73 73 72 72 72 72
62 66 60 57 55 56 56 60 62 55 57 57 58 59 60 61 61 62 61 58 59 60 66 70 76 75 75 75 75 75 75 75 74 74 74 74 74 74 74 74 73 72 72 73 72 72 72 71 72
64 63 57 53 53 57 58 61 62 56 56 57 59 60 61 63 61 61 60 57 58 59 63 70 75 75 75 75 75 75 75 75 75 75 74 74 74 74 73 73 72 72 72 72 72 72 72 73 73
61 62 55 53 52 56 57 62 62 58 59 58 59 60 62 62 61 59 58 57 58 59 63 69 71 74 75 75 75 75 75 75 74 75 75 75 74 73 73 72 72 72 71 72 72 72 72 73 73
62 62 54 53 52 57 58 59 62 60 60 59 60 60 61 63 61 58 58 57 58 60 61 66 69 68 70 72 75 75 75 75 74 75 75 74 73 71 71 74 73 72 71 72 72 73 73 74 73
62 58 53 55 53 55 57 57 60 62 59 59 59 60 62 62 60 57 57 56 59 58 59 61 64 66 69 72 74 75 75 74 75 74 74 74 66 69 69 73 72 71 71 71 71 72 73 74 73
59 54 57 53 55 54 55 57 60 59 57 57 58 61 62 61 59 57 57 56 57 58 58 58 62 64 66 65 73 73 71 70 69 67 72 73 71 71 68 71 73 72 72 72 71 72 73 73 67
55 51 52 52 54 56 56 62 60 57 54 56 58 61 61 60 59 57 56 56 56 58 57 59 63 66 64 68 67 66 69 71 69 70 71 68 67 67 67 68 69 70 72 67 68 69 70 71 68
49 50 53 54 54 55 56 58 56 57 61 57 60 62 62 60 57 56 56 56 57 58 58 59 63 66 67 65 67 71 71 67 64 67 70 70 73 71 71 72 70 71 70 68 72 71 71 70 71
47 49 54 54 54 53 53 50 62 58 57 59 61 62 61 59 57 57 57 56 57 57 58 60 65 69 69 75 73 68 65 62 64 68 69 68 71 71 72 70 72 71 70 63 70 69 69 65 65
41 44 55 55 53 53 51 52 51 54 57 59 60 61 60 59 57 57 57 57 57 59 59 62 65 69 69 73 74 71 67 68 63 64 67 70 74 72 73 69 72 72 73 72 71 72 68 68 64
38 41 47 54 54 52 51 50 48 57 58 59 59 60 59 59 58 57 57 57 58 59 61 63 66 67 70 72 70 70 72 64 70 64 71 70 72 72 75 69 73 73 71 70 68 65 62 59 64
35 37 43 48 53 51 50 46 48 56 57 59 59 59 59 59 57 58 57 57 59 59 62 64 62 66 68 70 70 69 71 68 71 66 68 71 72 73 73 71 71 67 70 69 69 65 67 60 66
23 28 37 45 50 48 49 51 56 55 56 58 59 58 58 58 59 59 57 58 59 61 63 64 65 66 68 71 70 68 71 72 71 70 72 72 72 72 71 70 71 73 68 70 67 70 67 60 62
19 21 28 40 48 47 47 51 62 52 54 57 58 58 58 57 58 59 58 58 59 61 63 65 65 69 72 70 71 67 67 69 73 71 73 74 73 71 72 73 70 71 70 64 71 66 70 65 65
15 21 24 32 45 46 47 51 61 52 52 57 58 58 58 57 59 59 59 59 59 61 64 66 68 73 70 68 67 66 65 68 70 70 72 73 73 72 74 74 71 71 72 71 69 64 67 60 62
18 21 25 28 41 47 49 47 49 51 52 56 57 57 57 57 58 59 59 58 58 62 64 69 70 74 71 68 70 68 68 65 65 66 72 72 71 73 72 75 71 72 70 71 70 70 68 62 63
18 19 27 31 40 45 45 46 46 51 52 54 56 57 56 57 57 59 59 59 59 62 64 69 72 74 73 73 70 70 70 68 65 70 68 71 72 72 73 73 75 72 73 68 71 70 74 67 61
19 18 17 24 32 35 42 39 47 55 51 53 54 56 54 56 58 59 59 59 59 61 64 70 72 74 73 74 70 74 67 64 64 67 67 70 72 72 72 73 73 75 75 75 72 71 73 73 63
22 20 14 13 22 31 34 38 42 44 48 50 53 54 55 55 56 57 59 60 60 61 64 66 73 75 74 74 73 69 71 65 64 64 75 77 77 73 71 74 73 74 71 73 74 73 74 67 70
23 21 20 16 11 17 31 36 38 42 46 48 51 53 55 55 56 57 59 60 61 61 62 66 73 75 76 75 74 75 72 71 63 66 68 66 69 70 73 72 76 74 73 73 73 74 73 75 70
23 22 20 17 12 10 17 30 36 41 44 46 48 52 54 55 55 57 58 58 61 62 64 67 73 75 75 74 73 73 74 75 75 73 66 68 63 64 75 76 76 73 75 74 74 75 75 73 70
25 22 21 23 14 10 13 18 30 36 44 49 53 50 52 54 54 55 57 59 62 63 65 67 71 74 75 74 75 74 75 67 67 70 66 64 62 64 76 74 73 74 74 74 76 72 71 75 71
25 24 21 20 19 15 10 11 15 32 36 45 45 45 50 53 54 57 57 58 61 64 66 68 71 73 74 72 75 75 74 72 67 71 74 68 71 65 68 72 73 73 73 75 76 70 75 74 74
23 25 21 20 24 23 17 19 10 19 29 35 39 42 50 55 54 55 58 59 60 61 63 67 69 72 73 73 74 73 74 75 73 73 75 73 73 74 70 72 71 73 74 74 77 73 74 75 71
21 23 26 25 20 21 21 18 24 23 22 31 35 40 43 49 52 54 57 59 60 61 62 64 67 70 71 72 73 73 73 73 73 74 75 75 75 75 75 74 73 73 73 74 77 77 74 74 75
18 17 17 25 29 23 22 20 22 23 20 26 34 38 39 43 49 53 54 57 60 61 62 63 64 65 69 71 73 73 73 72 71 73 74 76 76 75 76 75 75 73 72 75 76 73 72 73 73

GFSSGP_sfc_dewp_060.txt.gz
Dewpoint
70 66 65 64 59 57 56 58 60 55 53 54 56 57 58 58 59 57 66 66 66 67 71 73 76 75 75 75 75 75 76 76 76 75 75 75 74 75 74 74 74 73 73 73 73 73 74 74 73
62 63 66 67 59 55 55 60 57 55 54 55 57 60 57 57 60 62 64 64 64 67 70 71 76 77 75 75 75 75 75 75 75 75 75 75 74 74 73 73 73 74 74 74 73 73 73 73 74
66 63 66 61 57 55 52 58 58 54 54 56 57 59 58 59 61 62 63 62 60 63 67 73 76 77 76 75 76 75 75 75 75 75 75 75 75 74 74 74 74 73 73 73 72 73 73 74 74
59 62 66 60 54 56 59 60 55 55 56 57 58 57 60 61 60 62 63 59 57 64 69 75 77 76 76 75 75 75 75 75 75 75 75 74 74 74 73 73 73 73 73 73 72 72 72 73 72
62 65 60 58 56 57 57 63 59 57 56 63 59 57 59 62 62 61 59 57 58 66 69 72 77 76 76 75 76 75 75 75 75 75 75 75 74 74 74 74 73 73 73 72 72 72 72 72 72
63 63 57 54 55 57 59 62 60 61 62 65 58 59 60 62 61 59 58 58 63 64 66 71 75 75 75 75 75 75 75 75 75 75 75 75 75 75 74 73 73 73 73 73 73 73 73 72 72
57 61 56 56 55 58 59 62 59 56 60 62 59 59 60 60 61 58 58 59 60 62 67 69 71 74 75 75 75 75 75 75 76 76 76 76 75 74 74 74 73 73 73 72 73 73 73 73 72
62 63 56 55 56 58 59 60 64 62 58 61 61 59 59 60 61 58 58 57 60 62 64 69 69 71 72 73 75 75 75 76 75 75 76 75 75 73 73 75 74 72 72 72 73 73 73 73 73
59 60 56 55 53 59 58 57 64 68 60 60 60 61 61 60 59 57 57 58 60 60 63 64 66 70 74 74 74 75 75 75 75 75 75 74 70 71 71 74 75 72 72 72 72 73 74 73 72
56 59 58 58 56 57 58 56 59 59 57 57 59 61 61 59 58 57 56 58 58 57 59 61 65 68 70 68 74 74 73 72 72 71 73 73 75 72 69 73 75 73 73 72 72 73 72 72 71
52 53 59 56 56 56 56 59 62 57 55 57 60 60 60 58 57 56 55 59 57 57 56 62 67 69 68 71 72 71 72 72 72 74 72 74 73 73 71 73 71 72 73 69 71 72 74 72 73
49 52 54 54 53 52 56 60 58 63 62 58 61 60 59 58 57 55 54 58 57 58 57 61 65 72 69 69 71 71 74 71 69 71 74 76 72 71 71 73 75 72 73 73 70 73 72 70 71
44 48 51 53 54 53 56 60 61 64 65 63 61 60 59 58 57 57 55 56 57 55 59 62 66 73 73 74 74 71 69 70 70 71 74 71 73 73 72 73 72 71 72 71 71 71 72 70 69
41 41 46 53 54 55 53 55 56 63 62 60 60 59 59 58 57 57 57 57 59 57 61 65 66 71 73 73 74 71 70 69 69 69 71 72 75 74 73 72 72 71 72 74 73 70 71 66 69
33 38 42 51 53 57 55 56 55 63 64 59 59 59 58 58 57 57 58 58 59 59 62 65 67 68 73 73 75 75 71 69 69 71 74 74 73 75 77 73 75 74 68 75 71 71 70 69 68
30 35 35 44 53 50 53 51 57 64 60 58 59 59 59 57 55 57 58 58 59 60 65 65 61 66 70 72 76 71 74 72 73 73 73 74 75 77 73 73 71 72 76 67 67 71 67 69 67
26 28 34 38 52 50 47 53 56 61 58 56 57 58 58 59 57 58 57 59 59 64 67 66 68 68 70 75 74 69 74 73 69 73 72 76 75 76 73 71 72 76 72 73 69 72 71 63 68
22 24 26 34 46 48 46 51 58 60 58 56 56 57 58 57 57 58 57 58 60 64 67 67 69 72 73 74 76 73 71 72 76 74 74 76 76 75 76 75 76 77 70 72 72 68 70 69 65
22 17 20 24 42 47 45 53 54 53 55 57 55 56 57 57 58 59 58 58 60 64 66 69 71 73 72 72 71 71 69 69 74 73 74 77 77 76 78 77 75 74 69 72 73 71 68 67 68
26 22 16 22 37 45 50 53 54 50 52 56 54 55 56 56 57 59 58 58 59 63 66 70 72 73 72 72 73 73 70 70 70 73 75 75 76 76 76 77 76 73 73 74 74 70 69 71 69
19 18 18 22 30 41 42 51 52 53 59 62 53 55 56 57 57 59 59 59 59 64 66 69 72 73 72 74 73 75 76 73 69 73 73 75 76 76 77 77 77 77 76 75 74 72 74 71 68
19 17 16 17 24 29 42 43 51 55 58 63 54 53 54 56 58 59 59 59 59 64 66 69 72 74 72 75 72 75 72 72 70 73 72 74 76 76 76 77 77 78 74 76 75 75 74 68 70
21 21 18 15 16 22 30 34 43 56 56 56 55 54 52 56 57 59 59 60 59 64 65 68 71 74 73 73 75 72 73 70 73 70 71 75 78 77 74 76 77 77 77 77 77 75 75 75 70
20 19 22 20 13 12 19 28 31 49 51 55 57 58 53 54 57 59 60 61 60 62 65 68 71 73 73 73 73 75 72 74 72 72 70 73 73 75 77 76 77 78 77 75 77 77 76 76 76
21 19 19 18 15 12 12 15 32 39 51 54 56 60 55 55 57 59 60 61 61 62 65 67 71 72 73 73 71 74 73 73 75 76 71 71 71 71 75 77 77 76 78 78 77 77 77 77 76
20 20 19 21 17 14 18 13 14 28 39 54 56 56 56 54 55 57 60 61 62 62 64 66 70 71 72 73 71 73 75 70 71 74 70 74 70 70 75 76 76 77 77 77 77 77 76 76 76
24 22 19 18 18 18 16 16 16 18 28 43 51 54 59 59 58 57 59 60 63 63 64 67 70 72 73 72 73 71 73 73 69 74 75 72 75 73 74 75 76 76 77 77 77 75 76 76 77
17 21 21 21 22 23 19 24 16 23 25 36 50 52 57 59 60 61 58 60 62 63 65 66 69 71 73 73 73 72 70 73 73 71 75 73 75 74 76 76 75 76 77 77 77 75 76 76 75
17 19 21 21 23 21 20 21 28 33 28 32 46 53 56 56 62 66 65 59 61 63 64 65 66 71 73 73 73 73 72 71 71 72 70 74 73 78 76 77 76 75 75 77 77 76 76 75 76
18 21 18 20 27 26 23 19 24 28 26 26 28 37 55 58 62 64 63 60 60 61 63 65 66 67 71 73 73 73 73 71 71 69 73 74 75 75 77 76 77 75 75 76 76 75 72 75 75

GFSSGP_sfc_dewp_063.txt.gz
Dewpoint
71 69 66 65 58 57 55 58 59 59 54 55 56 57 59 59 57 55 66 67 68 70 73 74 76 75 75 76 76 76 76 75 76 76 76 74 75 74 74 74 73 73 74 73 73 74 74 74 74
68 65 65 65 57 53 54 61 59 56 57 59 59 58 58 59 61 64 65 67 70 72 73 73 76 76 75 76 76 77 75 75 76 75 76 75 74 74 74 74 74 74 75 74 73 74 74 74 75
64 63 64 61 58 55 53 58 60 56 58 58 60 59 59 60 63 65 65 68 69 71 72 73 77 77 75 75 76 76 76 75 75 75 75 74 74 74 74 74 73 74 73 73 73 73 74 74 74
67 63 65 59 56 58 57 60 63 57 59 60 60 58 60 62 63 63 64 66 68 71 73 76 77 76 76 76 76 75 75 76 75 75 75 74 74 74 73 74 73 73 73 73 73 73 73 73 73
66 64 60 57 58 60 62 63 64 60 62 60 59 58 59 61 62 62 59 65 69 71 73 75 77 77 76 75 76 75 76 75 75 76 74 74 74 74 74 73 74 73 73 73 72 72 72 72 72
62 63 57 55 56 61 61 62 62 61 62 62 59 59 60 61 61 61 60 68 70 71 73 73 76 76 76 76 75 76 75 75 75 75 74 75 75 74 73 73 73 73 73 73 73 73 72 72 71
59 60 56 57 56 59 62 61 61 60 60 58 60 58 60 60 60 60 65 66 67 70 71 73 73 74 75 76 75 75 75 75 75 75 75 75 74 74 73 73 73 73 73 72 72 73 72 72 71
62 62 58 57 56 57 62 62 63 61 61 64 61 58 58 59 60 61 62 64 68 69 70 71 73 73 73 73 75 75 76 75 75 75 75 74 74 73 73 75 75 73 72 72 72 72 73 71 71
60 58 57 56 55 55 60 59 62 67 64 61 62 60 60 60 59 58 60 63 66 66 67 70 71 72 73 73 74 76 76 75 75 75 74 73 70 71 72 74 74 73 73 73 72 73 73 73 73
56 58 55 56 59 56 57 58 59 60 60 63 61 60 61 60 58 57 60 60 62 65 66 67 70 71 71 71 73 73 73 73 74 73 72 72 71 70 71 73 75 72 73 72 73 73 73 72 72
51 53 59 59 59 60 62 61 62 61 57 63 60 60 60 60 56 58 59 59 60 64 65 65 69 70 69 71 73 73 72 72 71 72 72 71 72 70 72 72 71 71 73 70 72 71 71 72 72
49 51 59 58 58 59 61 60 59 63 64 66 61 60 59 58 55 57 57 56 57 60 63 66 67 68 68 71 72 72 72 72 70 70 71 73 71 68 69 71 73 71 71 70 69 72 73 71 70
46 50 55 55 55 60 60 58 60 60 63 66 62 59 58 57 56 57 57 57 56 60 63 64 68 68 70 70 69 69 70 71 70 69 70 71 71 70 71 72 71 70 71 71 69 70 70 69 68
42 41 48 54 56 59 59 60 60 59 65 66 61 58 58 56 56 57 58 57 55 60 61 67 67 68 70 68 70 69 68 69 69 69 68 69 71 71 71 71 71 71 70 70 69 70 71 69 68
33 32 34 53 55 57 59 59 56 63 64 63 60 58 57 57 57 55 58 56 56 60 62 67 66 66 71 68 69 69 69 68 68 69 70 71 72 69 72 72 71 71 72 72 68 69 68 67 67
30 30 31 38 54 56 57 55 59 62 63 63 59 58 57 57 56 56 57 56 58 63 64 64 66 69 69 68 72 69 68 70 70 70 71 72 72 71 71 69 71 70 71 66 64 68 66 68 67
30 26 28 33 52 53 55 56 62 61 64 61 58 58 57 57 58 56 56 58 60 62 63 63 64 67 67 69 70 68 68 69 67 70 70 71 72 72 70 68 70 72 69 68 67 67 66 64 65
29 24 24 28 48 51 52 58 62 64 66 62 58 58 57 57 55 57 56 58 63 62 62 65 66 68 68 70 69 69 68 70 72 72 71 73 71 72 71 71 68 71 68 67 70 63 65 65 64
29 28 23 23 35 49 52 59 61 58 57 61 62 57 56 56 55 57 56 58 63 63 63 66 68 68 70 71 70 69 69 67 71 71 73 73 72 73 71 72 71 71 66 68 70 68 67 63 64
26 26 25 24 20 48 52 55 58 57 59 62 61 57 57 56 56 56 57 57 61 64 62 67 68 69 70 69 70 69 69 69 69 72 71 74 73 73 72 70 72 70 69 68 68 68 64 68 64
24 25 23 21 20 48 52 52 53 56 58 62 64 60 59 56 56 55 56 57 61 62 65 67 69 69 70 69 70 72 70 69 68 71 71 73 74 73 74 72 72 70 72 71 69 68 70 66 66
21 22 19 16 17 19 47 46 51 53 57 60 62 61 59 56 56 56 56 56 60 62 64 68 70 69 69 71 69 69 68 67 68 70 71 73 73 73 73 73 72 72 70 71 69 71 69 66 64
21 23 22 22 17 15 14 22 50 52 54 57 60 62 59 58 56 56 56 56 61 63 63 68 70 69 68 70 68 69 69 69 69 69 70 72 74 73 73 73 73 73 71 71 71 69 71 71 70
22 20 21 21 21 17 14 16 36 50 51 56 57 57 58 56 57 57 56 58 59 63 63 66 71 69 68 69 72 68 69 69 68 68 71 71 74 73 75 73 73 73 73 72 72 72 70 70 71
21 27 19 21 19 18 16 14 14 52 54 52 54 56 60 54 57 58 57 57 58 63 64 65 68 70 68 68 69 72 69 68 70 70 68 70 71 72 73 73 74 73 72 73 73 72 73 71 71
23 19 20 18 20 19 19 20 18 46 56 54 56 58 57 59 56 58 58 57 58 62 64 66 66 68 69 68 68 70 72 68 70 70 70 70 70 70 72 73 73 73 74 73 73 72 73 71 73
22 24 19 18 18 18 20 21 19 20 52 56 53 54 55 62 64 61 59 59 58 61 63 65 67 67 69 69 67 69 72 69 68 69 71 69 70 70 72 74 73 73 74 73 73 72 73 72 73
15 19 19 19 16 18 20 21 24 24 20 50 54 56 60 63 65 65 64 62 61 60 63 64 67 68 69 69 69 66 69 71 69 68 70 69 67 70 72 74 73 74 74 73 73 71 73 72 71
17 17 19 18 21 19 18 20 24 26 32 49 52 56 59 59 62 65 66 64 63 61 61 64 67 68 68 68 70 68 66 70 70 69 67 71 69 72 73 74 74 74 73 74 74 71 73 72 71
14 14 19 20 19 24 26 25 27 26 28 41 50 53 58 57 59 64 64 62 63 61 61 62 65 68 69 69 69 70 68 66 69 69 70 67 70 71 73 73 73 73 73 74 73 72 71 72 72

GFSSGP_sfc_dewp_066.txt.gz
Dewpoint
71 70 68 65 57 57 54 56 61 60 57 56 56 55 58 60 59 53 67 69 71 72 73 74 76 75 76 76 76 75 75 74 75 75 74 75 74 74 74 73 73 74 73 74 74 74 74 74 75
70 68 65 64 55 54 54 58 58 60 59 57 58 58 59 59 63 64 66 69 70 72 73 74 76 76 76 75 76 76 75 75 76 75 75 75 74 74 74 74 74 74 74 74 74 74 74 75 74
68 65 64 61 57 54 53 58 60 59 58 59 59 60 60 61 64 65 68 71 72 72 73 73 76 76 75 76 76 76 75 75 75 75 75 74 74 74 73 74 74 74 74 73 74 74 74 74 73
65 64 64 58 56 57 56 60 62 61 61 61 60 58 61 64 65 66 70 71 71 72 73 76 76 75 75 75 75 75 75 76 75 75 75 74 74 74 73 73 73 73 73 74 73 73 74 73 74
67 63 59 57 57 58 60 62 64 60 60 60 58 58 60 63 65 69 69 71 71 73 74 75 77 77 76 75 75 75 75 75 75 75 74 74 74 73 74 73 73 73 72 72 72 72 73 73 74
62 63 57 55 57 60 62 63 62 61 61 60 59 59 60 63 66 67 70 71 72 73 74 74 76 76 76 76 76 75 75 75 75 75 74 74 74 74 73 73 73 73 73 72 72 72 72 73 73
59 60 56 57 57 60 62 65 61 60 60 59 59 56 59 61 62 68 70 71 72 73 73 74 74 74 76 76 75 75 75 75 75 74 75 74 73 73 73 73 73 73 72 72 72 72 72 72 72
61 61 57 56 56 57 62 62 62 59 59 61 59 56 58 60 66 68 68 70 71 72 73 73 73 73 74 74 75 75 75 75 75 74 74 74 74 73 73 75 74 73 72 72 72 73 73 72 72
61 57 56 54 56 58 62 60 64 66 63 60 63 59 60 63 65 65 67 69 69 71 72 73 73 73 73 73 74 76 75 75 75 74 74 74 71 71 72 73 74 73 73 72 72 73 73 73 72
60 58 56 56 59 58 61 60 62 63 62 60 61 60 60 63 63 65 66 67 67 68 71 71 72 72 72 73 73 73 73 73 73 73 72 71 71 71 72 72 74 73 73 73 73 73 73 72 71
58 55 57 57 59 60 60 61 61 60 61 65 63 59 59 60 61 63 65 65 65 67 69 70 71 72 71 72 73 73 73 73 72 72 71 71 71 71 71 72 71 71 72 71 71 69 71 69 71
52 52 52 58 60 61 58 62 60 63 65 66 65 59 59 57 60 61 62 63 65 66 67 69 71 70 70 72 72 72 72 72 71 70 71 71 70 69 71 71 72 71 71 70 71 71 71 71 71
48 49 51 56 60 61 62 60 60 61 66 66 64 60 59 58 59 60 61 62 65 65 65 68 69 69 70 72 71 72 71 71 70 70 71 71 69 69 71 71 70 70 71 70 67 69 69 70 67
46 44 42 58 60 61 59 59 60 59 64 64 63 59 59 57 59 58 58 59 63 64 64 67 68 69 71 71 70 69 69 70 69 69 69 70 71 70 71 70 70 70 70 71 69 69 70 69 68
41 34 34 56 60 59 60 59 57 63 65 64 63 59 58 57 58 57 56 56 61 63 65 67 68 69 70 69 69 67 68 69 69 68 66 70 71 70 71 69 70 69 70 70 68 69 70 68 66
34 31 29 52 56 59 58 55 61 62 64 63 60 58 58 57 57 58 58 59 62 63 66 66 67 69 67 68 69 69 69 69 69 70 69 72 71 70 71 70 70 71 71 69 66 68 66 66 67
32 29 27 32 55 57 56 56 60 64 63 62 60 57 57 57 57 58 57 60 61 64 65 65 67 68 67 71 68 68 69 69 69 70 70 72 72 72 69 69 70 71 70 67 65 67 66 65 65
30 29 26 26 46 56 56 58 60 62 63 62 61 58 57 56 57 57 57 61 62 64 64 65 68 67 67 69 68 67 69 69 69 69 70 72 72 70 70 68 69 69 67 67 69 63 65 65 64
30 28 28 29 29 54 55 60 59 63 60 62 62 60 57 56 57 56 57 61 62 63 63 65 66 66 69 68 69 67 67 69 71 70 71 72 72 72 71 71 70 69 67 68 67 66 66 63 64
31 29 27 27 35 47 56 58 59 62 59 61 61 59 59 57 57 56 58 60 61 62 64 64 66 66 69 68 69 68 68 69 71 71 72 72 72 72 71 71 71 69 66 69 66 64 64 67 63
32 29 28 26 46 56 56 57 59 61 58 61 62 62 62 58 57 55 59 60 60 61 64 65 66 66 69 69 70 71 69 68 69 70 70 73 72 73 72 71 71 70 69 69 67 67 67 64 65
27 26 24 22 18 36 52 49 55 56 56 62 63 63 62 59 56 56 57 61 60 60 63 66 67 67 69 68 68 69 67 65 66 69 70 71 73 72 73 72 71 70 70 70 69 71 68 64 63
29 25 23 25 21 17 33 36 43 54 56 60 62 62 62 62 58 55 56 60 61 61 62 68 68 67 68 68 67 68 68 67 67 69 69 71 73 72 72 72 72 70 69 70 70 69 70 69 68
23 23 20 22 21 18 18 15 32 51 52 58 62 60 61 60 59 56 56 59 60 63 63 68 68 67 68 69 68 67 68 68 68 68 69 71 72 72 72 72 72 71 71 71 71 71 70 70 70
21 19 18 18 17 17 20 16 15 51 52 56 60 60 59 58 58 56 56 58 60 61 63 68 68 67 67 68 70 67 68 68 68 68 69 69 71 72 72 71 72 71 71 71 71 71 71 69 70
24 18 18 16 16 20 21 16 16 32 51 53 58 57 57 58 56 57 55 57 60 61 62 66 68 67 67 67 67 70 69 68 68 69 69 69 70 71 72 72 72 72 72 72 72 71 71 71 71
15 21 21 18 26 17 19 21 24 27 45 52 53 56 57 58 58 57 56 57 61 61 62 63 68 67 66 66 66 67 70 70 68 69 69 70 69 70 72 72 72 72 73 71 72 72 71 72 71
15 18 14 19 18 17 20 20 22 30 41 52 51 56 57 58 63 59 58 58 60 62 62 63 65 67 68 67 66 66 67 70 68 69 69 70 69 70 71 73 72 72 72 72 72 71 71 72 71
15 13 15 17 21 18 17 19 28 39 41 44 53 55 54 61 62 62 63 63 61 62 63 63 64 65 68 68 67 65 65 67 71 68 67 69 69 70 70 72 72 72 72 71 72 70 70 71 70
16 15 15 17 16 22 22 23 36 38 40 43 52 53 54 60 61 62 62 63 63 60 62 63 65 65 65 68 68 67 65 66 68 70 67 67 69 70 72 72 72 72 72 72 72 71 71 71 71

GFSSGP_sfc_dewp_069.txt.gz
Dewpoint
71 70 68 64 56 57 53 56 60 59 57 56 54 55 57 60 58 52 66 70 68 70 73 74 76 75 75 75 75 74 73 75 75 74 74 74 74 73 73 73 73 74 74 73 74 74 75 75 74
70 68 66 64 55 53 54 56 58 60 61 55 57 58 59 59 63 65 67 70 70 72 73 74 76 76 75 75 75 74 74 75 74 75 75 74 74 74 73 74 73 73 73 74 74 74 74 74 74
69 66 64 61 57 54 54 58 60 60 59 58 60 61 61 61 64 65 69 70 71 72 73 73 76 76 75 75 75 75 74 75 74 75 74 74 74 74 74 74 73 73 73 73 73 74 74 74 73
64 64 64 58 56 57 56 59 61 61 61 62 61 60 63 64 64 68 69 71 72 72 73 75 75 75 75 75 75 75 74 75 74 74 74 74 74 73 73 73 73 73 73 73 73 73 73 73 73
67 63 59 57 57 58 59 59 61 61 61 61 60 60 62 65 69 70 70 71 71 72 73 73 76 75 75 75 75 75 75 75 74 74 74 73 74 73 73 73 72 72 72 72 72 73 74 73 73
62 63 57 55 56 58 61 62 63 62 61 61 60 60 61 68 69 70 71 71 72 73 74 74 75 75 75 75 75 75 74 75 74 74 74 74 73 73 73 73 73 72 72 72 72 73 73 73 73
60 60 55 56 57 59 62 66 62 60 59 59 60 58 64 66 68 70 71 71 73 73 74 74 74 74 75 75 75 75 75 75 74 74 74 74 73 73 73 73 73 72 72 72 72 72 73 73 73
62 62 57 56 56 57 62 63 62 60 59 59 59 59 62 65 69 70 70 72 73 73 73 73 73 74 73 73 75 75 75 75 74 74 73 73 73 73 73 74 74 72 72 72 72 72 73 72 73
62 59 54 54 56 59 62 61 65 65 59 56 63 60 63 67 69 69 69 69 71 72 72 72 73 73 73 73 73 74 75 74 74 73 74 73 71 71 72 73 73 73 72 72 72 72 72 72 72
61 58 56 57 59 60 61 61 63 61 60 60 59 61 66 67 67 67 67 67 69 70 72 72 72 72 73 73 74 73 73 73 73 72 71 71 71 71 71 72 73 72 73 73 73 72 73 72 70
61 56 57 57 59 61 60 61 63 61 61 62 59 61 64 65 66 65 66 67 69 70 72 71 71 72 72 73 73 73 73 73 72 71 71 71 70 71 71 71 71 71 72 71 70 71 70 70 71
55 54 58 56 60 60 60 62 61 61 64 64 64 62 63 63 64 65 64 65 67 69 70 71 71 71 71 73 72 72 72 72 71 70 70 70 70 70 70 70 70 70 70 69 70 70 70 70 69
53 52 50 51 59 60 61 60 61 63 67 67 63 61 61 62 64 64 64 65 66 67 69 70 71 70 71 72 71 71 71 72 71 70 71 70 69 69 70 70 71 70 70 69 67 68 68 69 68
48 48 46 45 59 61 59 60 59 62 66 66 66 60 59 61 61 62 63 64 65 66 67 69 70 69 71 71 70 71 71 71 70 70 70 70 69 69 70 70 69 69 69 70 68 68 68 69 68
47 45 37 59 60 60 60 57 57 61 63 65 62 58 58 60 60 60 62 64 65 65 66 68 69 69 70 71 70 70 70 70 69 69 69 70 70 69 70 69 68 68 69 69 69 68 69 69 67
34 32 28 58 59 59 59 55 59 64 62 61 61 58 59 59 59 59 60 64 64 64 65 67 68 69 69 70 70 68 68 69 68 68 67 71 70 70 70 68 69 70 70 69 69 67 68 66 66
32 30 29 52 58 58 58 56 60 64 63 62 61 58 58 57 58 58 57 61 63 64 66 67 68 69 68 68 68 68 68 68 68 69 70 71 70 71 70 69 69 70 70 69 65 67 66 66 65
31 30 29 29 54 56 57 56 60 63 63 62 61 59 58 56 57 58 57 60 63 65 66 66 67 68 68 70 67 67 69 68 69 69 70 72 71 71 68 69 69 69 67 67 67 64 65 65 65
31 29 29 29 35 54 55 58 59 62 62 62 61 58 57 57 57 58 58 62 62 64 65 65 67 66 68 68 66 67 67 68 69 69 71 72 71 70 69 68 69 68 67 68 66 64 64 63 63
32 32 30 30 39 43 51 58 58 62 61 62 61 58 57 57 56 57 58 61 62 64 64 66 66 66 68 67 68 68 68 69 70 70 71 71 71 71 70 70 70 66 66 67 65 64 66 65 64
32 31 31 30 42 56 56 55 57 60 60 60 62 63 60 57 56 56 59 60 62 63 63 66 66 66 68 67 69 69 68 68 69 70 70 72 71 72 71 70 71 70 68 67 64 65 65 62 64
32 32 31 26 21 19 52 45 56 57 59 59 61 62 62 59 57 56 58 60 61 62 63 65 66 66 68 68 68 68 67 65 67 69 69 71 72 72 71 71 70 70 69 68 68 69 66 63 61
32 33 26 23 20 38 40 36 43 56 55 57 60 62 62 61 59 56 58 59 60 61 63 64 66 65 67 67 67 68 67 66 66 69 69 70 72 72 72 71 70 70 69 69 69 69 68 68 66
29 24 21 22 20 17 21 20 30 53 53 55 58 62 61 60 59 56 58 59 60 61 63 64 66 66 67 68 67 68 68 67 67 67 68 70 71 71 71 72 71 70 69 70 69 69 69 69 69
21 19 17 17 16 16 19 16 17 43 53 53 56 61 61 60 60 58 57 59 59 60 62 66 66 65 66 67 67 66 67 68 68 67 68 69 70 71 71 71 71 70 70 70 70 70 70 69 69
21 19 17 14 16 18 21 17 17 23 40 53 56 58 61 60 60 59 56 59 59 60 61 65 66 65 66 67 67 67 66 67 68 68 68 69 70 71 71 71 71 71 70 71 71 71 71 70 70
17 19 21 19 19 16 18 19 23 37 43 52 55 58 61 59 59 59 56 57 59 61 61 64 66 65 66 66 67 68 67 66 67 69 68 69 69 71 71 72 71 72 71 71 71 70 70 70 70
15 16 17 19 16 15 18 19 22 37 39 52 52 57 59 61 59 59 57 57 59 60 61 63 65 65 65 66 66 67 69 69 68 68 70 69 70 70 71 72 71 71 72 71 70 70 70 70 70
16 15 15 17 19 17 17 20 33 38 40 42 50 53 56 56 59 61 60 57 59 60 60 62 64 65 65 65 65 65 66 68 69 68 68 69 70 70 70 72 72 71 71 72 71 70 70 70 70
17 16 14 12 14 19 21 27 29 32 39 52 57 58 57 57 59 62 62 61 61 62 61 62 62 65 65 66 65 65 65 66 69 69 68 67 68 69 70 70 72 71 71 71 71 71 70 70 70

GFSSGP_sfc_dewp_072.txt.gz
Dewpoint
71 70 68 64 55 56 52 55 60 58 57 56 54 54 55 59 57 51 66 68 67 70 73 74 75 75 75 74 74 73 75 75 74 74 74 73 73 75 74 72 74 74 74 74 74 74 74 74 74
70 68 66 64 54 53 54 57 59 60 60 54 55 59 59 60 64 64 67 66 67 72 73 74 76 76 75 75 74 73 74 74 74 74 74 74 73 73 74 73 73 73 74 73 73 74 74 74 74
69 67 64 61 56 53 53 58 60 61 57 55 60 62 62 61 64 65 68 66 70 73 73 73 75 76 75 75 74 74 75 74 74 74 74 74 74 74 73 73 73 73 73 73 74 73 74 73 73
65 65 63 58 55 57 57 59 62 60 61 62 61 60 63 65 63 68 68 69 72 73 73 75 75 75 75 75 74 74 75 73 74 73 73 73 73 73 73 73 73 73 73 73 73 73 73 73 73
67 63 58 57 57 59 58 59 61 61 61 62 61 60 61 67 69 69 69 70 72 72 73 73 76 75 75 75 75 74 74 74 74 74 73 73 73 73 73 72 73 73 72 73 73 73 73 73 73
62 62 56 54 57 60 61 60 61 62 63 62 60 61 64 68 68 69 70 71 72 72 73 73 75 75 75 75 75 74 74 74 74 73 73 73 73 73 72 72 71 71 72 73 73 73 73 73 73
59 59 55 56 56 57 61 65 63 61 61 60 62 60 65 67 69 70 71 71 73 73 74 74 73 74 75 75 74 74 74 74 73 74 73 73 73 73 73 73 72 71 71 72 73 73 73 74 74
62 62 57 56 56 56 62 63 63 61 59 61 62 60 63 66 70 70 71 72 73 73 73 73 73 73 73 73 74 74 74 74 74 73 73 73 72 72 73 73 73 72 72 72 73 73 72 73 74
63 59 55 54 56 59 62 61 66 66 58 59 62 62 65 69 70 69 70 70 71 72 72 73 73 73 73 73 74 74 75 73 74 73 73 73 72 73 73 73 73 72 72 72 73 72 72 73 73
61 57 55 57 59 60 62 62 62 60 57 60 63 66 68 69 67 66 65 65 67 69 72 72 73 73 73 74 73 73 73 73 73 72 71 72 72 72 72 72 73 72 72 71 71 72 73 72 71
61 57 57 57 60 61 61 62 63 61 61 61 62 65 66 66 66 65 65 65 66 68 71 71 72 73 73 73 73 73 73 73 73 71 71 71 71 72 72 72 71 72 73 73 71 71 71 70 71
56 57 57 57 61 62 61 63 62 62 63 62 64 66 66 66 66 66 66 67 68 68 71 71 72 72 72 73 73 72 72 72 71 71 71 71 71 71 72 71 72 72 71 71 71 71 71 71 70
55 54 53 52 60 61 62 60 63 64 64 63 64 65 65 65 65 65 66 67 69 68 70 71 71 71 72 72 72 72 72 72 71 71 71 71 70 70 71 71 72 71 71 70 69 71 69 70 69
50 50 49 48 57 60 59 61 60 65 65 64 63 63 63 64 64 64 64 65 67 69 69 70 71 71 71 71 71 71 71 72 71 71 71 71 70 70 71 71 71 71 71 71 70 70 69 70 69
46 42 41 60 60 59 60 58 58 64 66 65 64 63 62 62 64 64 63 64 66 67 69 70 70 70 71 71 71 71 71 71 71 70 71 71 70 70 71 71 71 70 71 71 70 70 70 69 68
33 32 29 58 59 60 59 54 60 64 63 64 62 61 61 62 62 63 63 64 65 66 68 69 70 69 70 71 71 71 70 71 70 70 69 71 71 71 71 71 71 70 70 70 70 68 69 68 67
33 31 28 50 59 59 59 55 61 64 62 63 62 59 59 60 61 62 63 64 65 65 67 69 69 69 70 70 70 70 70 70 70 70 69 71 72 71 71 70 71 71 72 70 68 69 68 68 67
32 29 29 29 56 58 57 56 61 64 64 61 59 58 58 59 59 60 61 64 65 65 67 68 68 69 69 70 69 69 70 70 69 70 70 72 71 71 71 70 71 71 70 69 68 69 68 68 67
31 29 30 30 42 54 55 55 59 62 63 62 59 58 58 57 59 59 59 63 64 65 66 67 68 69 69 69 67 68 68 69 69 70 71 72 72 72 69 70 70 70 69 69 69 67 68 66 66
32 30 30 31 33 43 48 55 59 61 62 62 62 59 58 57 58 58 58 60 63 65 66 67 68 68 69 69 68 68 69 70 70 71 71 73 73 71 70 70 72 69 69 69 69 68 68 66 66
33 32 30 31 31 56 55 54 56 59 61 60 62 62 59 58 57 57 58 60 62 64 65 66 68 68 69 69 69 69 69 69 70 71 71 72 72 73 72 72 72 69 70 68 68 68 68 66 66
32 33 33 32 24 23 51 44 53 57 59 59 60 62 62 58 57 57 58 60 62 64 65 66 67 67 68 69 69 68 67 67 69 70 71 72 73 73 73 72 72 71 70 70 69 70 69 67 66
32 33 32 30 23 39 39 35 42 56 55 57 59 60 62 62 58 57 58 60 62 64 64 66 67 67 68 68 69 68 67 68 68 70 70 71 73 73 72 72 72 71 70 71 71 71 70 70 67
30 23 21 21 20 16 27 24 22 50 52 53 57 59 60 62 60 58 59 60 61 63 64 65 67 67 68 68 68 68 68 67 67 68 69 70 72 72 73 73 73 72 71 71 71 71 71 71 71
23 21 18 17 16 16 19 19 21 26 34 45 52 57 59 61 61 60 58 59 61 62 63 64 66 66 67 68 68 68 68 68 68 68 69 70 70 72 72 73 73 72 72 71 72 72 72 71 71
21 21 18 14 17 18 22 18 28 35 41 51 53 58 60 60 60 60 57 59 60 62 62 64 65 65 66 68 68 68 69 68 69 68 69 69 70 71 73 73 72 73 72 71 72 71 72 72 71
19 21 23 19 21 16 19 23 26 35 41 46 53 58 59 62 61 60 58 59 60 61 62 64 65 65 66 67 68 68 68 68 68 70 70 69 71 71 73 73 73 73 72 72 72 71 72 73 72
16 18 18 19 16 15 19 27 30 31 35 49 56 58 58 62 61 61 59 58 60 60 61 63 65 65 65 66 67 67 67 68 68 69 70 70 71 71 73 73 73 73 73 73 73 72 72 72 72
16 15 15 19 19 17 17 27 32 33 44 53 54 57 60 58 61 61 61 58 60 60 61 62 64 65 65 66 67 67 68 68 68 68 69 70 71 71 72 73 73 72 72 73 72 72 72 72 72
18 18 15 16 14 19 23 23 44 51 53 52 54 57 59 61 60 62 64 62 62 62 62 63 63 65 65 66 67 67 67 69 69 68 69 70 70 71 71 72 73 73 73 72 73 72 72 71 71

GFSSGP_sfc_dewp_075.txt.gz
Dewpoint
70 69 66 64 56 56 53 56 60 59 57 55 54 53 53 53 55 53 64 65 65 68 70 72 76 75 75 74 73 75 74 75 74 73 73 73 75 73 73 74 74 74 74 74 74 74 74 75 74
69 66 66 65 55 53 54 57 57 59 57 55 56 54 58 58 62 63 63 65 66 68 69 71 76 77 75 74 74 75 74 75 74 75 74 73 73 73 73 73 74 73 74 74 74 74 75 74 74
67 67 65 62 57 53 53 59 60 60 55 56 59 60 61 60 63 62 64 65 67 69 70 72 75 76 75 75 74 75 74 74 74 73 73 74 74 73 73 73 73 74 74 74 74 74 74 73 73
65 65 64 58 55 58 57 60 61 56 59 62 60 60 62 64 61 65 64 66 67 69 69 74 75 75 75 75 74 75 74 74 74 74 74 73 73 73 74 73 73 73 74 74 74 73 73 73 73
66 64 59 57 57 59 59 60 61 57 61 61 60 59 61 64 68 64 64 66 66 68 70 72 76 75 75 75 75 75 74 74 74 74 74 73 74 73 73 73 73 73 73 73 73 73 73 74 75
62 63 56 53 56 59 60 61 60 62 63 61 59 60 63 67 65 64 64 66 67 68 69 71 75 75 75 75 74 74 74 74 74 73 73 73 73 73 72 72 72 72 73 73 73 73 73 74 75
59 60 55 56 55 58 61 62 62 62 62 61 60 60 64 65 65 65 65 68 68 69 70 71 71 75 75 75 74 74 74 74 74 74 74 73 73 73 73 72 72 72 73 73 73 74 74 74 74
62 62 57 56 55 53 62 63 64 61 60 63 62 59 61 65 66 66 67 68 69 69 69 70 71 72 72 72 74 74 74 74 74 73 74 73 73 72 72 73 73 72 73 73 73 73 74 74 74
63 59 55 54 55 59 62 61 66 66 60 59 61 61 62 66 66 65 68 69 69 69 70 71 71 73 74 73 73 74 74 74 73 73 75 73 72 71 70 73 73 72 73 73 73 73 74 73 73
61 59 55 57 59 60 62 63 62 59 59 62 62 64 66 67 65 65 66 66 67 69 69 71 71 72 72 71 74 74 71 73 74 73 73 72 73 71 70 72 72 72 72 72 72 73 73 69 69
61 58 57 57 60 61 62 62 63 57 58 61 63 64 65 65 63 65 65 66 66 69 69 70 72 73 72 73 71 71 71 72 72 73 73 73 71 72 71 71 70 71 72 70 70 70 69 70 69
58 57 57 57 61 60 61 62 61 61 62 62 64 65 65 65 63 64 64 64 65 68 70 71 72 73 73 72 70 71 71 71 70 71 74 73 70 72 73 70 71 71 70 71 71 69 71 71 71
56 56 53 54 59 60 62 60 61 63 63 64 65 65 64 64 64 64 64 64 66 67 69 71 73 74 74 74 72 71 71 70 70 71 73 72 70 71 71 71 71 71 71 70 70 71 70 71 69
50 50 46 48 53 60 59 60 60 63 62 64 64 64 65 64 64 64 65 65 66 68 69 70 71 73 74 73 74 72 71 71 71 71 72 73 71 72 70 71 71 72 72 71 71 71 70 70 69
48 41 49 58 56 59 59 59 58 63 62 62 62 62 63 62 63 63 63 64 66 68 69 70 71 72 73 74 72 71 70 70 71 71 73 73 72 72 74 72 71 72 73 73 73 72 72 68 68
35 33 32 57 58 59 59 53 59 64 62 62 61 61 62 63 63 64 63 63 66 67 69 70 69 71 72 72 72 70 71 71 72 72 72 73 73 73 74 72 71 71 72 72 71 70 69 68 67
34 35 30 53 59 59 59 54 61 64 63 62 62 61 60 62 63 64 64 63 64 67 69 70 70 70 71 73 71 71 72 71 72 72 71 73 73 73 73 72 71 73 72 71 69 70 70 67 67
36 31 30 43 57 57 57 55 61 62 62 63 62 61 61 61 62 63 64 64 64 66 69 70 70 71 72 71 72 70 71 71 72 72 71 72 73 73 74 72 73 73 71 71 69 72 70 69 68
32 31 30 30 52 51 51 54 59 62 62 62 62 61 60 60 62 63 63 63 63 65 68 70 70 72 71 70 69 70 69 70 71 71 73 72 74 73 73 72 72 72 71 71 71 70 70 68 70
32 32 31 32 39 41 44 53 58 61 62 61 61 60 60 60 61 62 62 63 63 64 67 70 71 72 71 69 71 70 71 70 70 72 73 73 74 74 72 72 72 72 70 73 72 71 68 68 68
34 33 32 30 31 56 53 55 57 60 62 62 61 60 59 59 59 60 62 62 63 64 67 69 71 72 72 71 71 72 72 72 70 70 71 72 74 74 74 73 73 73 72 69 71 70 71 66 68
35 33 32 32 30 25 53 40 53 58 59 60 62 61 59 59 59 60 60 61 63 64 67 69 71 72 72 73 71 72 69 68 68 70 71 71 74 74 74 74 74 74 71 72 70 70 71 69 66
35 34 33 32 29 35 45 37 45 57 57 58 60 62 61 59 59 59 59 60 61 64 66 68 70 72 72 73 73 70 71 68 69 70 73 73 75 74 74 75 75 74 71 73 74 73 73 70 66
34 28 25 24 23 22 38 30 30 41 44 45 57 60 62 60 59 60 60 61 62 63 65 67 70 72 72 72 72 72 72 71 69 70 70 70 71 73 75 75 75 74 73 73 73 74 73 73 72
30 27 22 20 19 22 24 27 37 42 47 52 55 53 60 62 61 59 60 60 62 63 65 66 69 70 71 71 71 72 72 72 72 72 70 71 70 71 74 75 76 77 75 74 74 74 74 73 72
29 26 22 22 19 20 25 25 34 40 49 57 58 58 56 60 61 60 60 61 62 64 65 66 68 70 70 70 72 73 73 69 69 71 69 70 69 70 74 75 74 75 75 74 74 72 71 73 72
23 25 21 20 21 19 21 26 31 45 52 55 57 59 60 60 59 61 61 61 62 63 65 67 68 69 69 69 71 72 72 72 70 72 72 70 73 70 73 74 75 74 75 75 75 71 75 76 74
22 21 21 23 23 21 24 30 30 48 51 53 55 57 59 61 62 61 62 61 62 62 64 65 67 69 70 69 70 69 70 71 72 72 73 72 72 73 73 74 74 75 75 75 75 73 73 74 72
19 18 22 23 22 20 22 28 47 50 51 52 55 57 59 61 61 63 62 61 62 63 63 64 65 67 67 68 70 70 69 69 71 71 72 73 73 74 74 74 74 74 74 75 75 75 74 74 74
20 19 17 21 25 24 24 28 47 50 50 51 53 55 57 60 62 64 64 62 62 63 63 63 65 65 66 68 69 69 70 70 69 70 70 72 73 74 74 74 75 74 74 75 75 74 72 73 72

GFSSGP_sfc_dewp_078.txt.gz
Dewpoint
69 64 66 64 56 53 53 56 59 58 55 55 53 52 52 52 54 54 60 61 65 66 68 72 76 75 73 74 75 74 75 74 73 73 74 75 73 74 75 74 74 75 75 75 74 74 75 75 74
63 63 66 65 54 52 54 57 58 58 55 55 53 53 53 58 59 59 59 63 65 64 66 69 76 76 74 74 75 74 75 74 75 75 73 74 74 73 74 74 74 74 74 74 74 75 74 74 75
63 65 64 62 58 53 53 59 60 58 54 54 53 58 58 60 59 58 60 63 64 65 66 72 76 75 74 74 75 74 75 75 74 74 74 73 73 73 73 73 74 74 74 74 74 74 73 74 74
63 64 63 59 54 58 56 60 58 54 57 58 57 59 61 63 58 60 62 62 63 64 65 74 76 75 75 74 75 74 75 74 74 74 74 74 74 74 74 74 74 74 74 74 74 73 73 74 74
64 62 59 57 57 59 58 60 56 57 58 57 56 58 60 61 62 61 62 62 63 63 67 70 77 75 75 75 75 74 75 74 74 74 74 73 73 73 73 73 74 74 74 74 73 73 74 75 74
62 62 56 53 56 59 58 61 60 59 61 60 58 60 61 64 61 61 62 62 63 64 66 70 75 75 75 75 75 75 74 74 74 74 74 73 73 73 72 73 73 73 73 74 73 74 74 75 74
60 61 56 55 56 58 59 61 61 60 60 59 60 59 62 60 61 61 62 63 64 65 66 69 70 75 75 75 75 75 74 74 73 74 74 73 73 73 73 71 73 73 74 73 74 74 75 75 74
62 61 56 55 53 57 61 62 63 60 61 62 61 58 59 60 62 62 63 63 65 66 66 68 69 71 70 71 74 74 74 74 73 74 73 73 73 73 72 74 74 73 73 73 74 74 74 74 74
62 59 54 55 54 57 62 60 65 65 62 61 61 58 59 61 62 62 63 64 65 65 65 65 65 69 72 71 73 74 74 73 74 73 73 72 66 68 69 73 73 74 74 73 74 74 73 74 74
61 58 55 56 58 58 61 61 62 61 60 59 60 59 60 61 61 61 62 63 63 64 64 65 68 69 70 66 71 72 70 72 69 70 71 67 68 69 68 72 73 73 73 73 73 73 71 71 66
59 55 54 55 59 61 61 60 60 58 58 62 61 60 60 60 61 62 62 62 61 63 63 66 70 70 68 71 67 66 67 69 70 72 70 69 67 68 65 68 68 69 72 67 70 69 66 69 66
57 55 53 54 58 61 62 60 61 59 61 61 63 60 60 59 59 61 61 62 62 64 64 65 69 70 69 67 66 66 66 66 66 69 71 70 66 67 68 66 68 69 66 69 69 67 70 70 70
56 53 50 49 59 59 61 60 60 62 62 63 62 60 59 59 59 61 60 61 62 63 65 66 69 71 70 70 68 66 66 64 66 67 70 68 66 69 68 70 68 68 69 67 68 69 70 70 68
52 51 45 44 52 56 57 59 59 61 63 63 61 60 60 59 59 61 60 60 62 63 65 67 69 71 70 70 72 70 67 68 66 67 69 71 67 69 68 69 68 69 68 68 69 70 68 67 67
50 44 45 49 47 53 57 58 57 62 62 62 61 60 60 60 60 60 60 60 62 64 66 67 68 69 71 72 72 69 68 67 67 68 73 72 70 72 72 69 70 69 71 72 71 70 69 65 65
46 41 37 51 51 55 57 55 60 62 62 60 59 60 60 59 57 59 59 60 62 64 67 68 65 67 70 71 71 69 68 68 69 69 70 72 73 73 73 70 69 69 70 69 68 68 64 64 63
43 40 35 50 54 56 56 55 61 61 60 58 56 55 54 56 58 61 59 60 61 64 67 68 68 67 68 72 70 70 72 69 69 69 69 73 73 73 73 71 69 72 69 68 67 66 67 64 63
42 38 34 46 54 55 53 54 61 61 62 60 59 58 54 56 59 62 62 60 60 63 66 68 68 69 70 70 71 68 68 68 69 70 69 72 72 73 73 70 71 71 68 66 67 70 68 66 64
41 37 36 42 53 50 47 47 59 62 62 62 61 60 58 57 60 62 63 63 60 62 65 68 69 71 70 69 67 66 66 67 68 69 72 73 72 73 74 70 71 71 70 70 71 69 69 62 66
37 35 33 33 40 39 35 42 53 61 60 61 61 61 60 57 59 61 62 63 60 61 65 68 70 72 71 68 68 67 68 67 68 69 72 72 72 74 72 73 71 72 68 73 72 71 64 63 65
37 38 33 32 32 43 44 50 54 57 61 60 61 61 60 59 58 62 62 62 61 60 64 68 71 71 71 71 70 72 72 72 69 69 69 71 72 73 74 73 71 73 71 66 72 70 70 61 67
33 37 34 30 30 34 43 42 52 55 60 61 60 60 59 59 60 61 62 62 62 61 63 68 71 71 71 73 71 73 68 65 65 67 68 70 73 72 73 73 73 74 70 71 70 69 70 70 62
32 36 35 31 30 28 34 34 46 53 53 59 60 60 59 59 59 60 61 62 62 62 63 66 71 73 71 73 73 70 71 66 66 66 73 73 74 72 71 73 74 74 70 73 73 72 73 67 64
35 34 34 31 27 26 32 32 36 44 47 48 53 59 61 60 59 60 61 61 61 63 64 66 70 73 73 73 73 73 72 71 66 68 68 68 69 70 73 72 73 74 72 73 72 72 73 72 71
34 28 27 27 22 21 31 29 41 46 53 55 56 57 57 61 60 60 60 61 62 62 64 66 69 72 72 72 73 73 73 73 72 73 65 69 67 67 73 74 73 71 75 75 74 76 72 72 68
32 26 21 26 20 20 29 30 39 50 54 57 58 58 52 59 60 59 60 61 62 63 64 66 68 71 72 72 73 74 74 70 69 70 66 66 66 68 72 74 72 72 73 73 74 70 68 71 68
31 26 23 21 21 20 24 37 43 48 52 56 57 59 60 57 60 60 61 61 62 63 65 66 68 70 71 70 72 73 74 73 69 71 70 68 71 67 71 73 73 72 72 73 74 70 71 72 72
27 28 23 22 25 23 23 32 38 48 51 54 55 58 61 60 62 60 61 61 62 62 64 66 67 69 70 70 70 70 72 73 73 71 71 71 69 72 70 73 73 73 73 74 75 71 72 73 70
22 24 25 21 21 21 23 30 49 49 52 53 55 57 60 62 63 64 61 62 62 62 63 64 66 68 69 70 70 70 70 71 72 71 71 72 71 72 73 74 74 74 73 73 75 74 72 73 72
22 24 26 22 27 23 23 38 48 50 51 52 54 56 58 60 61 63 65 65 62 63 63 63 64 64 67 69 71 70 72 71 69 71 71 72 72 72 73 74 75 72 72 73 75 73 70 72 71

GFSSGP_sfc_dewp_081.txt.gz
Dewpoint
69 64 64 63 58 52 52 56 57 55 52 51 50 49 50 56 56 54 60 62 65 65 67 71 75 74 75 75 74 75 73 73 73 73 73 73 74 75 75 75 75 75 75 74 74 75 75 74 75
61 60 63 64 55 53 52 59 57 57 54 52 51 50 55 55 57 57 59 63 63 63 64 68 76 74 75 75 74 75 74 74 74 73 74 74 73 74 74 74 75 75 75 75 74 74 75 75 75
65 61 64 62 59 54 55 59 58 54 52 51 52 55 58 54 56 57 61 62 61 64 64 71 76 75 74 75 74 74 75 74 74 74 73 74 73 74 74 74 75 74 74 75 74 74 74 74 74
60 63 63 61 56 57 57 59 56 52 54 52 55 57 60 56 56 59 61 61 60 62 67 74 75 74 75 75 74 75 75 74 74 74 74 74 74 74 74 74 74 74 74 74 73 73 74 74 73
61 63 60 57 58 58 59 57 55 55 54 54 55 56 55 58 58 60 60 60 60 64 67 71 76 75 75 75 74 75 75 74 74 74 74 74 73 74 74 74 74 74 74 74 74 74 74 74 74
64 64 57 54 56 58 58 57 58 57 55 57 57 57 59 60 58 59 59 60 62 62 65 69 75 75 75 74 74 75 74 74 74 74 74 73 73 73 73 74 74 74 74 74 74 74 75 74 74
62 62 56 54 56 58 60 62 60 57 55 57 57 56 59 58 59 59 59 62 61 64 64 68 70 74 75 75 75 74 74 74 74 73 73 74 73 72 73 73 74 74 73 74 74 75 75 74 73
60 63 56 53 55 57 60 62 61 57 60 59 59 55 56 59 59 59 60 62 65 62 62 67 68 67 70 71 74 74 74 73 73 73 74 73 73 73 73 75 74 73 73 74 73 74 75 74 73
60 60 55 54 54 58 61 61 63 64 59 59 59 55 57 58 58 58 59 63 64 61 62 64 68 70 73 71 72 74 73 74 74 72 73 74 70 69 70 75 74 74 74 74 74 74 75 74 74
59 60 55 57 55 59 59 60 60 60 59 59 57 55 57 58 58 57 59 61 60 59 59 62 67 67 70 64 72 71 70 73 71 71 72 72 70 68 66 73 74 73 74 74 73 73 74 75 68
59 55 55 58 57 59 59 59 60 59 59 60 56 56 57 58 57 56 57 57 57 59 62 67 70 73 67 68 70 71 66 69 72 73 68 67 67 66 65 69 69 70 73 69 71 71 71 65 63
55 56 54 58 58 58 59 59 59 59 61 61 59 57 57 57 55 55 55 56 57 60 61 67 68 68 67 65 68 63 64 65 65 66 69 68 64 66 72 67 66 70 70 68 71 66 68 68 66
55 52 49 53 56 59 58 59 59 60 61 62 59 57 56 55 56 56 56 57 59 59 61 64 67 69 68 73 63 64 63 63 65 66 67 71 69 72 72 72 71 69 69 66 69 72 70 70 65
53 53 46 47 52 59 57 58 59 59 61 61 59 57 56 54 55 56 56 57 59 61 62 65 66 68 68 73 71 69 66 64 64 65 67 69 69 73 71 73 73 72 74 72 73 71 74 71 66
51 47 44 46 51 54 58 57 57 61 61 61 57 57 55 54 54 56 56 57 59 61 63 65 66 67 70 70 69 67 66 67 63 66 70 70 70 72 76 70 73 72 70 71 69 70 71 67 63
48 46 41 45 48 53 57 55 59 61 61 60 57 56 55 54 54 56 56 56 59 61 65 66 62 66 68 70 73 71 71 72 73 66 67 70 72 71 74 72 71 68 73 72 71 73 72 64 67
45 40 39 45 50 52 55 57 61 60 58 58 56 56 55 55 54 55 56 55 59 62 66 66 66 65 68 71 69 72 73 72 75 72 72 71 72 72 74 72 70 71 68 68 69 69 67 66 66
39 38 37 44 50 52 55 54 59 60 60 57 57 55 54 53 53 57 56 56 59 63 66 67 65 67 70 70 70 68 66 72 71 74 72 72 73 72 73 69 70 74 70 69 69 74 71 68 65
34 35 44 45 47 51 50 54 57 60 61 61 55 54 52 51 55 58 58 58 59 62 65 68 68 71 69 68 66 64 63 66 71 72 71 72 71 72 73 71 70 70 71 72 69 69 68 66 62
37 36 32 41 45 51 55 52 58 60 60 62 61 58 52 52 57 60 61 59 58 61 64 68 69 71 70 68 69 65 71 63 70 72 71 71 72 73 72 73 73 72 72 71 70 72 69 58 66
37 35 33 33 41 40 35 45 54 57 60 62 63 60 58 55 57 60 62 61 57 59 63 67 70 72 72 72 68 70 71 69 65 70 68 70 71 71 73 72 75 72 74 69 71 69 70 69 62
34 35 32 32 33 34 39 46 49 57 56 62 62 62 59 59 58 59 61 61 57 59 63 68 70 72 71 72 72 76 67 63 65 68 72 72 71 71 71 72 72 73 72 73 70 66 73 72 67
28 33 36 32 30 34 38 42 51 54 54 59 62 62 61 60 58 59 60 62 58 58 62 66 71 73 73 73 76 70 72 70 67 71 74 75 74 72 70 73 73 73 72 74 72 72 73 71 66
29 32 35 33 28 26 28 34 49 49 53 57 61 60 61 62 59 61 61 63 58 59 60 64 71 74 73 73 73 74 72 72 72 69 68 70 70 69 72 71 73 74 73 73 72 73 72 73 73
31 32 30 28 25 22 25 33 46 49 52 53 55 56 64 61 61 60 62 61 59 60 62 64 69 72 73 72 72 73 73 72 72 72 66 71 71 70 74 74 74 72 74 73 73 74 73 72 69
31 30 25 26 21 18 25 35 45 51 54 56 57 56 58 59 60 62 60 61 61 59 62 64 69 72 72 72 75 75 75 70 68 70 73 71 71 72 75 73 72 72 72 73 73 71 70 73 70
31 29 22 19 20 15 30 45 48 51 54 55 57 59 59 53 61 60 61 61 63 62 61 65 68 71 72 71 74 75 75 74 71 73 72 67 74 71 72 71 72 72 72 73 75 70 73 73 73
27 30 23 21 25 21 29 40 40 48 52 55 56 59 62 61 66 67 63 61 63 63 61 64 66 69 71 71 71 71 72 74 73 72 72 72 71 71 72 71 73 72 72 73 75 74 73 73 70
26 27 27 21 22 21 28 39 49 50 53 54 56 57 60 61 65 66 67 67 65 62 63 63 65 67 69 70 72 72 72 72 73 72 72 72 72 72 72 73 74 73 73 73 76 75 74 73 72
23 26 27 23 27 22 23 43 48 52 54 55 55 57 58 60 61 63 65 66 67 68 65 62 63 64 67 69 72 71 73 73 70 72 72 73 74 72 73 74 73 73 72 74 74 72 70 71 72

GFSSGP_sfc_dewp_084.txt.gz
Dewpoint
69 65 65 64 59 56 52 55 58 51 49 48 49 51 54 55 54 55 64 64 65 67 70 72 76 75 75 75 75 74 73 73 74 73 73 75 75 75 76 76 75 75 75 75 75 75 75 75 74
62 61 62 66 58 52 54 57 57 56 49 49 55 55 53 54 57 61 63 64 64 64 65 69 75 76 75 75 75 75 75 74 74 74 74 73 75 74 75 75 75 75 75 75 75 75 75 75 74
68 62 64 62 59 54 56 59 58 53 49 52 56 53 53 54 57 61 63 63 62 63 66 71 76 76 75 76 75 75 75 74 75 74 74 75 75 74 74 75 75 75 75 74 75 75 74 73 73
62 64 62 60 57 57 59 59 54 50 53 56 54 51 54 56 57 60 62 63 64 64 68 74 75 75 75 75 75 75 75 75 75 75 75 75 75 74 75 74 75 75 74 74 73 74 74 73 73
61 64 60 57 57 58 61 56 57 51 55 55 53 51 54 57 58 59 60 64 64 65 68 72 76 76 75 75 74 74 74 74 74 74 75 74 74 74 74 75 75 74 74 74 74 75 74 73 73
63 65 58 55 54 59 58 60 58 57 57 55 51 52 55 58 57 60 61 64 66 65 67 70 75 75 75 75 75 75 74 74 75 75 75 74 75 74 75 74 74 74 74 74 75 74 74 73 73
60 62 57 55 56 58 60 62 57 56 56 55 55 54 55 56 57 60 62 64 61 64 67 69 71 74 75 75 75 74 75 74 74 74 74 74 74 74 74 75 74 74 74 74 75 74 74 73 72
62 63 57 55 55 58 60 61 64 59 58 58 55 54 53 56 58 60 63 68 66 62 64 68 71 70 71 72 74 74 74 74 73 74 74 74 74 73 74 75 75 74 74 74 75 74 73 73 72
62 61 56 56 55 59 61 61 64 64 57 59 56 53 54 56 59 61 59 64 66 63 65 66 68 72 74 73 73 74 73 73 73 73 73 74 72 71 71 75 75 73 75 74 74 74 73 72 73
63 59 56 56 57 59 58 59 61 59 56 57 53 54 54 55 62 61 60 60 60 64 68 72 69 69 70 66 73 73 73 73 73 72 73 74 73 70 69 73 75 74 75 75 75 75 73 74 69
61 54 57 57 57 59 59 59 61 57 57 56 54 54 54 54 57 57 59 58 58 65 67 66 70 71 69 70 71 74 74 72 72 73 74 73 69 70 70 72 72 73 73 71 72 74 72 72 71
59 55 56 57 57 58 58 59 59 60 62 57 55 54 54 53 53 58 60 59 64 65 66 64 69 71 73 70 70 70 71 68 69 72 71 73 73 70 74 73 73 73 72 71 72 72 72 70 68
58 54 55 58 57 57 57 57 59 63 67 60 56 55 53 52 52 54 55 56 64 66 65 65 69 70 75 71 71 69 68 67 66 70 72 72 70 75 71 70 73 71 72 71 71 73 68 71 69
54 52 50 53 57 57 55 60 59 64 67 61 57 54 53 52 51 54 55 57 58 64 64 66 69 72 73 76 76 73 69 68 69 68 70 74 74 76 72 73 72 73 74 71 67 73 74 69 69
52 53 47 50 57 57 57 57 58 60 63 60 56 55 53 52 52 54 55 57 59 62 66 67 67 69 73 75 71 75 71 69 68 70 74 74 74 74 73 71 73 73 76 75 72 74 71 71 68
51 49 43 47 54 56 57 56 59 61 60 57 55 54 52 53 52 54 54 56 60 64 67 68 62 68 70 73 74 70 72 72 72 70 73 75 75 75 76 72 72 73 73 73 71 73 72 70 70
46 43 43 44 52 54 55 59 63 59 58 56 56 54 52 52 54 56 54 57 59 66 68 69 67 68 71 73 75 70 71 71 71 74 71 75 75 75 77 75 72 76 73 74 71 72 72 70 68
39 39 43 43 49 53 55 56 61 60 59 57 57 55 53 52 53 55 54 57 59 65 68 71 67 73 74 73 73 73 71 72 72 73 74 76 76 75 74 76 76 71 75 73 68 74 70 72 63
37 35 45 48 51 52 53 57 57 59 58 58 56 55 53 53 54 54 55 55 59 64 68 70 71 74 73 73 71 70 70 71 72 73 76 74 74 76 77 77 75 71 75 68 75 74 73 71 72
34 34 39 46 49 57 55 56 57 57 57 59 57 55 54 52 54 57 56 56 59 65 68 72 72 73 74 72 75 75 72 72 72 73 75 75 75 76 75 74 75 72 73 75 75 68 73 70 72
30 32 39 42 47 53 53 55 54 58 59 62 63 63 56 52 55 58 58 58 60 65 68 71 73 73 74 75 75 77 74 73 73 73 73 74 75 76 74 76 76 76 76 73 75 75 73 70 71
28 33 41 43 45 47 53 49 57 56 58 61 61 62 62 52 57 60 60 59 59 64 67 71 73 73 73 76 74 77 74 73 71 72 75 75 75 75 75 76 75 74 73 71 74 73 71 74 71
30 34 37 33 32 30 33 35 54 57 58 54 60 62 62 62 57 59 60 61 57 61 64 70 73 74 74 76 75 74 75 71 71 73 76 77 78 76 73 77 77 76 74 73 73 75 76 75 72
31 32 34 35 30 26 34 35 50 54 55 57 59 63 61 63 60 60 61 62 61 62 64 69 73 74 75 74 76 75 75 70 70 72 72 74 76 75 76 76 77 77 72 71 77 76 76 75 77
31 28 28 30 28 25 25 31 49 53 60 61 58 62 63 64 66 62 62 62 61 61 64 69 73 73 74 73 74 75 75 76 75 73 71 73 72 72 75 77 77 76 77 75 77 77 77 76 75
28 26 27 28 24 23 26 31 49 53 61 57 55 61 60 60 67 66 61 63 64 61 64 67 72 73 74 73 75 76 76 73 73 74 75 70 72 73 75 76 76 77 76 75 76 77 75 76 75
28 27 28 25 24 21 37 47 51 53 54 55 57 61 61 65 65 65 64 63 64 61 64 67 72 73 74 73 75 76 76 76 72 75 76 74 74 72 75 73 75 76 76 76 76 75 76 76 76
32 28 26 26 27 24 39 44 44 51 53 55 56 58 60 62 67 67 68 67 64 62 63 67 72 73 73 73 74 74 75 76 76 77 77 78 75 73 72 73 72 76 76 76 76 75 75 75 76
29 28 27 25 23 22 35 45 49 52 54 55 57 58 60 61 64 67 67 66 68 66 64 65 70 72 73 73 73 73 74 75 76 75 76 76 77 74 72 66 70 75 76 76 76 75 74 74 75
27 28 28 26 31 26 43 46 50 53 54 55 55 57 60 61 61 64 66 66 65 66 69 70 68 67 70 72 74 74 75 74 74 75 75 77 76 77 77 75 75 76 75 75 75 75 73 74 74

GFSSGP_sfc_dewp_087.txt.gz
Dewpoint
70 68 66 64 59 57 53 56 60 52 52 53 55 55 55 56 55 55 66 67 69 71 73 73 76 75 74 74 74 73 73 74 73 74 75 75 75 76 76 75 75 75 76 75 75 75 74 74 74
67 64 64 64 57 52 53 57 57 58 55 53 55 57 59 59 62 64 65 67 69 71 72 73 76 75 75 75 74 75 74 75 74 74 75 75 75 76 75 75 75 75 76 75 75 75 74 74 73
68 63 62 61 58 54 54 58 60 57 55 52 53 55 59 60 62 62 65 66 66 67 70 73 76 76 75 75 75 75 75 75 75 74 74 75 74 75 75 75 75 74 75 75 75 73 73 72 71
65 65 64 59 54 57 58 59 60 53 53 54 54 54 60 62 61 63 64 63 67 69 71 75 75 75 75 75 75 75 75 74 74 75 75 75 74 75 75 75 75 74 73 74 74 74 73 73 73
64 65 59 57 55 59 61 62 57 54 52 53 55 55 58 61 62 62 62 66 69 70 71 73 76 76 75 75 75 75 75 75 74 75 75 75 74 74 75 75 74 74 74 74 74 74 73 73 74
61 64 58 55 55 61 62 61 56 53 53 55 55 55 57 61 61 62 64 65 69 70 71 72 75 75 75 75 74 74 74 74 75 75 74 74 75 75 75 74 74 74 73 75 74 73 73 73 73
61 62 57 54 55 60 61 64 61 52 52 54 56 54 56 61 64 65 66 66 67 70 71 72 73 74 75 75 74 74 74 74 74 74 74 75 75 74 74 74 74 74 74 74 73 73 73 73 72
62 63 59 56 57 57 61 62 64 57 54 55 55 54 55 59 63 65 67 67 67 69 70 71 73 73 73 73 74 75 74 74 74 74 73 75 74 74 74 75 76 74 74 74 73 72 71 71 71
65 60 57 56 56 60 61 61 64 64 58 55 55 55 58 61 63 63 64 66 66 67 69 71 71 72 72 72 72 74 74 74 74 73 73 74 71 71 73 75 75 74 73 73 74 73 72 71 71
63 59 60 60 59 60 61 61 62 60 59 57 54 55 59 60 63 62 61 63 65 66 68 70 70 70 71 71 72 72 71 72 72 72 72 71 71 70 72 73 75 74 73 73 73 74 73 73 70
64 58 59 59 60 60 60 60 61 58 56 53 53 54 59 59 59 60 60 62 66 67 68 68 69 69 68 70 72 71 72 72 71 70 71 71 70 71 72 73 72 72 73 72 72 71 70 71 71
61 59 60 59 60 59 59 60 59 63 63 57 53 55 60 59 57 58 59 64 66 66 68 68 70 71 70 70 70 70 71 71 69 72 69 69 70 70 70 73 72 70 70 70 71 71 72 72 71
53 58 59 58 59 59 58 58 61 63 65 61 54 53 60 59 58 58 61 64 66 66 67 67 68 69 69 70 70 70 70 68 67 68 68 70 70 71 70 70 71 71 70 70 66 68 69 68 67
58 57 58 58 58 57 57 58 59 62 61 63 53 53 52 53 57 59 63 64 64 64 67 66 66 69 70 71 69 68 67 65 67 68 70 71 71 71 71 71 71 70 71 70 67 69 70 66 66
58 54 52 56 59 57 62 60 59 62 61 62 53 53 53 52 57 56 63 64 64 64 66 67 68 69 70 67 69 69 68 69 69 70 68 71 71 70 70 68 69 71 72 70 71 71 71 67 66
50 54 52 54 57 59 58 57 61 63 61 60 54 53 52 52 53 56 57 64 64 64 64 63 67 68 68 69 68 68 71 70 68 70 71 72 71 70 70 69 70 71 70 70 69 69 67 65 66
47 48 49 48 56 56 57 59 63 64 61 58 55 53 52 51 54 55 57 59 63 65 65 64 67 66 70 70 69 68 68 68 71 70 71 70 70 72 72 71 70 72 70 70 69 68 67 66 64
43 46 48 48 54 56 57 56 61 61 62 57 56 53 52 52 53 55 57 60 64 66 66 66 67 68 68 71 71 70 69 71 71 70 72 73 72 71 71 73 70 71 70 69 67 67 66 66 63
37 40 47 50 58 56 56 58 61 60 59 57 55 54 51 52 54 54 57 60 65 65 66 66 69 71 70 71 67 69 67 69 72 71 72 70 71 73 72 72 69 70 70 68 71 70 69 69 68
30 36 43 51 58 56 53 56 60 59 59 58 56 54 52 52 53 53 56 61 64 65 66 70 70 70 69 70 70 70 69 70 70 72 73 71 72 72 73 71 71 69 70 71 69 66 68 67 67
27 31 38 46 53 55 54 55 57 59 60 62 63 59 60 54 52 54 54 60 62 65 68 70 70 70 70 70 70 73 71 71 71 72 71 73 73 73 71 72 72 69 70 68 69 70 66 65 68
23 28 31 46 46 44 52 49 53 58 58 60 60 61 62 61 53 55 56 58 62 65 68 70 70 69 68 71 68 69 67 68 68 70 71 71 73 73 72 72 72 73 70 68 69 71 70 65 66
23 31 42 43 43 45 45 48 52 58 57 59 59 61 62 62 62 55 58 58 62 64 67 71 70 69 68 71 71 70 69 69 69 72 71 73 72 73 71 72 72 71 71 70 71 71 70 70 71
24 23 40 40 44 41 41 44 53 55 57 59 60 61 62 63 63 64 59 60 62 64 66 70 70 70 70 71 70 70 70 68 69 69 72 70 72 71 70 73 73 73 70 67 67 71 70 71 70
21 22 31 34 34 31 31 44 52 57 59 57 56 60 61 63 64 65 65 62 61 63 66 68 71 70 71 71 70 71 71 70 70 70 69 70 70 70 70 72 73 72 71 69 69 72 71 72 69
22 29 30 30 30 28 31 46 51 55 59 60 59 61 60 61 63 64 63 64 64 61 66 67 70 71 71 70 71 72 71 72 70 71 70 71 68 70 71 72 73 73 72 72 72 72 72 71 71
26 28 29 26 28 26 47 51 54 56 57 59 61 61 58 59 61 61 61 66 66 62 65 67 70 70 70 71 72 73 72 72 70 70 71 69 70 72 73 72 72 72 73 72 73 72 72 72 71
27 33 25 27 27 25 47 49 51 54 55 57 58 60 61 63 64 63 64 67 68 67 65 68 70 70 71 71 72 72 73 73 73 73 72 72 71 70 71 71 71 72 73 73 72 71 72 71 72
32 33 35 28 29 26 41 47 55 53 55 55 58 60 61 63 66 66 66 66 67 67 68 69 70 71 71 71 72 72 73 73 73 73 73 72 71 71 71 70 67 70 72 72 72 72 71 72 71
32 31 31 29 27 34 44 48 57 56 55 56 58 60 61 62 63 65 66 67 67 66 67 68 68 70 70 71 72 72 73 73 73 73 73 73 70 71 69 65 65 68 71 73 72 71 71 71 70

GFSSGP_sfc_dewp_090.txt.gz
Dewpoint
71 69 68 64 58 57 53 55 58 55 53 55 52 52 51 52 53 53 66 69 70 71 72 73 76 74 74 74 73 73 73 74 75 76 75 75 75 75 75 75 75 75 76 75 74 74 74 74 73
69 66 65 63 56 52 52 58 56 56 55 57 57 59 56 57 62 64 67 70 71 72 73 74 75 75 74 73 73 75 75 74 74 75 75 75 75 75 75 75 75 75 76 75 74 74 74 74 73
66 63 61 60 57 53 53 57 59 55 55 55 57 60 61 61 64 65 69 71 71 72 73 73 75 75 75 75 75 74 75 75 74 74 75 74 75 75 75 75 75 75 75 75 74 74 73 72 72
66 65 64 58 55 57 58 58 58 54 55 57 58 59 62 64 64 67 69 69 69 71 73 75 75 75 75 75 75 75 75 75 75 75 75 75 75 75 75 74 74 75 75 74 73 72 73 73 71
64 65 58 57 56 59 59 60 57 53 56 57 58 59 60 63 66 66 66 67 70 71 73 73 76 75 75 75 75 75 75 75 75 75 75 75 75 75 75 74 74 74 74 74 73 73 74 74 73
61 65 56 54 56 60 61 61 57 56 57 59 58 58 60 63 64 64 66 67 70 71 73 73 75 75 75 75 75 75 74 74 75 75 74 74 75 74 74 75 75 74 74 73 73 73 73 73 73
61 61 57 55 56 58 60 63 55 56 56 57 59 57 61 61 63 66 68 68 70 72 72 73 73 74 75 74 75 75 75 75 74 74 74 75 75 74 74 75 74 74 74 73 73 73 72 73 72
63 63 56 56 56 56 61 62 57 56 55 59 60 58 59 61 64 67 68 70 70 71 72 73 73 73 72 73 74 74 74 74 73 73 74 75 74 74 74 76 76 74 73 73 72 72 72 71 71
64 60 56 56 57 60 62 59 64 59 55 56 57 60 61 64 66 65 67 69 69 70 72 72 73 72 72 72 73 74 74 73 74 73 74 74 72 72 73 75 75 74 73 73 73 71 71 71 71
62 59 58 59 58 60 60 61 62 56 53 55 59 61 63 65 64 65 65 67 66 69 70 71 71 71 72 72 72 72 71 71 72 72 72 71 70 71 72 74 75 73 73 73 73 73 72 72 70
62 60 59 59 59 61 61 61 61 59 59 55 58 60 62 62 62 63 65 65 66 68 70 70 70 71 70 71 71 71 71 71 71 70 71 70 70 72 72 72 72 71 70 71 71 71 70 71 71
59 63 62 60 61 60 59 61 62 61 58 57 59 61 61 61 61 62 63 65 66 68 68 69 69 70 69 71 70 70 71 71 70 69 70 69 70 70 71 72 70 70 71 70 70 70 71 72 71
60 60 60 61 60 60 59 60 62 60 62 58 59 59 60 59 59 61 63 66 67 67 68 68 70 70 69 70 70 69 70 70 70 70 68 69 69 70 70 70 70 69 67 69 66 68 69 68 65
59 59 59 60 59 60 58 61 59 61 60 57 58 57 57 58 58 63 65 65 65 68 68 68 69 69 70 70 69 69 69 66 66 68 69 69 70 70 68 69 70 70 70 69 68 68 68 68 64
55 57 60 58 58 57 59 58 58 60 60 54 58 59 58 57 61 63 64 65 66 67 67 66 67 69 70 70 68 68 67 67 68 70 71 71 70 69 69 69 69 70 72 70 69 69 69 68 65
54 57 54 58 59 59 57 55 60 61 60 60 53 55 56 57 61 64 65 65 65 66 65 66 68 69 69 69 68 69 70 69 69 68 70 70 70 69 69 67 68 70 70 70 68 68 67 66 65
41 49 52 56 57 59 58 56 62 62 61 58 53 52 53 58 62 63 64 64 65 65 65 66 67 68 68 68 68 68 69 69 69 69 72 71 71 71 71 69 69 70 69 69 69 68 67 66 64
33 46 51 51 58 58 57 57 62 61 61 59 53 52 52 54 58 63 64 64 65 64 64 66 66 68 70 68 69 68 69 70 70 69 70 71 71 72 71 70 70 70 69 68 69 66 66 65 62
31 31 34 54 58 55 57 56 59 62 63 62 56 53 52 54 56 62 63 63 64 65 65 66 65 67 69 69 68 67 66 68 71 71 72 72 72 72 72 72 68 69 66 67 69 69 67 68 68
32 31 46 56 55 55 55 55 55 60 61 60 57 54 52 53 55 59 62 63 64 64 65 67 66 68 68 69 68 69 69 69 71 71 71 70 71 72 71 71 69 69 69 70 69 66 67 66 66
29 29 36 50 54 55 54 52 53 58 62 62 61 60 53 53 53 58 62 62 63 64 67 68 69 68 68 69 69 71 70 70 70 71 71 71 72 72 72 71 71 68 68 67 68 70 65 65 66
23 24 26 53 50 47 53 46 53 58 59 60 59 62 61 53 53 57 62 62 62 64 68 69 69 68 68 70 68 69 69 68 69 70 71 72 72 72 71 71 71 71 69 67 67 70 68 65 67
24 24 25 49 47 48 48 49 51 57 58 58 59 62 61 61 62 55 60 62 62 64 68 68 69 68 68 70 70 68 68 68 69 70 71 71 72 73 72 71 71 70 69 67 69 70 69 70 70
22 25 38 46 49 43 44 47 51 53 57 59 60 61 62 62 64 64 64 61 63 64 68 67 67 66 67 69 70 70 68 67 69 70 70 70 71 71 71 72 71 71 70 68 68 71 70 70 70
21 23 28 33 39 38 40 45 47 54 57 59 59 59 61 62 64 64 65 62 62 64 69 68 67 66 67 70 70 70 69 68 69 68 70 70 70 70 70 72 71 71 69 68 66 70 70 70 69
19 21 30 30 33 35 46 44 51 56 58 59 60 60 61 61 63 64 66 66 66 64 67 69 68 67 68 70 70 70 71 70 69 69 69 70 70 69 70 72 72 72 71 71 71 71 70 70 70
19 26 29 31 34 28 48 50 53 57 59 59 59 61 61 60 61 63 66 67 67 65 66 68 70 68 69 70 70 70 71 70 69 70 69 71 70 70 70 71 72 72 72 70 71 71 71 71 70
24 28 28 27 25 25 45 48 48 55 58 59 60 60 62 63 62 63 64 67 68 67 67 67 70 70 69 71 70 71 71 71 71 70 70 70 70 70 71 71 71 71 72 71 71 71 70 70 70
27 29 31 27 29 27 40 46 56 55 57 58 59 60 62 63 65 66 65 67 68 68 68 69 70 69 70 71 71 71 72 72 72 72 72 71 70 70 70 70 71 70 71 72 71 70 70 70 70
32 30 31 27 25 36 44 49 56 57 57 59 60 60 62 62 64 66 66 67 66 67 68 68 69 69 70 70 70 70 72 72 72 72 72 72 70 70 69 69 68 68 70 71 71 70 71 70 70

GFSSGP_sfc_dewp_093.txt.gz
Dewpoint
71 69 68 64 58 55 53 55 59 55 52 50 50 49 50 55 54 50 64 65 71 71 73 73 75 74 73 73 73 73 75 75 74 75 75 74 74 75 75 75 75 75 75 74 73 72 73 73 73
69 67 65 63 55 50 52 57 56 57 55 50 54 56 57 59 63 64 67 70 71 71 73 74 75 74 73 73 73 73 73 74 75 74 75 74 74 75 75 75 75 75 75 74 74 73 73 73 72
68 65 61 59 56 52 53 57 57 56 54 52 59 60 61 62 65 66 69 71 72 72 73 72 75 74 73 74 75 74 73 73 75 74 75 75 75 75 75 75 75 75 74 74 74 74 73 72 72
64 65 64 57 54 56 57 58 58 55 56 58 61 60 62 65 65 68 70 71 72 72 73 73 75 75 75 74 75 75 74 73 74 74 74 75 75 74 74 75 75 75 73 73 73 73 73 71 72
64 64 58 57 55 58 60 59 58 55 56 58 58 59 61 65 69 70 70 71 71 72 73 73 76 75 75 75 75 75 75 75 74 74 74 75 75 74 74 74 74 74 73 72 73 73 72 72 74
63 64 54 54 55 59 61 62 62 59 59 59 59 59 61 67 67 67 69 70 72 73 73 73 75 75 75 75 75 74 75 75 75 75 74 75 75 74 75 74 74 74 73 73 73 72 72 73 72
60 60 56 55 56 58 60 62 60 58 57 57 59 58 62 64 65 66 67 70 72 73 73 73 73 73 74 74 74 74 74 74 74 74 74 75 75 74 75 74 73 73 73 73 73 73 72 72 72
63 62 56 56 57 56 60 61 59 57 58 59 58 58 60 62 66 68 68 70 71 72 73 72 72 73 72 72 74 74 74 73 74 74 74 74 74 74 74 75 75 73 72 72 72 72 72 72 72
66 60 55 56 58 57 61 56 61 60 58 58 60 60 62 65 68 67 69 69 70 71 71 71 72 71 72 72 72 73 73 73 73 73 75 73 72 73 73 74 74 73 72 72 71 71 71 71 72
62 59 57 60 61 59 60 58 57 58 57 59 59 61 63 65 65 66 66 67 69 70 71 71 71 71 71 72 72 71 71 71 72 72 71 71 71 71 73 73 74 73 73 73 73 72 71 72 69
62 59 59 58 60 60 60 61 57 55 58 59 59 62 63 64 64 65 66 67 67 69 71 71 71 71 71 71 71 71 70 70 70 71 70 70 70 72 72 72 72 69 71 71 70 70 69 70 70
59 62 62 60 61 61 60 62 55 58 59 61 62 63 64 63 64 65 66 66 67 69 70 70 71 70 69 71 71 70 70 70 70 70 70 69 70 70 71 71 70 70 70 68 69 70 70 70 71
60 59 61 63 62 61 61 61 59 61 60 62 62 63 63 63 64 65 65 65 67 68 69 69 70 70 69 70 70 69 70 70 70 69 69 69 69 69 70 70 69 68 67 69 67 68 68 69 65
59 60 61 61 62 61 59 61 60 60 61 60 61 62 62 61 62 64 65 66 67 68 68 69 69 70 69 70 69 68 69 68 69 69 68 69 69 69 68 69 69 69 69 69 68 66 69 68 62
59 59 60 60 61 59 60 59 59 60 60 59 60 60 61 60 61 62 65 66 66 67 68 68 69 69 69 69 68 68 68 66 67 69 69 70 70 68 68 69 69 69 71 70 69 69 68 66 64
55 58 54 58 58 59 58 55 60 61 58 58 58 59 59 58 61 64 65 65 66 67 67 68 68 68 69 69 68 68 68 67 69 70 70 69 69 69 67 66 67 70 70 70 68 67 67 66 65
44 52 53 56 59 57 56 55 61 62 59 57 57 57 57 58 62 64 64 65 66 67 66 66 68 68 69 69 68 69 68 68 69 69 70 70 69 70 69 67 68 69 69 68 68 68 66 66 64
35 44 52 52 57 57 57 53 59 60 60 59 56 57 56 58 62 64 64 65 66 66 65 67 68 68 68 68 68 68 69 69 69 70 70 70 71 71 71 70 69 70 69 68 69 67 66 65 63
31 30 43 56 58 56 56 56 58 60 61 61 55 52 55 59 62 64 64 65 65 64 65 66 66 69 68 67 67 67 67 68 70 69 71 70 71 72 71 71 69 68 66 67 69 68 66 67 67
34 31 54 56 57 57 57 55 57 60 60 62 57 53 56 58 62 63 63 64 64 64 65 66 66 68 68 67 68 68 68 69 70 71 71 71 71 72 71 70 67 68 69 69 69 68 65 65 66
30 30 48 53 55 56 54 52 53 57 61 62 61 60 54 56 61 62 62 64 64 63 65 65 66 67 69 68 68 70 70 70 70 70 71 70 70 71 72 71 70 68 68 67 68 69 67 64 66
34 30 30 53 50 47 52 45 51 53 58 61 60 61 52 55 60 62 62 63 64 63 65 65 67 67 68 69 68 68 68 67 68 69 70 71 71 71 71 71 70 69 68 67 67 70 67 66 66
29 33 25 51 47 49 50 48 49 57 57 59 62 61 61 54 58 61 62 62 63 63 65 66 67 67 68 69 69 68 67 68 69 69 70 69 71 72 71 71 70 70 68 66 68 70 69 70 69
32 26 40 48 47 41 46 48 49 54 56 59 60 60 61 57 58 62 62 62 63 64 66 67 68 67 68 69 70 69 68 67 68 68 69 70 70 71 71 71 70 70 69 68 68 70 69 69 69
21 23 24 37 39 38 44 46 45 54 57 58 59 61 61 62 62 63 62 62 62 65 67 67 67 66 67 68 69 69 68 68 68 68 69 69 69 70 70 71 71 70 69 68 66 69 69 69 68
20 20 26 31 34 36 45 41 44 57 55 58 60 61 62 62 64 64 66 64 64 65 67 66 66 65 66 68 69 70 69 68 68 69 69 69 69 70 70 71 71 71 70 70 67 70 70 69 70
21 21 24 29 34 32 43 49 53 58 58 59 60 60 61 62 62 63 66 67 67 65 68 67 66 65 66 67 69 69 70 69 68 69 69 68 70 70 69 70 71 70 70 70 70 70 70 70 70
20 25 26 27 31 30 39 44 46 55 57 59 59 60 61 62 63 65 66 67 68 67 67 68 69 66 68 68 69 69 70 70 70 69 70 69 70 69 69 70 71 71 72 71 70 70 70 69 70
26 28 29 27 30 30 35 42 54 55 57 58 58 61 61 62 64 64 66 68 68 68 69 69 70 69 69 70 69 69 70 70 71 70 70 70 69 69 70 70 70 70 71 71 70 70 70 69 69
27 26 29 26 27 39 39 43 55 57 58 59 59 60 62 63 65 65 66 67 67 68 68 68 69 69 69 68 69 70 70 71 71 70 71 71 71 69 70 70 70 70 70 71 71 71 70 70 69

GFSSGP_sfc_dewp_096.txt.gz
Dewpoint
71 69 68 64 56 54 51 54 58 48 47 50 45 49 49 57 54 47 63 66 71 71 72 74 75 74 74 73 73 75 74 75 75 75 74 75 74 75 75 74 74 74 74 72 72 72 73 72 72
69 68 65 63 55 49 50 57 56 55 51 46 49 55 59 59 63 62 65 70 71 72 73 73 75 73 73 73 73 74 74 73 74 75 74 74 74 74 74 74 74 74 73 74 73 73 73 73 72
68 66 61 58 56 52 52 58 57 55 48 48 59 61 62 61 63 65 69 71 71 73 73 72 73 73 72 73 73 73 73 74 74 74 74 74 74 75 75 74 74 74 74 74 73 73 72 72 72
63 65 64 57 53 55 57 58 56 50 50 61 61 60 63 65 65 68 71 71 72 72 71 73 73 73 74 74 74 73 73 74 74 74 74 74 75 74 75 74 74 74 74 74 73 73 72 72 72
64 64 58 56 54 58 59 60 59 55 57 59 59 59 62 67 69 70 71 71 71 71 72 73 74 74 74 74 74 74 73 74 74 74 74 74 74 74 74 75 73 73 73 73 73 72 72 73 73
63 63 54 54 55 59 60 62 62 59 59 60 58 59 62 68 69 69 71 71 72 73 73 74 74 74 73 73 74 74 74 74 74 74 74 75 74 74 74 74 74 73 73 73 71 72 72 72 72
61 60 56 55 56 58 60 63 61 58 58 59 59 59 64 66 67 69 70 71 73 73 73 73 73 73 73 74 74 74 74 73 74 74 74 74 74 74 74 74 74 73 73 72 72 72 72 72 72
63 62 56 57 56 57 60 60 60 57 57 59 60 59 60 64 67 68 70 71 72 72 73 72 73 72 72 73 74 73 74 73 73 74 74 74 74 74 73 75 74 73 72 72 72 72 72 72 73
66 59 55 56 57 57 61 58 61 60 57 59 60 61 63 67 66 68 69 70 70 72 72 72 72 72 72 73 73 73 73 73 73 73 74 73 73 74 74 75 73 72 72 72 71 71 71 72 73
62 58 57 61 61 59 58 58 59 57 58 59 61 64 66 66 65 66 66 67 69 70 71 71 71 71 71 72 71 71 72 72 72 72 71 72 72 73 74 74 74 73 73 71 71 70 70 71 70
62 58 60 61 61 61 57 57 58 58 58 57 60 63 65 65 65 64 65 67 68 70 71 71 71 71 71 71 71 71 70 71 71 71 71 71 72 73 73 73 71 71 72 71 70 70 71 70 72
59 61 61 62 60 59 59 60 57 58 59 60 62 63 64 64 64 64 65 67 68 69 70 71 71 71 70 71 71 70 70 70 70 71 71 70 71 71 71 72 71 71 69 69 70 70 71 71 71
60 60 63 63 61 61 61 58 57 60 61 62 63 63 63 63 64 65 66 66 68 68 70 70 71 70 70 71 70 70 70 71 70 70 70 70 70 70 71 71 70 70 71 70 69 70 69 71 66
60 59 63 64 62 61 60 60 58 61 62 62 63 62 62 63 64 65 65 66 67 68 69 70 70 70 70 70 69 69 70 71 70 70 70 70 70 70 70 70 70 71 71 71 70 69 70 69 65
60 58 61 62 62 61 62 59 58 62 62 61 62 62 63 63 64 64 65 66 67 68 69 69 69 70 69 70 69 69 70 67 69 70 70 70 71 70 70 70 70 71 73 71 71 70 69 68 66
57 57 54 60 62 62 61 56 62 64 60 60 61 62 62 61 63 64 65 66 67 68 68 69 69 69 69 70 69 69 69 68 70 70 71 71 71 70 70 69 70 70 71 70 71 69 69 68 68
44 51 53 56 59 59 58 57 60 62 59 59 60 61 61 59 61 64 66 66 67 68 68 68 69 69 69 70 69 69 69 69 70 70 71 71 70 70 71 69 70 72 71 70 70 70 68 68 66
36 46 52 53 58 58 55 55 59 61 60 59 59 59 59 59 60 64 65 66 67 67 67 68 68 69 70 69 69 70 69 70 70 71 71 71 72 71 72 71 71 71 70 70 71 70 70 69 69
35 37 48 57 60 57 57 56 59 60 60 60 59 57 57 60 61 64 64 66 66 66 66 68 68 68 68 68 68 68 68 70 70 71 72 72 72 73 72 72 71 71 70 71 70 69 70 68 68
33 47 54 56 58 56 56 56 57 60 59 60 61 56 57 58 62 63 64 65 65 65 66 67 68 68 68 68 68 69 69 70 71 71 72 72 72 73 73 71 70 70 71 71 71 69 68 68 68
31 34 53 53 54 55 54 52 55 57 60 61 61 61 59 58 62 63 64 65 65 65 66 67 67 68 68 68 70 70 70 70 71 71 71 71 71 72 72 71 71 71 71 70 71 71 70 68 69
33 37 48 53 50 43 53 42 51 53 58 60 60 60 60 59 62 63 63 64 64 64 66 67 67 68 68 69 69 69 68 68 69 70 72 72 72 72 73 72 71 71 70 71 70 71 69 70 69
32 35 46 52 48 47 48 47 48 54 53 59 61 60 60 57 62 62 62 64 64 64 65 66 67 68 69 69 70 68 69 69 70 70 71 71 72 73 71 72 72 72 70 70 70 72 72 73 71
31 31 44 48 46 41 44 45 46 53 52 56 60 61 60 57 62 63 62 64 64 64 65 67 67 67 69 69 69 69 68 68 69 70 70 71 72 73 73 73 72 72 71 70 71 72 72 71 71
24 27 31 40 40 38 43 46 45 54 56 57 60 61 61 59 60 62 63 63 64 64 65 67 67 66 68 69 70 69 69 69 68 69 70 70 71 71 72 73 72 72 71 71 70 72 72 72 71
20 26 29 32 36 37 46 43 44 57 58 59 60 61 61 59 61 63 64 65 65 65 66 67 67 66 67 69 69 70 69 69 70 70 70 70 71 71 72 72 73 72 72 70 70 71 71 71 71
21 19 24 30 34 37 43 45 52 58 59 59 60 60 61 61 62 63 64 66 66 65 67 67 67 67 67 68 69 70 70 69 69 70 71 70 71 71 71 71 73 72 72 72 72 72 72 72 72
22 25 23 27 29 30 35 44 42 55 57 59 59 59 61 62 62 63 64 64 66 66 68 67 67 67 67 68 69 69 70 70 70 70 70 70 71 71 71 70 71 72 72 73 72 72 72 72 71
27 26 27 28 33 30 32 38 52 54 58 59 60 61 61 62 64 65 66 67 67 68 69 70 69 68 68 68 68 70 70 71 71 70 71 71 71 71 71 71 71 72 72 73 73 72 72 71 71
31 26 27 26 26 35 34 37 55 56 59 59 59 61 62 63 63 64 66 67 67 68 69 69 69 69 69 70 70 69 70 71 71 71 71 72 72 71 70 71 71 72 71 72 72 72 72 71 71

GFSSGP_sfc_dewp_099.txt.gz
Dewpoint
69 67 67 64 57 56 53 55 56 44 44 45 45 44 50 59 53 45 62 67 68 68 71 72 75 74 74 75 74 73 74 74 75 75 75 75 75 75 74 74 74 74 74 73 73 73 73 73 73
67 66 65 64 55 51 52 55 49 44 46 44 48 50 56 59 60 61 64 69 68 69 70 71 75 74 73 73 74 73 73 74 75 74 74 74 74 74 74 74 74 75 75 74 74 73 73 72 72
65 65 63 59 56 52 52 56 52 52 47 46 55 60 61 60 60 64 66 68 69 70 71 72 73 73 73 72 73 74 74 74 74 74 74 74 74 74 74 74 74 74 74 73 73 73 72 73 73
63 65 65 56 52 54 56 57 55 47 52 60 58 59 62 63 63 67 68 68 69 70 68 72 73 73 74 74 73 73 73 74 74 74 74 74 74 74 74 74 74 74 74 73 73 72 72 72 72
65 64 58 54 53 57 57 58 51 47 53 59 59 59 59 66 68 68 68 68 68 67 69 70 75 74 74 73 74 73 74 74 74 74 74 74 74 74 73 74 74 74 73 73 73 73 73 73 74
63 63 55 53 53 58 59 60 54 54 59 59 58 57 62 68 67 68 68 68 67 66 69 72 74 74 73 73 74 74 74 74 74 74 74 73 74 74 74 74 73 73 73 72 73 73 72 72 73
61 60 55 56 54 56 58 61 57 57 58 57 58 56 64 65 68 68 69 68 67 70 70 70 71 73 73 74 74 74 74 74 74 75 74 74 74 74 74 74 73 73 72 72 72 72 73 72 72
62 62 56 55 55 55 59 59 59 57 57 59 58 57 60 64 68 69 68 68 68 70 70 71 72 71 72 71 73 74 73 73 74 74 74 74 74 74 74 75 74 73 73 72 72 72 72 73 73
66 60 55 56 55 56 59 57 59 59 57 59 60 59 62 67 68 67 67 68 68 70 71 71 70 72 73 73 73 73 73 74 74 74 75 75 73 71 70 74 73 72 72 72 72 71 72 73 73
62 59 57 60 60 57 58 57 56 56 57 60 62 64 65 66 66 63 65 67 67 69 70 70 70 70 71 71 74 74 72 72 73 73 74 72 73 73 73 74 74 74 73 72 72 72 72 69 69
61 58 60 60 60 59 57 57 55 56 55 59 60 62 64 64 62 59 61 66 66 68 69 70 71 73 71 73 72 71 70 71 72 73 72 73 72 73 71 70 69 70 71 68 68 68 68 70 70
58 60 60 59 61 58 57 57 56 56 57 58 61 62 63 61 56 57 60 64 66 68 69 70 71 73 72 73 69 70 69 70 69 71 73 72 70 70 71 70 71 70 69 70 70 70 71 71 71
58 59 61 61 60 61 58 57 56 59 59 61 62 62 60 59 58 58 60 63 66 67 68 69 71 72 73 72 70 70 70 69 70 70 71 70 69 71 71 72 70 71 71 69 70 71 71 70 66
58 59 62 62 61 63 58 57 55 60 60 61 61 61 61 61 61 60 61 64 66 67 68 69 70 72 71 71 72 71 71 71 70 70 70 72 70 72 71 71 70 71 72 72 72 72 70 67 66
58 58 60 60 61 61 61 56 58 61 59 60 60 61 61 61 61 60 62 64 66 67 68 69 69 70 71 71 71 71 71 69 70 70 72 72 72 72 73 71 71 72 74 73 73 72 70 67 66
57 56 54 60 61 62 60 54 60 62 59 59 60 61 62 62 62 63 64 65 66 67 69 69 66 69 70 71 71 70 70 70 70 70 71 72 72 73 72 70 71 71 73 71 70 69 68 68 67
52 52 52 58 62 62 57 56 62 63 60 59 60 61 61 62 63 64 65 66 66 68 70 70 70 70 71 73 71 71 71 70 70 69 71 73 72 71 72 70 71 74 71 71 70 68 70 68 68
44 49 51 54 60 58 56 55 61 63 61 59 60 61 61 61 62 64 65 66 67 68 70 70 70 71 73 72 72 71 70 71 71 71 71 72 72 73 75 71 73 73 71 70 71 72 71 70 68
35 42 50 57 59 58 56 56 60 60 61 61 59 60 60 60 62 63 65 66 67 68 69 70 71 72 72 71 69 70 68 70 71 71 73 73 74 74 75 72 73 72 72 73 72 71 70 68 70
42 48 53 57 59 57 57 57 58 59 59 61 60 59 59 60 61 63 64 65 66 68 69 70 71 72 72 71 71 71 71 69 71 72 73 73 73 74 74 75 72 73 71 74 74 73 69 69 70
30 36 50 52 55 54 54 54 56 59 60 61 62 61 59 59 60 62 64 64 66 67 68 70 71 72 72 73 71 72 72 71 71 71 71 74 73 73 75 74 73 74 73 70 73 73 71 68 70
28 34 52 52 48 44 52 45 53 57 58 60 60 62 59 59 60 61 63 64 65 67 68 70 71 72 72 73 72 73 69 72 69 71 75 76 73 73 73 74 74 74 72 73 73 73 72 71 68
30 36 50 50 49 48 48 47 49 56 55 58 60 60 60 59 59 61 62 64 65 66 67 69 71 72 72 72 73 72 71 70 71 72 75 76 76 75 73 75 75 74 71 73 73 75 75 71 69
34 47 48 48 48 42 41 41 47 52 54 56 59 60 60 60 59 61 63 64 65 66 66 68 71 72 72 72 72 73 73 72 70 71 70 71 71 73 74 74 75 74 74 73 72 75 74 73 72
29 34 38 38 37 33 44 44 42 52 54 53 58 60 61 60 60 62 64 64 65 66 66 67 70 71 71 72 72 72 73 73 73 74 70 71 77 75 74 76 76 73 74 73 73 75 75 74 72
27 28 32 34 34 34 47 41 44 53 57 56 57 60 61 60 61 62 64 65 66 66 66 67 68 70 70 71 73 73 75 70 71 72 70 70 71 70 73 74 75 75 74 73 73 71 72 74 72
24 24 30 33 37 37 44 45 49 57 57 57 56 59 61 61 60 63 64 65 66 66 66 68 69 69 69 69 71 73 73 72 71 73 73 71 73 72 73 73 74 74 75 74 74 70 73 74 74
24 25 22 27 31 32 37 43 39 55 57 58 58 58 60 61 61 63 65 65 67 67 68 68 68 69 69 69 70 70 72 73 73 73 73 73 73 73 73 73 73 74 74 75 75 73 74 74 72
26 24 28 25 29 27 29 37 52 55 59 58 60 60 61 61 62 64 65 66 67 68 67 69 70 69 68 69 70 72 71 72 73 73 73 73 74 74 74 74 73 72 73 74 75 75 73 74 74
32 27 27 23 30 30 29 33 56 57 59 60 61 61 62 63 63 65 66 66 67 67 69 69 71 70 71 70 71 70 72 73 73 73 73 73 73 74 74 74 74 74 74 74 74 74 73 73 73

GFSSGP_sfc_dewp_102.txt.gz
Dewpoint
68 64 65 64 57 51 48 52 46 44 44 45 44 42 49 56 49 47 57 62 63 64 67 71 74 74 75 74 73 74 74 75 75 75 75 75 75 75 75 74 74 74 74 74 73 73 74 73 72
62 65 65 63 53 44 49 51 44 44 43 44 44 49 53 56 55 55 59 63 64 64 66 68 75 74 73 74 74 74 74 75 74 75 74 75 74 74 74 73 73 74 74 73 73 73 72 73 73
63 65 62 58 55 46 50 50 45 44 43 44 50 53 58 54 55 56 61 64 64 65 68 71 73 73 72 73 74 74 74 74 74 74 75 74 74 74 75 74 74 73 74 73 73 73 73 73 73
62 65 63 56 52 54 53 51 49 44 42 54 56 57 57 55 59 60 63 64 64 66 66 71 73 72 73 72 74 74 74 73 74 74 74 74 74 74 74 74 74 74 73 73 73 73 73 73 73
64 62 59 54 53 55 55 55 47 43 54 57 56 57 54 61 62 63 64 64 63 61 63 68 74 74 74 73 73 74 74 74 74 74 74 74 74 74 74 74 74 74 73 73 73 73 74 74 74
63 62 56 51 53 57 57 54 48 49 58 59 57 53 59 64 63 64 63 62 59 60 65 69 74 74 74 74 73 74 74 74 74 74 74 74 74 74 73 74 74 73 73 73 73 73 73 73 72
61 60 55 54 54 57 58 54 51 53 56 56 56 53 61 61 64 64 63 61 59 62 65 68 70 73 74 73 74 74 74 74 74 74 74 74 74 74 73 74 73 72 73 73 73 73 73 73 72
62 62 55 54 54 55 58 57 58 56 56 57 55 55 60 63 64 64 63 60 64 64 64 67 68 69 69 70 74 74 74 74 74 74 74 74 74 74 73 75 74 72 72 72 72 72 73 73 73
66 61 56 53 54 57 58 57 59 58 57 56 57 55 61 65 64 63 60 61 62 64 66 66 66 70 71 70 72 73 74 74 74 73 73 73 68 67 70 73 73 73 72 71 71 71 72 72 73
62 60 56 58 57 56 56 57 56 56 57 56 56 59 62 64 64 58 58 60 62 64 64 65 66 67 67 66 71 71 69 69 70 71 69 66 68 70 69 72 74 73 72 72 71 72 71 70 65
60 58 58 60 59 57 56 56 55 54 55 58 58 60 61 62 59 56 59 60 61 63 64 64 67 67 66 68 66 66 67 68 70 71 68 69 68 68 65 67 67 67 70 66 68 67 66 68 67
58 60 58 59 59 57 57 55 54 53 54 58 59 59 59 58 55 54 58 60 62 64 64 64 66 68 67 66 64 64 66 67 66 68 71 70 67 68 68 67 68 70 66 69 69 66 69 68 69
57 59 59 60 59 57 56 55 55 56 57 58 57 57 56 55 53 55 58 61 63 62 63 64 67 70 71 69 65 65 66 66 66 67 70 68 67 69 68 70 69 69 68 66 68 69 67 67 65
57 59 58 61 61 61 55 55 53 57 58 57 56 54 54 53 53 56 58 61 64 63 63 65 67 70 70 70 71 68 67 67 66 66 69 71 68 71 68 69 68 69 68 68 69 70 66 64 63
57 59 60 59 60 60 58 55 54 56 55 55 55 55 55 56 56 58 60 61 63 62 64 66 68 69 70 71 70 67 67 65 65 66 71 71 71 73 73 69 68 69 71 73 71 69 67 63 62
57 58 55 58 61 62 60 55 59 57 54 55 55 55 57 57 57 59 60 61 63 62 66 67 64 67 68 69 70 67 66 65 66 67 69 71 72 73 72 68 68 70 70 69 66 66 63 64 63
57 53 53 57 62 60 56 56 60 59 54 55 56 57 57 59 59 61 61 62 63 65 66 66 67 66 69 72 69 69 71 68 67 68 68 73 72 71 71 69 70 72 69 67 66 65 66 64 63
45 50 53 53 59 57 55 57 60 61 56 55 56 57 57 57 59 62 62 62 63 66 67 68 67 70 71 70 71 68 68 68 68 68 68 72 70 71 72 69 72 70 67 67 67 71 67 64 64
43 48 54 58 59 54 54 56 59 61 61 58 56 56 57 57 59 62 63 63 64 66 67 68 69 72 70 68 66 66 65 68 68 68 72 73 72 72 73 70 71 70 69 71 72 69 68 63 66
45 48 55 58 59 57 57 56 59 58 60 59 56 56 56 56 58 61 63 63 63 66 68 70 71 73 72 70 70 68 67 66 67 68 72 71 72 71 71 73 71 72 69 73 73 72 65 65 68
37 41 50 53 55 56 53 53 57 58 60 61 61 57 56 57 57 60 62 63 64 65 67 69 71 73 73 72 73 72 72 71 69 69 68 70 72 71 72 73 72 73 70 67 72 71 72 63 67
33 40 45 52 50 44 51 47 53 58 59 58 57 59 56 58 59 59 61 63 63 65 66 69 71 72 73 74 71 74 69 70 67 69 68 69 71 71 71 72 72 74 71 73 71 70 71 71 65
33 35 41 43 43 43 47 42 46 55 57 58 57 57 58 57 58 58 60 62 63 65 66 68 71 72 72 74 73 73 70 66 67 68 72 72 72 72 71 72 74 75 70 73 73 73 72 70 66
44 45 43 40 38 36 38 39 48 51 53 57 59 60 60 58 57 59 60 62 62 65 66 67 71 73 73 73 73 73 71 70 67 68 68 68 69 69 71 71 72 74 73 73 71 73 71 74 71
36 38 38 39 35 35 42 39 41 52 53 55 57 60 59 60 58 58 60 62 63 65 66 67 70 72 73 72 72 72 71 71 72 71 67 70 68 68 71 72 73 71 73 73 72 75 73 72 71
34 34 35 34 36 31 42 38 42 49 52 53 56 59 60 59 59 58 60 63 64 65 66 66 69 71 72 71 73 74 72 67 66 68 68 67 70 68 73 71 71 72 72 73 74 71 69 71 69
30 32 33 33 33 31 35 38 47 51 53 54 53 55 59 60 59 60 61 64 64 65 67 67 69 70 71 70 72 72 71 71 70 70 73 68 71 71 73 73 72 72 72 73 74 69 72 73 72
24 25 27 31 30 30 33 36 37 51 52 54 53 56 59 61 60 60 61 63 66 64 66 67 68 70 70 70 70 69 70 71 70 71 70 72 75 74 73 73 73 71 72 72 73 71 72 73 70
23 22 22 21 25 24 27 31 49 50 54 54 54 56 58 61 61 63 64 64 65 66 67 68 68 69 69 69 69 70 69 69 71 70 70 71 71 74 73 75 74 74 73 73 74 73 71 72 71
28 22 23 20 26 26 27 35 53 56 57 57 57 57 59 60 62 64 66 67 68 69 69 68 71 68 69 69 70 71 68 69 68 70 70 72 71 74 73 73 75 73 71 73 73 72 69 71 70

GFSSGP_sfc_dewp_105.txt.gz
Dewpoint
68 66 64 63 60 53 46 45 44 42 42 43 41 44 51 53 49 49 56 59 62 63 66 71 74 74 74 74 74 74 75 75 75 75 75 75 74 74 74 74 74 74 74 74 74 73 72 71 73
63 62 64 62 59 44 44 44 42 43 42 42 45 50 53 50 51 55 58 61 61 61 64 68 75 75 74 74 74 74 75 74 75 75 75 74 74 74 74 73 74 74 74 74 73 73 74 73 72
65 63 64 57 55 44 45 45 44 42 42 44 47 55 51 50 52 55 59 60 65 66 67 71 73 73 74 74 74 74 74 74 74 74 74 75 74 74 74 74 74 73 73 73 73 74 74 73 72
60 62 61 56 51 49 46 46 44 42 45 52 54 50 50 55 54 58 59 62 65 65 67 72 72 72 72 74 74 74 74 74 74 74 74 74 74 74 74 74 74 74 74 74 73 73 73 74 73
62 60 59 54 50 48 47 47 43 44 52 54 52 49 53 56 58 59 63 63 65 62 61 68 74 74 74 73 74 74 74 74 74 74 74 74 74 74 74 74 74 74 74 74 73 74 74 74 72
62 61 55 51 50 51 51 47 44 51 55 56 51 53 56 58 59 61 61 61 56 57 64 69 74 74 74 73 74 74 74 74 74 74 74 74 74 75 74 74 73 74 73 73 73 73 73 72 71
59 60 54 52 53 54 52 47 47 54 54 54 51 53 56 58 59 57 56 54 57 65 64 67 69 73 74 74 74 74 74 74 74 74 75 74 74 74 74 74 73 74 73 73 73 73 73 73 73
62 63 55 52 53 55 52 50 50 53 54 54 53 54 55 60 58 57 55 55 61 63 66 67 67 67 70 69 74 74 74 74 74 74 74 74 74 74 74 74 73 73 73 72 72 73 73 74 73
64 60 55 52 53 56 55 56 57 58 55 54 54 55 58 58 57 56 55 60 61 64 64 65 64 70 73 70 72 73 74 75 74 73 74 75 69 68 70 74 73 72 72 71 71 71 73 74 74
62 60 56 56 55 56 55 55 56 54 54 54 54 57 59 58 57 55 56 56 59 64 63 64 64 65 69 65 72 70 70 71 71 71 71 72 68 67 66 71 72 71 71 71 71 72 73 74 71
59 59 61 57 58 54 53 54 53 51 51 54 57 58 59 57 56 54 55 56 58 60 61 64 68 70 65 66 64 64 69 68 69 68 66 67 66 67 64 68 68 68 72 69 70 69 69 63 65
57 59 58 58 59 55 53 54 52 50 52 56 58 57 57 56 52 53 54 57 59 59 60 60 62 69 65 63 62 63 67 69 63 66 70 70 69 70 74 65 65 73 64 67 69 64 67 66 65
56 59 58 58 58 56 54 52 53 52 55 56 56 56 55 52 51 54 56 57 59 58 60 61 65 73 71 66 62 65 65 70 65 68 71 73 71 68 71 72 71 68 71 63 65 64 64 66 63
57 58 60 60 59 56 53 53 51 52 56 55 55 53 51 51 51 55 56 57 59 59 60 63 68 70 70 67 68 66 68 66 66 67 67 70 70 73 66 70 66 69 68 65 66 67 63 62 61
58 56 57 59 60 57 60 52 51 53 54 54 52 49 51 50 52 55 57 58 60 60 62 64 66 67 67 68 68 70 64 67 68 67 70 70 71 72 71 66 70 70 68 71 68 66 65 60 60
57 57 55 59 62 59 59 53 53 54 53 50 49 49 50 52 53 56 57 58 60 61 64 64 63 64 66 68 69 68 68 66 70 65 68 70 72 71 73 71 65 66 68 66 64 63 60 60 60
58 54 54 58 61 59 58 56 55 52 50 50 50 50 52 53 56 57 57 59 60 63 65 64 67 65 67 69 72 71 70 71 66 66 72 71 71 71 75 73 69 74 67 64 69 59 67 60 60
51 54 55 56 57 58 57 58 59 51 51 51 51 52 53 53 55 58 58 59 61 64 65 65 64 68 72 71 72 70 71 71 66 71 71 71 70 70 72 70 69 73 68 65 65 72 64 63 61
54 56 55 58 57 56 56 57 58 59 56 57 54 53 54 55 57 58 58 59 61 64 65 66 67 70 69 66 66 70 72 73 73 72 71 71 71 71 73 73 70 71 72 71 70 68 68 61 62
40 50 54 58 57 54 56 56 58 59 58 59 55 55 54 55 57 58 61 59 59 63 65 67 69 71 71 67 76 75 70 68 71 71 71 72 71 72 70 74 72 73 68 71 72 72 66 60 61
38 51 52 53 57 57 55 53 56 58 59 60 61 60 55 55 56 59 61 60 60 63 65 67 70 72 72 74 75 71 70 71 65 67 68 70 70 70 72 72 74 71 74 71 73 70 71 61 62
34 51 54 52 51 46 52 46 53 56 58 59 57 58 58 52 56 58 59 60 59 63 64 68 70 72 72 73 75 74 69 65 72 69 72 69 70 70 71 72 72 73 73 74 72 70 74 73 61
35 38 55 53 47 42 49 45 49 57 56 58 57 57 58 59 54 54 57 58 59 63 63 66 71 73 72 74 74 71 72 72 71 71 73 74 73 71 70 72 72 73 70 72 74 71 74 69 68
38 41 41 43 42 36 44 41 45 51 56 56 56 56 58 58 56 58 58 61 59 61 63 65 70 73 72 73 73 73 73 74 71 71 70 68 68 69 71 71 72 73 74 72 70 73 72 74 74
40 40 38 36 32 31 41 38 46 50 53 57 56 55 56 58 60 56 62 59 63 66 65 64 69 71 71 72 71 71 70 71 71 70 69 71 68 66 71 72 73 71 74 73 73 74 74 71 71
36 36 37 37 34 32 41 35 45 50 53 55 56 55 53 55 59 58 58 61 64 66 66 64 68 71 71 71 72 72 72 67 67 69 74 73 69 70 73 72 71 71 72 72 73 70 68 73 69
30 33 35 35 43 39 40 42 50 49 50 52 54 56 56 58 55 60 57 61 68 63 66 66 68 70 70 70 71 72 72 71 71 72 73 71 71 72 72 71 71 71 72 72 74 70 72 73 72
26 28 27 30 32 33 33 39 43 48 49 50 51 54 58 58 59 59 59 60 60 62 63 67 67 68 69 69 69 69 70 71 71 71 72 72 72 72 74 72 72 72 72 73 74 72 73 72 70
20 22 25 25 25 24 26 34 49 51 50 52 52 53 56 59 60 65 64 66 61 63 63 65 66 69 68 68 68 68 67 67 69 68 69 71 71 72 72 73 72 72 72 73 74 75 74 72 72
20 20 21 19 27 23 23 42 49 49 50 52 52 54 58 61 61 63 66 66 67 67 67 67 70 68 68 69 70 69 69 68 66 68 68 71 72 73 72 73 72 71 72 73 73 73 69 70 70

GFSSGP_sfc_dewp_108.txt.gz
Dewpoint
70 65 65 65 60 60 43 43 42 40 40 41 50 50 49 50 49 51 58 64 65 65 70 72 75 74 74 74 75 75 75 75 75 75 76 75 75 74 74 74 74 74 74 74 72 72 72 74 73
65 63 64 66 59 45 42 42 41 41 40 49 55 49 48 50 53 57 60 60 62 64 67 70 76 75 74 75 74 74 74 75 75 75 75 74 75 75 75 74 74 75 75 73 74 74 73 72 73
67 64 65 60 58 48 43 42 42 41 41 52 56 53 50 52 54 57 61 61 64 66 68 72 75 75 74 74 74 74 74 75 74 74 75 75 75 74 74 74 73 73 74 74 74 74 73 72 73
61 62 63 57 52 45 44 43 42 43 49 49 48 48 49 54 55 58 61 63 66 68 69 72 73 73 75 74 74 74 74 74 74 75 75 76 75 74 74 74 74 74 74 74 74 74 73 72 72
61 60 56 56 50 45 45 43 42 48 53 48 49 50 52 55 59 62 63 65 64 63 64 70 75 74 74 74 74 74 74 74 75 76 76 75 75 74 74 74 74 74 74 74 74 74 72 72 71
61 61 54 53 47 46 44 43 48 53 57 57 50 52 53 58 59 59 60 61 58 61 67 70 74 74 74 74 75 74 74 75 76 75 74 75 75 75 75 74 74 74 74 74 73 73 72 71 71
60 60 52 54 52 54 47 46 54 54 52 49 52 51 54 57 57 61 61 63 66 63 66 69 70 73 74 74 75 75 76 75 75 76 76 76 75 75 74 75 74 73 73 73 73 73 73 73 71
64 62 57 55 54 49 45 50 56 54 52 51 53 51 55 56 58 55 63 66 67 64 67 67 69 69 70 71 74 74 75 75 74 76 76 76 75 75 74 75 75 73 73 73 73 74 74 74 73
64 59 58 52 50 48 47 54 56 57 55 52 53 54 56 54 54 52 61 62 63 65 66 66 67 70 73 73 73 74 74 75 75 74 76 75 71 70 71 74 74 73 72 72 73 74 74 74 73
63 60 57 58 53 49 51 55 55 54 51 54 53 55 55 54 53 54 60 60 61 65 64 70 67 68 69 66 73 74 73 71 71 72 73 76 72 71 67 72 74 73 72 73 74 75 74 74 71
59 60 62 60 56 53 53 56 52 51 52 54 54 53 53 53 52 53 59 61 61 62 63 66 68 70 69 71 70 71 72 71 71 74 72 74 69 70 69 72 70 71 73 71 71 72 71 73 72
55 64 60 63 56 57 50 49 49 49 52 54 56 54 53 52 50 52 57 59 61 63 64 63 65 70 66 68 68 70 70 70 68 71 76 76 71 72 72 73 71 74 72 69 71 70 71 70 66
58 58 59 60 58 54 50 48 53 52 56 56 57 55 52 51 51 54 58 59 57 60 63 64 70 73 74 69 68 70 70 69 68 72 73 75 70 72 70 65 71 73 72 70 72 72 70 70 68
57 58 57 56 57 60 51 52 49 53 54 54 55 53 52 50 51 55 57 57 59 61 64 67 68 72 72 74 74 70 72 71 70 71 72 71 74 74 72 73 73 71 74 73 69 71 70 70 66
58 58 57 60 60 61 57 52 48 51 52 52 52 51 50 50 52 54 56 57 58 60 67 68 69 68 72 73 72 70 71 68 71 70 71 71 75 77 74 72 74 74 74 74 74 73 68 68 66
56 57 54 56 60 62 57 53 50 52 52 51 50 48 50 50 52 55 56 58 60 62 67 69 64 65 68 72 73 72 69 69 69 70 73 75 76 76 75 75 70 73 76 75 74 73 70 66 69
56 54 54 56 61 60 58 55 53 51 50 49 48 48 49 51 53 55 56 60 61 65 66 67 69 66 70 74 74 70 74 71 73 72 74 76 75 75 73 74 74 76 73 69 71 69 70 69 66
52 52 52 55 59 59 56 55 51 50 50 48 47 48 49 51 54 55 55 59 63 65 67 66 69 71 74 73 77 75 71 73 73 74 72 76 75 75 77 75 75 74 72 70 72 73 71 73 65
49 51 54 57 58 57 57 57 57 55 51 52 49 49 52 52 56 55 57 59 62 65 66 68 71 73 71 72 68 73 68 73 73 72 75 76 76 76 76 76 74 72 72 76 75 75 73 72 71
51 53 55 56 58 57 57 56 59 59 59 54 57 52 52 55 57 56 57 59 60 65 67 70 70 73 74 72 72 74 73 73 73 74 75 74 75 76 75 77 74 73 75 76 76 76 75 71 70
53 52 53 52 56 57 56 53 57 58 59 59 61 60 58 57 58 57 59 58 61 65 67 70 72 73 75 76 72 76 73 76 73 71 73 73 74 75 73 76 74 77 76 75 77 76 75 72 70
50 52 51 53 52 48 53 47 52 55 56 56 58 59 58 59 59 58 58 60 60 65 66 71 73 73 74 74 74 71 73 71 73 74 74 75 75 74 74 76 76 76 72 73 77 75 76 75 72
47 50 49 52 52 47 50 47 53 56 54 55 57 58 58 61 59 59 56 62 62 63 65 70 73 74 76 73 77 74 75 71 72 72 72 78 77 76 73 76 76 77 76 76 76 75 77 76 75
45 48 48 50 52 49 48 47 46 52 52 53 53 53 58 59 62 61 58 62 62 62 65 70 73 74 75 74 74 75 72 71 72 71 71 75 73 74 76 74 77 77 77 74 75 77 76 76 77
38 45 41 44 48 42 43 47 47 52 54 52 52 53 57 60 60 62 59 59 62 64 64 68 72 73 74 74 73 74 75 73 70 71 72 69 73 71 75 77 77 76 77 76 76 77 76 76 75
32 34 33 34 35 44 49 41 45 50 52 54 55 54 56 58 59 63 58 63 65 66 67 68 72 72 73 73 75 76 75 73 72 72 73 69 71 72 75 76 76 76 77 76 77 76 75 76 75
31 31 32 39 41 35 45 46 50 50 51 54 55 56 54 57 56 58 61 62 65 67 68 69 72 72 73 72 74 75 76 75 76 74 73 70 72 73 73 75 76 75 75 76 76 75 74 74 72
27 29 27 27 36 36 41 42 51 51 52 55 56 56 56 55 56 60 61 64 65 66 65 68 71 71 72 72 72 72 73 74 75 72 72 70 69 73 69 71 75 76 74 74 76 75 73 75 74
18 23 26 24 26 28 40 45 56 51 53 52 56 56 57 54 55 61 64 67 67 63 65 67 69 71 70 71 71 72 72 72 73 74 73 69 71 73 69 75 76 76 74 74 76 76 75 74 75
20 19 23 22 29 27 30 41 52 56 58 55 52 57 57 57 59 61 65 68 70 69 69 66 69 69 69 69 72 72 72 71 71 73 72 76 75 77 76 76 76 76 75 76 76 74 74 72 73

GFSSGP_sfc_dewp_111.txt.gz
Dewpoint
71 69 66 68 60 60 43 43 47 49 51 51 52 50 51 52 51 52 63 66 68 69 71 72 76 75 75 75 75 75 75 75 75 76 76 74 74 75 75 74 74 74 74 71 72 74 73 73 73
65 65 66 66 57 48 42 44 42 52 52 50 52 53 52 53 56 60 64 67 68 70 71 73 75 75 75 75 75 75 75 75 75 75 76 75 75 75 75 74 73 73 74 74 73 72 73 73 73
65 67 65 62 56 48 43 42 42 51 52 50 51 53 54 56 58 61 65 66 67 69 72 73 76 76 75 75 74 75 75 75 75 75 75 75 74 73 73 73 74 74 74 74 73 72 72 72 73
61 65 64 55 54 52 44 43 43 50 49 50 50 51 56 59 61 66 69 67 68 70 72 75 75 74 74 74 74 74 74 74 75 75 75 74 74 74 74 74 74 74 74 74 74 72 71 71 71
59 61 57 55 54 44 43 44 50 48 49 50 52 54 58 60 64 67 68 68 69 69 70 71 75 75 75 74 75 75 74 75 75 75 75 75 74 74 74 74 74 74 74 74 74 71 71 70 70
58 59 54 52 48 47 43 50 52 51 52 53 53 57 58 61 63 66 67 65 64 68 71 71 74 75 75 74 74 75 75 75 75 75 75 75 75 74 75 74 73 73 73 73 72 71 71 70 70
61 56 53 54 53 47 50 55 55 51 51 52 54 56 58 59 64 64 61 62 67 69 71 72 72 72 74 75 74 75 75 75 75 75 75 75 74 74 74 74 73 73 73 73 72 72 71 71 69
64 60 56 56 53 46 52 55 53 50 52 53 54 55 54 61 66 64 63 66 67 68 70 70 71 72 72 73 75 74 74 75 75 75 75 76 75 74 74 75 75 73 73 73 73 72 72 71 71
65 58 56 55 54 49 56 57 59 55 52 52 54 55 56 60 62 62 63 65 65 67 68 70 70 71 71 73 73 74 74 74 75 75 74 75 73 71 72 74 74 73 73 73 73 73 73 73 73
62 58 58 60 60 54 56 57 54 54 55 54 55 55 56 61 62 63 63 63 63 67 68 70 69 70 71 70 72 73 73 72 72 68 70 72 71 71 71 73 74 72 72 72 72 73 74 74 72
62 58 59 60 61 54 54 55 54 54 54 55 54 54 52 54 58 59 60 62 63 65 66 67 67 68 67 69 71 72 72 72 69 65 67 71 71 69 67 70 73 71 72 63 69 65 71 72 72
58 62 61 60 61 60 55 55 54 53 55 55 54 54 52 51 58 60 60 60 62 63 64 66 68 66 68 70 71 70 71 70 70 70 71 71 69 65 65 70 72 71 68 64 70 69 68 70 71
58 60 60 60 61 62 58 54 55 55 56 54 53 52 52 50 58 60 60 61 61 62 63 65 67 67 65 67 71 69 69 68 69 71 70 70 70 70 68 67 70 66 71 69 68 68 67 67 66
60 61 60 62 63 61 55 54 54 55 57 54 53 51 52 51 58 58 58 61 62 64 65 68 68 68 70 69 68 68 69 69 68 68 69 69 69 70 69 65 70 69 71 70 68 66 68 67 63
58 58 59 61 61 60 62 52 53 55 56 54 53 51 51 52 57 57 58 59 64 66 67 67 66 67 69 68 67 66 67 69 69 65 61 63 67 70 70 70 69 70 71 69 69 68 69 66 68
61 58 54 59 61 60 61 53 53 54 53 53 52 51 50 51 56 56 57 60 65 65 65 65 64 66 66 68 69 68 68 69 70 68 66 65 70 72 71 72 69 70 70 71 70 69 67 67 66
55 52 51 54 61 57 59 53 55 53 52 51 50 50 49 52 55 56 58 62 65 66 66 65 65 65 66 68 70 68 67 67 69 70 72 71 70 72 70 71 72 72 72 70 68 68 66 64 64
52 51 52 52 58 59 58 55 55 52 51 50 48 49 50 52 53 56 59 61 62 66 66 66 66 64 68 69 72 70 70 70 72 71 71 71 70 71 72 73 67 65 69 71 71 70 69 68 65
51 52 54 56 60 58 57 57 58 59 53 51 47 48 50 52 54 55 60 61 62 64 65 67 66 70 68 68 67 67 67 70 71 70 70 70 70 70 71 72 60 63 68 69 71 70 70 69 68
53 53 52 56 58 57 57 56 59 59 59 60 59 49 51 53 54 56 61 61 62 64 64 68 69 69 66 69 69 70 69 71 71 71 71 70 72 70 72 72 68 68 70 71 71 71 71 69 66
52 52 52 52 55 56 56 53 55 58 59 59 59 60 56 54 55 57 60 61 62 64 67 68 69 68 70 71 71 71 69 72 71 69 71 71 72 71 71 72 71 70 70 70 72 72 71 71 70
50 54 53 52 51 48 54 46 52 55 56 57 57 58 58 58 57 57 59 60 62 64 67 68 69 69 71 71 71 68 69 67 70 70 71 70 71 71 71 71 72 71 71 70 72 71 72 72 70
51 53 54 51 51 51 51 50 50 53 53 55 55 57 59 59 57 57 58 59 62 65 66 69 70 70 71 70 71 70 69 69 70 70 70 70 72 71 71 71 70 72 72 71 71 73 71 72 72
54 55 53 51 51 46 47 49 45 53 52 52 54 56 59 59 61 61 62 61 62 64 66 69 70 70 71 69 71 69 69 67 69 69 70 70 71 71 70 71 73 72 72 71 71 72 70 72 71
52 50 44 44 44 43 49 49 48 50 53 52 51 53 57 60 62 63 62 61 61 63 65 70 70 69 71 71 71 70 70 69 68 68 69 68 68 70 70 72 71 71 71 71 71 71 70 71 70
46 44 40 38 41 44 51 48 49 52 52 52 53 50 55 60 61 62 62 62 61 63 66 68 70 70 70 71 70 71 71 71 70 70 71 68 68 70 71 72 71 71 73 72 72 71 72 70 70
32 38 36 42 43 36 47 50 55 54 52 53 52 51 53 59 59 62 61 66 65 63 67 70 70 69 71 71 71 70 71 70 71 70 70 68 67 69 71 72 72 72 72 71 71 71 70 70 68
33 32 28 34 38 38 42 41 48 51 53 53 52 50 53 56 57 60 61 65 66 64 68 71 71 70 70 71 71 71 71 71 70 70 70 67 67 68 71 72 71 72 71 70 71 71 69 71 71
23 25 27 28 30 35 41 43 53 48 54 56 58 54 54 55 56 57 60 64 66 66 69 70 71 71 70 71 70 71 71 70 70 71 70 69 68 70 70 70 71 71 70 72 71 71 70 71 70
21 20 25 26 25 28 34 40 48 51 55 57 56 60 59 56 55 56 62 65 67 68 67 68 68 70 70 70 70 71 70 70 70 70 69 67 68 71 71 69 72 71 71 72 71 71 72 70 70

GFSSGP_sfc_dewp_117.txt.gz
Dewpoint
71 69 69 68 56 53 47 50 52 48 49 50 52 51 53 56 49 46 61 64 66 67 71 73 74 74 74 75 75 75 74 73 74 74 74 74 74 74 74 74 74 74 73 73 73 73 73 73 73
67 68 68 65 51 46 48 52 50 50 52 53 54 52 55 56 61 61 63 67 67 70 71 73 76 75 74 75 75 74 74 73 74 74 74 74 74 74 74 72 71 71 73 72 73 73 73 73 73
65 69 64 56 53 43 49 52 52 52 53 53 55 56 58 59 61 61 66 67 70 70 72 73 74 75 74 75 75 74 74 74 74 74 74 73 73 72 72 74 74 72 72 72 73 73 73 72 73
63 67 61 53 51 50 50 52 53 52 56 56 56 56 59 62 62 66 68 70 70 72 73 73 74 74 74 75 74 74 74 74 74 74 73 73 73 73 73 74 73 73 72 71 72 72 72 72 73
59 60 55 53 52 50 51 52 53 54 56 56 56 57 61 64 66 68 69 70 71 72 73 72 74 74 74 74 74 74 74 74 74 74 74 74 73 73 73 73 73 73 73 71 71 71 71 72 73
59 58 52 50 47 50 50 52 55 56 58 58 57 59 62 65 66 68 70 71 72 72 72 73 74 74 74 74 74 74 74 75 74 74 74 74 74 74 74 73 72 72 72 70 70 70 70 71 71
56 57 53 53 50 51 52 55 56 57 57 57 58 59 62 65 67 70 70 70 70 70 71 72 73 73 74 74 74 74 74 75 74 74 74 74 74 73 73 72 72 72 71 71 70 70 70 71 70
61 59 54 54 51 51 53 54 57 56 56 59 59 59 60 63 68 67 67 69 70 70 71 71 72 73 72 73 74 74 74 74 74 74 74 74 73 73 73 74 73 72 72 72 71 71 72 73 72
64 56 54 53 53 55 55 53 56 58 57 57 58 60 61 66 65 65 68 70 70 71 70 71 72 71 72 72 73 74 74 74 74 74 73 74 72 72 72 72 72 72 73 73 73 72 72 72 72
61 56 56 59 59 57 52 53 54 55 55 57 58 62 64 65 61 66 67 68 68 69 70 71 71 71 72 72 72 72 74 73 73 73 72 71 70 71 72 72 74 74 73 73 73 73 73 73 72
61 56 58 57 59 60 60 55 53 54 54 57 60 61 63 61 63 65 66 67 67 68 70 70 70 71 71 71 72 72 71 70 68 69 70 70 70 67 68 69 70 69 72 68 62 66 66 67 68
57 59 59 59 59 60 58 59 54 52 55 59 61 61 61 61 63 64 65 66 67 68 69 69 70 70 69 72 71 71 70 67 67 67 68 69 65 65 66 68 68 67 69 69 65 67 67 67 67
58 59 59 60 60 60 59 58 56 55 57 60 60 60 60 60 63 64 66 65 66 67 68 68 69 69 69 70 71 70 70 69 69 69 70 67 62 62 64 67 67 67 65 68 68 68 68 68 67
59 60 59 59 60 60 60 59 59 57 57 59 59 59 59 61 62 62 63 64 65 65 67 67 67 68 69 69 70 70 69 69 70 70 70 68 67 65 67 66 64 66 68 70 69 69 67 67 66
61 58 59 60 61 60 61 57 55 56 57 58 59 59 60 61 60 61 63 64 64 64 66 66 66 67 67 68 69 69 69 68 68 69 69 68 69 68 68 67 67 68 70 70 70 69 69 68 66
56 59 54 59 60 60 59 53 57 55 54 56 56 58 58 59 60 61 63 63 63 65 65 66 66 68 67 67 68 69 68 68 66 63 66 66 70 70 68 68 69 70 71 70 69 67 66 66 66
55 52 52 55 59 60 58 55 57 55 52 52 51 52 55 59 59 61 62 63 63 65 65 65 66 66 67 67 67 67 68 69 67 63 67 68 72 71 70 70 69 68 68 70 71 68 65 64 64
50 52 52 53 56 59 56 56 57 56 53 51 51 56 57 58 58 61 62 64 64 65 65 64 65 65 67 68 67 68 68 68 69 69 70 70 71 72 72 70 66 67 69 71 70 69 70 65 64
52 53 53 55 57 58 56 57 58 59 58 54 51 53 56 57 58 61 63 64 64 64 64 64 63 65 67 68 68 67 67 69 69 70 70 70 70 71 71 66 63 69 70 70 72 71 70 68 67
53 52 52 55 58 57 56 56 59 59 59 58 58 51 54 56 59 62 63 63 63 63 64 64 63 67 67 66 68 67 68 68 69 70 70 70 70 71 71 70 68 69 68 70 70 70 69 69 69
51 51 52 52 55 56 56 54 56 58 59 60 59 58 54 56 59 61 62 62 63 63 64 65 64 67 66 68 70 68 70 70 69 69 69 69 70 71 72 70 70 69 68 69 70 70 70 68 67
49 53 52 53 50 46 54 45 53 56 55 56 57 58 55 57 59 61 60 61 63 63 65 65 66 65 68 69 68 67 67 66 67 68 69 70 71 70 71 71 71 70 70 69 71 71 70 69 67
46 53 52 51 51 48 50 48 49 55 55 55 55 57 56 58 58 59 59 61 63 63 65 66 66 68 69 70 68 67 67 67 68 68 68 69 69 70 71 70 71 70 70 70 70 70 70 70 68
53 51 52 51 49 43 46 49 47 51 54 54 53 56 57 57 59 58 59 61 62 63 65 66 66 68 68 69 69 68 67 67 68 67 68 69 68 70 70 71 71 70 70 70 70 69 70 70 70
52 49 43 42 43 41 49 47 47 50 51 51 50 55 57 57 59 59 59 60 61 63 65 66 67 67 68 69 69 68 68 68 67 67 68 68 67 69 69 70 71 70 70 70 71 70 68 69 69
48 45 43 39 41 42 51 45 47 50 51 51 52 55 56 59 59 59 60 60 61 64 64 66 66 67 67 68 69 69 68 68 67 67 68 68 68 68 69 70 71 70 71 69 71 70 71 69 69
47 43 43 41 41 41 47 48 49 52 52 52 51 51 55 57 59 59 60 62 62 64 65 65 65 66 68 67 69 69 69 69 68 68 67 68 68 68 68 71 70 71 70 71 70 70 70 70 68
45 45 40 40 36 35 42 43 44 51 51 52 53 51 54 56 60 60 60 62 63 63 66 67 67 66 68 68 68 68 69 69 69 69 68 68 67 66 68 70 70 70 70 71 70 70 69 69 69
29 29 30 35 37 33 36 39 49 50 53 52 53 53 54 56 60 61 61 62 63 65 66 67 68 67 67 68 68 68 69 69 69 68 68 68 67 66 66 67 69 68 70 71 70 70 69 68 69
29 24 24 24 22 30 32 25 50 55 56 57 57 58 55 56 58 60 61 64 64 65 65 67 68 68 68 68 68 69 69 69 68 68 68 68 66 65 65 67 69 68 70 69 70 70 70 70 69

GFSSGP_sfc_dewp_120.txt.gz
Dewpoint
69 69 70 67 53 51 48 48 50 47 49 51 52 51 53 58 50 46 61 65 66 68 71 73 73 74 74 74 74 74 74 74 74 74 74 74 74 74 74 74 73 73 73 73 74 73 74 73 73
69 68 68 63 49 45 48 52 47 49 52 52 54 55 56 56 61 60 60 66 66 69 72 73 74 74 74 75 74 74 73 74 73 74 74 74 74 74 73 71 73 73 73 73 73 73 73 73 73
65 68 64 55 51 46 48 52 52 53 54 54 55 58 59 60 60 60 64 67 70 70 72 73 74 75 74 74 74 73 74 74 74 74 74 74 74 72 73 74 73 72 73 73 73 73 73 73 73
63 67 61 52 49 48 51 53 53 54 55 57 57 57 61 61 62 65 67 70 70 71 72 73 74 74 74 74 74 74 74 74 74 74 74 74 73 73 73 73 73 72 72 72 73 73 73 73 73
60 60 55 52 49 52 52 53 54 55 56 56 57 58 60 65 66 68 69 70 70 71 72 73 74 73 74 74 74 74 74 74 73 73 73 73 73 73 73 73 73 73 72 71 71 71 72 73 73
57 57 52 48 48 52 52 54 56 57 58 58 58 59 62 67 67 68 70 71 72 71 72 73 73 73 74 74 74 74 74 74 74 74 73 73 73 73 73 73 73 73 71 71 71 71 71 72 73
55 56 53 52 49 50 53 56 56 57 56 57 59 59 63 65 68 70 71 71 71 72 72 72 73 73 74 74 74 74 74 74 74 73 73 73 73 73 73 73 72 72 71 70 70 71 71 71 71
59 59 54 53 49 50 54 56 58 57 57 60 61 58 60 64 69 68 69 70 70 70 72 72 72 73 73 72 74 74 74 74 74 74 73 73 73 73 74 74 73 72 71 71 70 70 71 72 72
63 55 53 53 52 53 55 55 58 60 57 57 60 61 63 68 66 68 68 69 70 70 71 71 72 72 72 72 73 74 74 74 74 73 74 73 73 73 72 73 73 73 73 73 72 73 73 73 73
59 55 56 59 59 58 54 55 56 56 57 59 60 63 66 65 66 66 66 67 68 69 70 71 71 71 72 73 73 72 74 74 73 73 72 72 72 73 73 74 73 73 73 71 69 72 70 68 70
61 55 58 59 59 60 60 55 56 55 56 58 59 63 65 63 65 65 66 67 68 69 70 70 71 71 71 71 72 72 71 71 71 71 71 71 70 68 70 70 70 68 71 69 65 66 67 67 69
57 60 59 60 60 59 58 59 53 55 57 59 61 63 63 61 64 66 66 67 67 68 69 70 70 71 70 72 72 71 69 67 68 69 71 70 67 66 67 69 69 69 67 68 68 68 69 69 69
58 59 59 61 60 60 60 59 55 55 60 61 62 62 62 61 64 65 66 67 68 68 69 70 70 70 70 71 71 71 70 67 68 68 70 68 66 64 66 67 68 68 68 69 70 70 70 70 69
59 60 59 60 60 60 59 59 57 57 60 60 61 61 60 61 63 64 66 65 67 68 68 69 69 70 70 70 70 71 71 70 71 71 71 69 67 65 68 68 67 68 70 71 70 70 70 69 68
59 57 59 61 61 59 61 57 58 58 60 59 59 60 60 61 63 63 65 65 66 66 68 68 68 68 70 70 70 70 70 70 70 70 70 70 70 69 70 69 70 71 72 72 72 71 70 70 68
58 57 54 59 59 60 59 53 59 58 58 58 59 59 59 61 62 63 64 65 65 66 67 68 68 67 68 69 70 70 69 69 69 68 70 68 70 71 70 71 71 72 72 72 72 69 68 68 69
54 50 52 55 59 59 58 54 57 58 57 57 58 59 59 60 61 62 64 64 64 65 66 67 67 68 69 69 69 69 68 68 67 65 68 69 72 71 71 72 70 70 71 73 72 71 68 67 68
48 50 51 52 56 59 56 56 57 56 56 57 57 58 59 59 60 62 63 64 64 66 66 66 67 68 68 68 68 69 69 70 69 68 70 71 72 72 73 70 68 71 73 73 72 72 70 68 68
53 52 51 55 58 58 56 57 57 57 55 54 52 53 55 58 60 61 62 64 64 65 65 66 66 67 68 68 68 68 68 69 69 70 71 72 72 73 71 65 69 72 72 72 73 72 71 70 70
53 52 52 56 57 57 56 56 59 60 59 56 53 55 56 58 58 61 62 64 64 64 65 65 65 67 68 69 68 68 68 70 70 71 72 72 71 72 71 70 71 71 71 72 72 72 70 69 68
52 51 52 52 56 56 55 53 57 59 60 59 59 55 57 57 58 61 62 63 63 64 64 65 64 67 68 69 69 70 70 70 70 71 71 72 72 72 73 71 71 71 71 72 73 72 71 68 68
48 52 53 53 49 48 55 46 53 57 57 57 57 58 55 56 59 61 62 62 63 64 65 65 65 67 68 70 69 69 68 68 69 70 71 71 72 72 72 72 72 72 72 73 74 72 72 71 68
49 54 52 51 50 48 51 48 48 55 55 56 56 57 57 56 59 61 61 62 63 64 65 66 66 66 68 70 69 68 68 69 69 70 70 71 72 72 72 72 72 72 73 73 72 72 72 72 71
52 51 50 50 47 41 46 47 46 52 53 55 56 56 58 56 59 61 62 62 62 64 65 66 66 67 69 69 69 68 68 68 69 69 69 70 71 71 72 72 73 73 72 72 72 72 72 72 72
50 45 40 39 42 42 48 47 45 49 53 55 55 55 57 57 59 60 60 61 62 64 65 66 66 66 69 69 69 69 68 69 69 69 69 69 70 71 71 72 72 72 72 72 73 72 71 71 71
47 44 41 37 40 42 51 46 44 50 53 55 55 54 57 56 58 59 59 61 62 63 65 65 66 66 68 69 69 69 69 69 69 69 69 70 70 70 71 71 72 72 73 72 73 71 71 71 71
47 43 44 41 42 40 44 48 48 52 50 52 53 53 56 57 58 59 59 61 61 63 64 66 66 66 68 68 69 69 69 69 69 69 69 68 70 69 70 71 72 72 72 73 72 71 71 72 71
47 48 39 40 37 36 38 44 44 49 51 51 51 52 55 58 58 59 59 60 61 62 64 66 66 66 67 68 68 69 70 70 70 69 69 69 69 69 70 70 71 71 72 72 72 72 72 71 70
39 40 33 37 37 33 34 32 52 54 53 52 53 54 54 58 59 60 60 61 62 64 64 65 67 66 67 68 68 69 69 70 70 70 70 69 69 68 68 70 70 71 71 72 73 72 72 71 71
36 27 27 29 25 32 31 26 56 58 59 57 57 55 55 59 61 60 61 62 63 65 64 66 67 67 66 68 68 69 69 70 69 69 69 70 69 68 68 68 69 70 70 72 71 72 72 71 71

GFSSGP_sfc_dewp_123.txt.gz
Dewpoint
68 67 69 68 55 52 45 46 49 49 50 51 53 51 52 56 51 50 60 63 63 65 70 70 72 72 73 74 75 74 74 73 74 74 74 74 74 74 74 73 73 74 74 74 74 74 74 74 74
69 66 68 66 51 43 45 49 47 50 50 52 53 55 55 54 58 59 60 64 64 66 69 70 74 74 74 74 74 74 74 74 74 74 74 74 74 73 73 74 73 74 73 73 73 72 72 73 74
68 67 64 58 53 45 46 51 49 51 52 53 55 57 57 55 58 58 62 64 65 69 70 71 73 74 74 74 74 74 74 74 74 74 74 74 73 75 74 73 73 74 74 74 73 73 73 73 73
64 67 61 53 48 49 50 52 52 53 54 56 55 54 57 58 57 61 64 65 65 68 71 72 73 74 74 74 73 74 74 74 74 74 74 73 74 73 73 73 72 73 73 73 73 74 74 74 74
59 60 55 51 49 50 53 53 53 53 55 55 55 54 56 64 64 63 65 65 67 68 69 70 74 74 74 74 74 74 74 74 74 73 73 74 73 73 73 73 73 72 72 72 72 73 73 73 72
58 58 50 49 48 52 53 54 56 56 57 56 54 54 60 67 64 64 65 66 68 68 69 70 73 73 74 74 74 74 74 74 74 74 73 73 73 73 73 73 73 71 71 72 72 72 72 73 72
56 57 52 49 50 51 52 56 55 54 55 55 55 55 62 66 66 66 66 67 66 66 68 70 69 73 73 74 74 74 74 74 74 73 73 73 73 73 73 73 72 71 70 71 71 72 72 72 72
59 59 52 50 49 49 54 56 57 55 56 58 57 55 59 65 68 67 67 66 68 68 68 70 72 72 71 74 74 74 74 74 74 73 73 74 74 73 74 74 73 71 70 70 70 71 72 72 72
61 56 52 50 49 51 55 55 57 59 56 57 60 57 61 66 67 65 66 68 69 69 70 72 71 73 73 74 73 74 74 74 73 74 75 74 72 71 70 73 73 73 72 72 71 71 72 73 72
59 57 55 59 58 52 53 55 56 55 55 58 61 63 65 66 65 63 64 65 66 67 69 71 71 70 73 74 75 75 74 74 74 73 74 73 73 74 72 72 72 73 72 71 68 70 68 68 67
58 55 59 59 59 57 54 54 55 54 53 58 58 62 63 63 64 65 64 63 63 64 68 70 71 73 73 74 73 73 73 72 73 73 73 73 71 70 69 69 67 68 68 66 66 66 67 67 68
57 59 59 60 59 59 56 57 55 55 54 58 60 62 63 63 64 64 61 62 64 66 67 69 70 72 72 72 72 71 70 70 69 71 73 72 68 68 70 69 69 69 69 71 71 69 71 71 71
57 59 60 61 60 59 59 57 54 55 59 59 61 62 62 62 63 62 63 64 66 65 67 69 71 73 73 73 72 69 69 67 68 71 72 71 68 68 68 69 68 70 70 71 72 72 71 71 69
59 59 59 60 60 59 58 57 54 57 60 60 61 61 61 61 62 63 65 64 65 66 67 68 70 72 72 71 73 71 70 69 71 71 72 71 68 68 68 70 70 71 72 72 72 72 71 70 66
59 57 58 60 61 58 60 56 54 59 58 59 59 60 61 61 63 63 64 64 66 66 68 68 69 70 72 72 72 73 74 72 71 71 72 71 72 72 73 71 71 72 74 75 74 72 72 67 64
55 55 54 57 60 60 59 53 58 59 57 58 59 60 60 61 62 63 64 64 66 66 68 69 66 68 70 71 72 71 72 71 71 71 72 71 72 73 73 72 72 73 74 74 73 70 67 66 66
54 50 52 54 58 60 58 54 58 59 56 57 58 59 59 61 62 63 64 64 65 67 68 69 69 69 70 72 71 72 71 70 70 70 71 72 74 73 74 73 71 73 74 74 72 70 69 66 66
46 50 50 52 55 59 56 56 58 58 58 57 58 58 59 59 60 62 64 64 65 67 69 70 69 71 72 71 72 71 70 70 69 68 70 72 74 73 75 72 71 74 73 72 71 72 71 69 69
44 51 49 52 56 55 56 56 57 57 57 57 57 58 59 59 60 62 63 64 65 66 68 69 70 71 71 70 69 69 68 70 68 69 72 73 74 74 74 70 72 74 73 74 75 72 72 69 70
49 51 51 54 56 55 56 55 57 57 57 57 57 58 58 58 59 61 63 63 64 66 68 69 70 72 71 70 70 69 70 70 70 71 73 74 73 74 74 73 73 74 73 75 75 74 71 69 71
49 48 52 51 56 56 55 53 55 59 60 58 57 56 57 58 58 61 62 63 64 66 68 69 70 71 72 72 71 71 71 72 70 74 76 72 73 73 74 73 73 74 74 72 74 74 73 68 69
44 50 51 53 51 48 55 47 53 57 58 58 56 55 55 57 59 60 61 63 64 65 67 68 70 71 71 73 71 72 68 68 72 76 74 74 74 73 74 74 74 75 73 75 74 73 73 73 68
47 52 51 50 49 50 51 49 50 56 55 57 57 57 54 55 57 58 60 62 63 64 66 67 69 70 71 72 73 72 71 69 72 71 73 75 75 73 73 75 74 74 73 75 75 75 75 72 71
53 50 50 50 49 44 45 47 45 52 54 55 57 57 57 55 57 59 61 63 63 64 65 66 69 70 71 72 73 73 72 72 70 71 69 70 72 71 74 73 75 76 74 75 73 75 74 74 74
49 48 45 43 43 41 47 47 45 49 53 54 56 57 58 57 57 59 61 62 63 64 65 66 68 69 70 70 72 72 72 72 72 72 70 71 70 70 74 75 75 76 75 74 75 75 74 74 72
46 38 38 36 40 41 49 44 45 51 51 53 56 57 57 57 57 58 61 62 64 64 65 66 67 68 69 70 72 73 73 70 70 72 70 70 70 70 73 73 74 74 75 74 75 73 72 73 72
46 41 43 39 41 37 41 45 50 52 52 54 54 56 56 57 57 57 61 62 63 64 66 66 67 68 69 69 71 72 73 72 71 72 72 70 72 71 72 72 73 73 74 75 75 71 73 74 73
48 47 43 41 35 33 35 41 44 53 56 54 54 55 56 57 59 59 60 61 63 63 64 66 67 67 68 69 70 70 71 72 72 72 72 72 72 72 72 72 72 73 74 74 75 75 74 74 72
45 44 42 39 38 32 32 35 54 56 58 55 53 54 55 57 59 60 60 61 63 63 63 65 66 67 67 68 69 70 70 71 72 71 72 73 72 72 71 72 72 73 73 74 75 75 74 74 74
41 39 42 35 33 36 35 34 55 57 57 58 56 55 54 57 60 61 61 62 63 64 64 64 66 67 67 68 69 70 70 71 70 72 72 73 73 72 72 71 71 71 72 73 74 73 72 73 72

GFSSGP_sfc_dewp_126.txt.gz
Dewpoint
67 65 67 66 53 45 44 47 48 48 48 50 51 50 51 54 51 53 60 62 63 65 67 68 72 72 71 73 74 73 73 73 74 74 74 74 74 74 74 74 74 74 74 74 74 74 74 74 74
65 66 67 63 47 40 44 48 47 49 49 51 50 52 51 53 56 57 58 61 63 62 65 68 73 72 71 74 74 74 74 73 74 74 74 74 74 74 74 74 74 74 73 73 73 73 73 74 74
66 67 62 53 47 43 45 48 50 49 51 51 52 54 52 54 57 58 60 60 62 64 65 69 73 74 73 73 74 74 74 74 74 74 74 74 74 74 73 74 74 74 73 73 74 74 73 74 74
62 65 60 49 45 49 49 49 51 51 53 53 53 53 55 56 56 58 60 61 63 64 64 71 74 74 74 73 74 74 74 74 74 73 74 74 74 74 73 73 74 73 73 74 74 74 74 73 74
59 58 52 47 49 50 50 51 52 51 53 53 52 50 55 61 58 59 60 61 62 63 64 68 74 74 73 74 74 74 74 74 74 74 74 74 74 73 74 73 73 73 73 73 73 74 73 73 72
57 57 48 45 49 52 52 53 53 53 55 55 51 53 58 60 59 60 61 62 62 61 63 66 73 74 74 74 74 74 74 74 74 74 74 74 73 74 74 73 72 73 73 73 73 74 74 73 73
55 56 48 47 49 52 54 54 52 52 53 52 51 52 60 59 60 61 62 63 62 61 63 64 66 72 74 74 74 74 74 74 73 74 74 74 73 73 73 72 71 71 72 72 72 73 73 73 73
58 56 49 47 47 50 54 54 54 51 53 54 52 52 57 61 62 62 62 62 61 60 62 64 66 68 70 70 74 74 74 74 73 73 74 73 73 73 72 74 72 70 70 71 71 72 73 72 73
58 53 49 47 47 51 54 53 57 56 54 52 56 52 57 62 62 61 62 62 62 62 64 64 66 70 72 73 73 73 73 74 74 73 73 71 65 66 68 73 73 72 71 70 71 72 72 71 72
57 54 54 58 54 51 52 54 54 51 51 55 55 57 60 61 61 59 59 60 58 62 63 65 66 67 69 70 73 73 69 68 68 68 70 66 68 70 68 71 72 72 71 70 70 70 69 70 64
58 56 59 60 56 52 52 53 55 50 49 54 56 57 58 60 60 58 58 58 57 62 64 65 68 69 68 70 68 67 66 66 68 71 69 70 68 69 67 67 65 67 69 64 65 66 65 67 65
55 58 58 60 57 54 53 53 54 52 51 54 56 58 59 59 58 58 58 57 57 62 64 64 67 69 68 67 65 65 65 65 64 68 71 70 66 68 70 65 67 69 66 69 69 66 70 69 69
55 58 59 60 59 57 56 54 53 55 55 55 57 57 56 58 59 60 58 58 60 61 64 65 68 71 71 69 65 64 65 63 65 67 70 68 66 67 66 69 68 70 69 67 68 69 68 68 64
58 58 60 61 60 58 55 54 52 55 55 55 55 56 57 58 58 60 60 60 61 62 64 66 68 70 70 70 71 68 66 66 65 66 69 70 67 69 69 69 67 69 70 69 69 70 67 64 61
58 57 58 60 60 57 58 56 53 56 55 55 54 55 57 58 59 60 61 61 62 62 64 66 67 68 70 71 70 68 67 64 65 66 71 71 72 72 74 69 69 69 72 74 71 69 68 62 59
54 54 52 57 59 58 57 50 56 57 55 54 54 55 57 58 59 60 61 61 61 62 65 66 63 66 69 70 70 66 67 67 66 67 68 71 72 73 73 69 69 72 73 71 68 65 63 62 60
52 49 51 54 59 58 55 53 58 57 55 53 53 55 56 58 60 61 61 61 61 64 67 66 67 67 69 72 69 69 71 68 67 68 68 73 71 72 72 70 70 74 71 69 65 65 64 63 61
42 46 49 51 55 58 56 54 57 57 55 55 54 53 56 57 58 61 61 61 62 65 68 69 68 69 71 70 71 68 67 67 67 67 68 71 71 73 73 69 72 72 69 68 68 70 69 67 65
36 47 49 52 55 55 56 55 56 57 56 58 54 53 55 55 58 60 61 61 62 64 66 69 70 72 73 69 66 66 65 66 66 67 69 71 72 73 74 70 71 72 70 74 73 70 71 67 70
38 46 49 53 55 56 55 56 57 58 58 58 55 53 54 54 56 60 60 61 62 64 66 68 70 71 73 69 69 67 68 66 66 68 71 71 71 73 73 74 72 73 69 74 75 74 67 68 70
39 42 44 46 55 56 55 52 56 58 58 58 58 55 53 53 55 59 61 61 62 64 66 68 71 72 74 72 70 71 72 73 69 69 68 70 71 71 74 74 73 74 72 68 73 73 73 65 69
37 46 45 48 51 48 55 48 53 56 58 58 57 56 53 52 55 57 60 61 61 63 65 68 71 72 71 72 71 72 66 64 66 68 68 70 72 72 72 73 74 75 71 73 72 71 73 74 67
41 47 45 47 46 46 51 49 50 54 56 57 57 57 54 53 53 55 58 61 61 63 64 66 70 72 72 73 75 69 69 65 66 66 71 73 73 73 72 73 73 74 70 74 73 73 76 71 69
48 46 45 47 45 43 45 44 48 52 55 56 56 56 56 54 53 55 57 60 62 63 64 66 70 72 72 73 71 71 71 69 66 68 68 67 67 68 72 72 74 74 73 73 72 74 73 73 73
46 44 33 40 40 42 44 43 44 48 51 56 55 56 57 57 54 55 56 58 62 63 64 65 69 71 71 71 71 71 71 72 71 70 66 69 66 66 70 73 73 70 72 71 73 75 74 73 71
40 35 28 34 38 39 46 42 47 51 52 52 52 55 56 56 56 54 57 59 62 63 65 65 67 70 70 70 71 72 74 69 68 70 66 69 66 67 71 72 72 72 72 72 73 71 70 71 70
35 37 32 33 35 34 38 40 49 51 54 54 51 54 56 56 55 54 56 60 62 63 65 66 67 69 69 67 69 71 72 72 69 71 73 69 72 69 73 73 73 73 72 73 73 71 71 72 72
44 40 32 33 37 35 34 37 40 51 55 55 52 52 56 57 57 54 56 59 62 62 63 66 67 68 68 67 68 68 70 72 72 74 72 72 72 73 74 72 72 73 73 74 75 71 72 73 70
43 42 38 38 41 39 36 35 49 55 56 56 54 56 57 57 58 58 57 59 61 62 62 64 66 67 67 67 68 69 68 69 71 71 74 72 73 73 73 73 72 73 73 73 75 74 72 72 73
41 39 40 34 39 36 38 36 53 57 57 57 55 55 57 58 58 60 62 62 62 64 63 63 65 66 67 67 68 69 69 70 69 71 71 72 73 73 73 73 73 73 73 73 74 73 71 71 71